<?xml version="1.0" encoding="UTF-8" standalone="no" ?>
<gpx xmlns="http://www.topografix.com/GPX/1/1" xmlns:xsi="http://www.w3.org/2001/XMLSchema-instance" xsi:schemaLocation="http://www.topografix.com/GPX/1/1 http://www.topografix.com/GPX/1/1/gpx.xsd" version="1.1" creator="VisuGPX - https://www.visugpx.com">
  <metadata>
    <name>Sappey - Ptes Roches</name>
    <desc><![CDATA[Départ Le Sappey, Col Du Coq, St Hilaire, Col de Marcieu, St Vincent, Barraux.]]></desc>
  </metadata>
  <trk>
    <name><![CDATA[sappey barraux]]></name>
    <desc><![CDATA[<h1>OruxMaps</h1><br /><hr align="center" width="480" style="height: 2px; width: 517px"/><h2>Nom: sappey barraux</h2><br /><p>Temps de départ: 06/01/2014 09:11</p><p>Temps d'arrivée: 06/01/2014 14:40</p><p>Distance: 43,6 km (05:28)</p><p>Temps déplacement: 03:21</p><p>Vitesse moyenne: 8 km/h</p><p>Vitesse moyenne: 13 km/h</p><p>Vitess Max.: 43,4 km/h</p><p>Altitude minimale: 318 m</p><p>Altitude maximale: 1433 m</p><p>Vitesse d'élévation: 591,5 m/h</p><p>Vitesse de descente: -1218,4 m/h</p><p>Gain Altitude: 1800 m</p><p>Perte Altitude: -2497 m</p><p>Temps d'élévation: 03:02</p><p>Temps de descente: 02:03</p><hr align="center" width="480" style="height: 2px; width: 517px"/>]]></desc>
    <trkseg>
      <trkpt lat="45.2601" lon="5.77668">
        <ele>1009</ele>
        <time>2014-06-01T07:11:49Z</time>
      </trkpt>
      <trkpt lat="45.26009" lon="5.77694">
        <ele>1010</ele>
        <time>2014-06-01T07:13:14Z</time>
      </trkpt>
      <trkpt lat="45.2601" lon="5.77721">
        <ele>1010</ele>
        <time>2014-06-01T07:13:23Z</time>
      </trkpt>
      <trkpt lat="45.25992" lon="5.77733">
        <ele>1006</ele>
        <time>2014-06-01T07:13:31Z</time>
      </trkpt>
      <trkpt lat="45.25993" lon="5.77758">
        <ele>1008</ele>
        <time>2014-06-01T07:13:37Z</time>
      </trkpt>
      <trkpt lat="45.25989" lon="5.77786">
        <ele>1008</ele>
        <time>2014-06-01T07:13:43Z</time>
      </trkpt>
      <trkpt lat="45.25973" lon="5.77803">
        <ele>1008</ele>
        <time>2014-06-01T07:13:46Z</time>
      </trkpt>
      <trkpt lat="45.25957" lon="5.77816">
        <ele>1008</ele>
        <time>2014-06-01T07:13:49Z</time>
      </trkpt>
      <trkpt lat="45.25937" lon="5.77828">
        <ele>1008</ele>
        <time>2014-06-01T07:13:54Z</time>
      </trkpt>
      <trkpt lat="45.2592" lon="5.77843">
        <ele>1010</ele>
        <time>2014-06-01T07:14:00Z</time>
      </trkpt>
      <trkpt lat="45.25905" lon="5.77859">
        <ele>1007</ele>
        <time>2014-06-01T07:14:05Z</time>
      </trkpt>
      <trkpt lat="45.2589" lon="5.77878">
        <ele>1006</ele>
        <time>2014-06-01T07:14:09Z</time>
      </trkpt>
      <trkpt lat="45.25876" lon="5.77898">
        <ele>1006</ele>
        <time>2014-06-01T07:14:16Z</time>
      </trkpt>
      <trkpt lat="45.25859" lon="5.77912">
        <ele>1005</ele>
        <time>2014-06-01T07:14:20Z</time>
      </trkpt>
      <trkpt lat="45.25839" lon="5.77921">
        <ele>1005</ele>
        <time>2014-06-01T07:14:25Z</time>
      </trkpt>
      <trkpt lat="45.25821" lon="5.77929">
        <ele>1003</ele>
        <time>2014-06-01T07:14:31Z</time>
      </trkpt>
      <trkpt lat="45.25817" lon="5.77958">
        <ele>1002</ele>
        <time>2014-06-01T07:14:37Z</time>
      </trkpt>
      <trkpt lat="45.25822" lon="5.77985">
        <ele>1005</ele>
        <time>2014-06-01T07:14:43Z</time>
      </trkpt>
      <trkpt lat="45.25828" lon="5.78014">
        <ele>1006</ele>
        <time>2014-06-01T07:14:48Z</time>
      </trkpt>
      <trkpt lat="45.25832" lon="5.78044">
        <ele>1004</ele>
        <time>2014-06-01T07:14:53Z</time>
      </trkpt>
      <trkpt lat="45.25834" lon="5.78072">
        <ele>1009</ele>
        <time>2014-06-01T07:14:57Z</time>
      </trkpt>
      <trkpt lat="45.25838" lon="5.78098">
        <ele>1010</ele>
        <time>2014-06-01T07:15:02Z</time>
      </trkpt>
      <trkpt lat="45.25843" lon="5.78126">
        <ele>1011</ele>
        <time>2014-06-01T07:15:07Z</time>
      </trkpt>
      <trkpt lat="45.25846" lon="5.78152">
        <ele>1010</ele>
        <time>2014-06-01T07:15:10Z</time>
      </trkpt>
      <trkpt lat="45.25854" lon="5.78176">
        <ele>1009</ele>
        <time>2014-06-01T07:15:14Z</time>
      </trkpt>
      <trkpt lat="45.25866" lon="5.782">
        <ele>1010</ele>
        <time>2014-06-01T07:15:19Z</time>
      </trkpt>
      <trkpt lat="45.25874" lon="5.78224">
        <ele>1010</ele>
        <time>2014-06-01T07:15:25Z</time>
      </trkpt>
      <trkpt lat="45.25881" lon="5.7825">
        <ele>1010</ele>
        <time>2014-06-01T07:15:32Z</time>
      </trkpt>
      <trkpt lat="45.2589" lon="5.78276">
        <ele>1009</ele>
        <time>2014-06-01T07:15:39Z</time>
      </trkpt>
      <trkpt lat="45.25899" lon="5.78299">
        <ele>1009</ele>
        <time>2014-06-01T07:15:45Z</time>
      </trkpt>
      <trkpt lat="45.25908" lon="5.78322">
        <ele>1010</ele>
        <time>2014-06-01T07:15:50Z</time>
      </trkpt>
      <trkpt lat="45.25918" lon="5.78344">
        <ele>1015</ele>
        <time>2014-06-01T07:15:55Z</time>
      </trkpt>
      <trkpt lat="45.25927" lon="5.78367">
        <ele>1019</ele>
        <time>2014-06-01T07:16:01Z</time>
      </trkpt>
      <trkpt lat="45.25934" lon="5.78392">
        <ele>1019</ele>
        <time>2014-06-01T07:16:06Z</time>
      </trkpt>
      <trkpt lat="45.25943" lon="5.78419">
        <ele>1019</ele>
        <time>2014-06-01T07:16:53Z</time>
      </trkpt>
      <trkpt lat="45.25951" lon="5.78446">
        <ele>1020</ele>
        <time>2014-06-01T07:16:58Z</time>
      </trkpt>
      <trkpt lat="45.25958" lon="5.7847">
        <ele>1021</ele>
        <time>2014-06-01T07:17:02Z</time>
      </trkpt>
      <trkpt lat="45.25971" lon="5.78492">
        <ele>1022</ele>
        <time>2014-06-01T07:17:07Z</time>
      </trkpt>
      <trkpt lat="45.25983" lon="5.78512">
        <ele>1021</ele>
        <time>2014-06-01T07:17:12Z</time>
      </trkpt>
      <trkpt lat="45.25996" lon="5.78535">
        <ele>1020</ele>
        <time>2014-06-01T07:17:18Z</time>
      </trkpt>
      <trkpt lat="45.26011" lon="5.78555">
        <ele>1031</ele>
        <time>2014-06-01T07:17:24Z</time>
      </trkpt>
      <trkpt lat="45.26025" lon="5.78575">
        <ele>1031</ele>
        <time>2014-06-01T07:17:30Z</time>
      </trkpt>
      <trkpt lat="45.26037" lon="5.78597">
        <ele>1027</ele>
        <time>2014-06-01T07:17:35Z</time>
      </trkpt>
      <trkpt lat="45.26047" lon="5.78619">
        <ele>1028</ele>
        <time>2014-06-01T07:17:40Z</time>
      </trkpt>
      <trkpt lat="45.2606" lon="5.7864">
        <ele>1028</ele>
        <time>2014-06-01T07:17:45Z</time>
      </trkpt>
      <trkpt lat="45.26072" lon="5.78666">
        <ele>1027</ele>
        <time>2014-06-01T07:17:50Z</time>
      </trkpt>
      <trkpt lat="45.2608" lon="5.78689">
        <ele>1025</ele>
        <time>2014-06-01T07:17:54Z</time>
      </trkpt>
      <trkpt lat="45.26086" lon="5.78714">
        <ele>1030</ele>
        <time>2014-06-01T07:17:58Z</time>
      </trkpt>
      <trkpt lat="45.26093" lon="5.78743">
        <ele>1026</ele>
        <time>2014-06-01T07:18:03Z</time>
      </trkpt>
      <trkpt lat="45.26098" lon="5.78774">
        <ele>1029</ele>
        <time>2014-06-01T07:18:08Z</time>
      </trkpt>
      <trkpt lat="45.26105" lon="5.78802">
        <ele>1033</ele>
        <time>2014-06-01T07:18:13Z</time>
      </trkpt>
      <trkpt lat="45.26118" lon="5.78822">
        <ele>1034</ele>
        <time>2014-06-01T07:18:19Z</time>
      </trkpt>
      <trkpt lat="45.26133" lon="5.78843">
        <ele>1040</ele>
        <time>2014-06-01T07:18:27Z</time>
      </trkpt>
      <trkpt lat="45.26146" lon="5.78866">
        <ele>1040</ele>
        <time>2014-06-01T07:18:34Z</time>
      </trkpt>
      <trkpt lat="45.26153" lon="5.78891">
        <ele>1040</ele>
        <time>2014-06-01T07:18:39Z</time>
      </trkpt>
      <trkpt lat="45.26164" lon="5.78913">
        <ele>1037</ele>
        <time>2014-06-01T07:18:47Z</time>
      </trkpt>
      <trkpt lat="45.26174" lon="5.78936">
        <ele>1043</ele>
        <time>2014-06-01T07:18:56Z</time>
      </trkpt>
      <trkpt lat="45.26184" lon="5.78958">
        <ele>1046</ele>
        <time>2014-06-01T07:19:05Z</time>
      </trkpt>
      <trkpt lat="45.26194" lon="5.78981">
        <ele>1047</ele>
        <time>2014-06-01T07:19:15Z</time>
      </trkpt>
      <trkpt lat="45.26205" lon="5.79001">
        <ele>1052</ele>
        <time>2014-06-01T07:19:24Z</time>
      </trkpt>
      <trkpt lat="45.26223" lon="5.79014">
        <ele>1053</ele>
        <time>2014-06-01T07:19:33Z</time>
      </trkpt>
      <trkpt lat="45.26242" lon="5.79012">
        <ele>1054</ele>
        <time>2014-06-01T07:19:41Z</time>
      </trkpt>
      <trkpt lat="45.2626" lon="5.79015">
        <ele>1058</ele>
        <time>2014-06-01T07:19:50Z</time>
      </trkpt>
      <trkpt lat="45.26276" lon="5.7903">
        <ele>1061</ele>
        <time>2014-06-01T07:19:58Z</time>
      </trkpt>
      <trkpt lat="45.26292" lon="5.79048">
        <ele>1062</ele>
        <time>2014-06-01T07:20:06Z</time>
      </trkpt>
      <trkpt lat="45.26309" lon="5.79057">
        <ele>1062</ele>
        <time>2014-06-01T07:20:15Z</time>
      </trkpt>
      <trkpt lat="45.26325" lon="5.7907">
        <ele>1060</ele>
        <time>2014-06-01T07:20:24Z</time>
      </trkpt>
      <trkpt lat="45.26341" lon="5.79084">
        <ele>1062</ele>
        <time>2014-06-01T07:20:31Z</time>
      </trkpt>
      <trkpt lat="45.26354" lon="5.79102">
        <ele>1068</ele>
        <time>2014-06-01T07:20:38Z</time>
      </trkpt>
      <trkpt lat="45.26365" lon="5.79125">
        <ele>1071</ele>
        <time>2014-06-01T07:20:48Z</time>
      </trkpt>
      <trkpt lat="45.26377" lon="5.79144">
        <ele>1071</ele>
        <time>2014-06-01T07:20:56Z</time>
      </trkpt>
      <trkpt lat="45.26391" lon="5.79163">
        <ele>1071</ele>
        <time>2014-06-01T07:21:04Z</time>
      </trkpt>
      <trkpt lat="45.26407" lon="5.79178">
        <ele>1073</ele>
        <time>2014-06-01T07:21:13Z</time>
      </trkpt>
      <trkpt lat="45.26394" lon="5.79159">
        <ele>1071</ele>
        <time>2014-06-01T07:21:26Z</time>
      </trkpt>
      <trkpt lat="45.26408" lon="5.79178">
        <ele>1073</ele>
        <time>2014-06-01T07:21:46Z</time>
      </trkpt>
      <trkpt lat="45.26425" lon="5.79192">
        <ele>1075</ele>
        <time>2014-06-01T07:21:56Z</time>
      </trkpt>
      <trkpt lat="45.26439" lon="5.7921">
        <ele>1078</ele>
        <time>2014-06-01T07:22:05Z</time>
      </trkpt>
      <trkpt lat="45.26456" lon="5.79226">
        <ele>1078</ele>
        <time>2014-06-01T07:22:17Z</time>
      </trkpt>
      <trkpt lat="45.2647" lon="5.79245">
        <ele>1079</ele>
        <time>2014-06-01T07:22:25Z</time>
      </trkpt>
      <trkpt lat="45.26484" lon="5.79262">
        <ele>1081</ele>
        <time>2014-06-01T07:22:34Z</time>
      </trkpt>
      <trkpt lat="45.26499" lon="5.79277">
        <ele>1082</ele>
        <time>2014-06-01T07:22:43Z</time>
      </trkpt>
      <trkpt lat="45.26513" lon="5.79296">
        <ele>1086</ele>
        <time>2014-06-01T07:22:51Z</time>
      </trkpt>
      <trkpt lat="45.26527" lon="5.79312">
        <ele>1086</ele>
        <time>2014-06-01T07:22:59Z</time>
      </trkpt>
      <trkpt lat="45.26545" lon="5.79325">
        <ele>1086</ele>
        <time>2014-06-01T07:23:08Z</time>
      </trkpt>
      <trkpt lat="45.26561" lon="5.7934">
        <ele>1087</ele>
        <time>2014-06-01T07:23:15Z</time>
      </trkpt>
      <trkpt lat="45.26577" lon="5.79354">
        <ele>1086</ele>
        <time>2014-06-01T07:23:22Z</time>
      </trkpt>
      <trkpt lat="45.26594" lon="5.7937">
        <ele>1091</ele>
        <time>2014-06-01T07:23:31Z</time>
      </trkpt>
      <trkpt lat="45.26609" lon="5.79385">
        <ele>1092</ele>
        <time>2014-06-01T07:23:39Z</time>
      </trkpt>
      <trkpt lat="45.26623" lon="5.79402">
        <ele>1093</ele>
        <time>2014-06-01T07:23:57Z</time>
      </trkpt>
      <trkpt lat="45.26634" lon="5.79426">
        <ele>1092</ele>
        <time>2014-06-01T07:25:50Z</time>
      </trkpt>
      <trkpt lat="45.26647" lon="5.79449">
        <ele>1093</ele>
        <time>2014-06-01T07:25:59Z</time>
      </trkpt>
      <trkpt lat="45.26659" lon="5.79469">
        <ele>1092</ele>
        <time>2014-06-01T07:26:12Z</time>
      </trkpt>
      <trkpt lat="45.26669" lon="5.79492">
        <ele>1095</ele>
        <time>2014-06-01T07:26:24Z</time>
      </trkpt>
      <trkpt lat="45.26681" lon="5.79512">
        <ele>1098</ele>
        <time>2014-06-01T07:26:35Z</time>
      </trkpt>
      <trkpt lat="45.26692" lon="5.79534">
        <ele>1103</ele>
        <time>2014-06-01T07:26:44Z</time>
      </trkpt>
      <trkpt lat="45.26704" lon="5.79553">
        <ele>1105</ele>
        <time>2014-06-01T07:26:53Z</time>
      </trkpt>
      <trkpt lat="45.26722" lon="5.79563">
        <ele>1105</ele>
        <time>2014-06-01T07:27:09Z</time>
      </trkpt>
      <trkpt lat="45.26741" lon="5.79565">
        <ele>1106</ele>
        <time>2014-06-01T07:27:19Z</time>
      </trkpt>
      <trkpt lat="45.26757" lon="5.79578">
        <ele>1111</ele>
        <time>2014-06-01T07:27:26Z</time>
      </trkpt>
      <trkpt lat="45.26775" lon="5.79587">
        <ele>1110</ele>
        <time>2014-06-01T07:27:34Z</time>
      </trkpt>
      <trkpt lat="45.26793" lon="5.79594">
        <ele>1113</ele>
        <time>2014-06-01T07:27:42Z</time>
      </trkpt>
      <trkpt lat="45.26809" lon="5.79604">
        <ele>1115</ele>
        <time>2014-06-01T07:27:50Z</time>
      </trkpt>
      <trkpt lat="45.26824" lon="5.79623">
        <ele>1114</ele>
        <time>2014-06-01T07:27:57Z</time>
      </trkpt>
      <trkpt lat="45.2684" lon="5.7964">
        <ele>1119</ele>
        <time>2014-06-01T07:28:05Z</time>
      </trkpt>
      <trkpt lat="45.26854" lon="5.79658">
        <ele>1118</ele>
        <time>2014-06-01T07:28:15Z</time>
      </trkpt>
      <trkpt lat="45.26863" lon="5.79681">
        <ele>1115</ele>
        <time>2014-06-01T07:28:25Z</time>
      </trkpt>
      <trkpt lat="45.26876" lon="5.79699">
        <ele>1117</ele>
        <time>2014-06-01T07:28:36Z</time>
      </trkpt>
      <trkpt lat="45.26889" lon="5.79719">
        <ele>1117</ele>
        <time>2014-06-01T07:28:46Z</time>
      </trkpt>
      <trkpt lat="45.26904" lon="5.79734">
        <ele>1116</ele>
        <time>2014-06-01T07:28:53Z</time>
      </trkpt>
      <trkpt lat="45.26924" lon="5.79743">
        <ele>1120</ele>
        <time>2014-06-01T07:28:59Z</time>
      </trkpt>
      <trkpt lat="45.2694" lon="5.79754">
        <ele>1123</ele>
        <time>2014-06-01T07:29:19Z</time>
      </trkpt>
      <trkpt lat="45.26953" lon="5.79774">
        <ele>1126</ele>
        <time>2014-06-01T07:29:25Z</time>
      </trkpt>
      <trkpt lat="45.26969" lon="5.79792">
        <ele>1127</ele>
        <time>2014-06-01T07:29:30Z</time>
      </trkpt>
      <trkpt lat="45.26984" lon="5.79806">
        <ele>1127</ele>
        <time>2014-06-01T07:29:38Z</time>
      </trkpt>
      <trkpt lat="45.27" lon="5.7982">
        <ele>1135</ele>
        <time>2014-06-01T07:29:48Z</time>
      </trkpt>
      <trkpt lat="45.27013" lon="5.79837">
        <ele>1130</ele>
        <time>2014-06-01T07:29:59Z</time>
      </trkpt>
      <trkpt lat="45.27027" lon="5.79855">
        <ele>1134</ele>
        <time>2014-06-01T07:30:15Z</time>
      </trkpt>
      <trkpt lat="45.27044" lon="5.79862">
        <ele>1136</ele>
        <time>2014-06-01T07:30:27Z</time>
      </trkpt>
      <trkpt lat="45.27058" lon="5.7988">
        <ele>1137</ele>
        <time>2014-06-01T07:30:44Z</time>
      </trkpt>
      <trkpt lat="45.27072" lon="5.79896">
        <ele>1136</ele>
        <time>2014-06-01T07:30:56Z</time>
      </trkpt>
      <trkpt lat="45.27088" lon="5.7991">
        <ele>1141</ele>
        <time>2014-06-01T07:31:07Z</time>
      </trkpt>
      <trkpt lat="45.271" lon="5.79929">
        <ele>1140</ele>
        <time>2014-06-01T07:31:51Z</time>
      </trkpt>
      <trkpt lat="45.27112" lon="5.7995">
        <ele>1143</ele>
        <time>2014-06-01T07:32:01Z</time>
      </trkpt>
      <trkpt lat="45.27109" lon="5.79977">
        <ele>1142</ele>
        <time>2014-06-01T07:32:07Z</time>
      </trkpt>
      <trkpt lat="45.27108" lon="5.80006">
        <ele>1146</ele>
        <time>2014-06-01T07:32:14Z</time>
      </trkpt>
      <trkpt lat="45.27117" lon="5.80031">
        <ele>1148</ele>
        <time>2014-06-01T07:32:24Z</time>
      </trkpt>
      <trkpt lat="45.27126" lon="5.80054">
        <ele>1151</ele>
        <time>2014-06-01T07:32:37Z</time>
      </trkpt>
      <trkpt lat="45.27138" lon="5.80075">
        <ele>1152</ele>
        <time>2014-06-01T07:32:52Z</time>
      </trkpt>
      <trkpt lat="45.27146" lon="5.80099">
        <ele>1161</ele>
        <time>2014-06-01T07:33:03Z</time>
      </trkpt>
      <trkpt lat="45.27153" lon="5.80125">
        <ele>1164</ele>
        <time>2014-06-01T07:33:13Z</time>
      </trkpt>
      <trkpt lat="45.27151" lon="5.80152">
        <ele>1166</ele>
        <time>2014-06-01T07:33:24Z</time>
      </trkpt>
      <trkpt lat="45.27145" lon="5.80179">
        <ele>1177</ele>
        <time>2014-06-01T07:33:34Z</time>
      </trkpt>
      <trkpt lat="45.27133" lon="5.80157">
        <ele>1168</ele>
        <time>2014-06-01T07:33:51Z</time>
      </trkpt>
      <trkpt lat="45.2712" lon="5.80136">
        <ele>1167</ele>
        <time>2014-06-01T07:33:59Z</time>
      </trkpt>
      <trkpt lat="45.27106" lon="5.80116">
        <ele>1166</ele>
        <time>2014-06-01T07:34:08Z</time>
      </trkpt>
      <trkpt lat="45.27093" lon="5.80095">
        <ele>1163</ele>
        <time>2014-06-01T07:34:17Z</time>
      </trkpt>
      <trkpt lat="45.2708" lon="5.80076">
        <ele>1161</ele>
        <time>2014-06-01T07:34:25Z</time>
      </trkpt>
      <trkpt lat="45.27064" lon="5.80061">
        <ele>1162</ele>
        <time>2014-06-01T07:34:36Z</time>
      </trkpt>
      <trkpt lat="45.27045" lon="5.80051">
        <ele>1163</ele>
        <time>2014-06-01T07:34:51Z</time>
      </trkpt>
      <trkpt lat="45.27027" lon="5.80041">
        <ele>1164</ele>
        <time>2014-06-01T07:35:00Z</time>
      </trkpt>
      <trkpt lat="45.2701" lon="5.8003">
        <ele>1164</ele>
        <time>2014-06-01T07:35:09Z</time>
      </trkpt>
      <trkpt lat="45.26994" lon="5.80017">
        <ele>1171</ele>
        <time>2014-06-01T07:35:21Z</time>
      </trkpt>
      <trkpt lat="45.26976" lon="5.80006">
        <ele>1172</ele>
        <time>2014-06-01T07:35:32Z</time>
      </trkpt>
      <trkpt lat="45.26957" lon="5.8">
        <ele>1175</ele>
        <time>2014-06-01T07:35:41Z</time>
      </trkpt>
      <trkpt lat="45.26938" lon="5.79998">
        <ele>1163</ele>
        <time>2014-06-01T07:35:51Z</time>
      </trkpt>
      <trkpt lat="45.26921" lon="5.80005">
        <ele>1176</ele>
        <time>2014-06-01T07:36:00Z</time>
      </trkpt>
      <trkpt lat="45.26908" lon="5.79989">
        <ele>1172</ele>
        <time>2014-06-01T07:36:12Z</time>
      </trkpt>
      <trkpt lat="45.26891" lon="5.79972">
        <ele>1170</ele>
        <time>2014-06-01T07:36:18Z</time>
      </trkpt>
      <trkpt lat="45.26873" lon="5.79951">
        <ele>1169</ele>
        <time>2014-06-01T07:36:22Z</time>
      </trkpt>
      <trkpt lat="45.26854" lon="5.79948">
        <ele>1171</ele>
        <time>2014-06-01T07:36:27Z</time>
      </trkpt>
      <trkpt lat="45.26864" lon="5.7997">
        <ele>1172</ele>
        <time>2014-06-01T07:36:39Z</time>
      </trkpt>
      <trkpt lat="45.26878" lon="5.79987">
        <ele>1172</ele>
        <time>2014-06-01T07:36:50Z</time>
      </trkpt>
      <trkpt lat="45.26896" lon="5.79999">
        <ele>1172</ele>
        <time>2014-06-01T07:36:58Z</time>
      </trkpt>
      <trkpt lat="45.2691" lon="5.80019">
        <ele>1183</ele>
        <time>2014-06-01T07:37:08Z</time>
      </trkpt>
      <trkpt lat="45.26916" lon="5.80044">
        <ele>1189</ele>
        <time>2014-06-01T07:37:19Z</time>
      </trkpt>
      <trkpt lat="45.26898" lon="5.80035">
        <ele>1187</ele>
        <time>2014-06-01T07:37:30Z</time>
      </trkpt>
      <trkpt lat="45.26882" lon="5.8002">
        <ele>1186</ele>
        <time>2014-06-01T07:37:40Z</time>
      </trkpt>
      <trkpt lat="45.26863" lon="5.80025">
        <ele>1188</ele>
        <time>2014-06-01T07:37:51Z</time>
      </trkpt>
      <trkpt lat="45.26852" lon="5.80045">
        <ele>1191</ele>
        <time>2014-06-01T07:38:02Z</time>
      </trkpt>
      <trkpt lat="45.26837" lon="5.80065">
        <ele>1195</ele>
        <time>2014-06-01T07:38:14Z</time>
      </trkpt>
      <trkpt lat="45.26827" lon="5.80087">
        <ele>1206</ele>
        <time>2014-06-01T07:38:28Z</time>
      </trkpt>
      <trkpt lat="45.26809" lon="5.80093">
        <ele>1211</ele>
        <time>2014-06-01T07:38:40Z</time>
      </trkpt>
      <trkpt lat="45.26791" lon="5.80087">
        <ele>1213</ele>
        <time>2014-06-01T07:38:58Z</time>
      </trkpt>
      <trkpt lat="45.26774" lon="5.80074">
        <ele>1200</ele>
        <time>2014-06-01T07:39:12Z</time>
      </trkpt>
      <trkpt lat="45.26755" lon="5.80063">
        <ele>1201</ele>
        <time>2014-06-01T07:39:24Z</time>
      </trkpt>
      <trkpt lat="45.26737" lon="5.80062">
        <ele>1206</ele>
        <time>2014-06-01T07:39:35Z</time>
      </trkpt>
      <trkpt lat="45.26718" lon="5.80061">
        <ele>1208</ele>
        <time>2014-06-01T07:39:52Z</time>
      </trkpt>
      <trkpt lat="45.26701" lon="5.80055">
        <ele>1209</ele>
        <time>2014-06-01T07:40:05Z</time>
      </trkpt>
      <trkpt lat="45.26682" lon="5.80052">
        <ele>1211</ele>
        <time>2014-06-01T07:40:19Z</time>
      </trkpt>
      <trkpt lat="45.26664" lon="5.80045">
        <ele>1224</ele>
        <time>2014-06-01T07:40:36Z</time>
      </trkpt>
      <trkpt lat="45.26646" lon="5.80038">
        <ele>1225</ele>
        <time>2014-06-01T07:40:47Z</time>
      </trkpt>
      <trkpt lat="45.26629" lon="5.8003">
        <ele>1226</ele>
        <time>2014-06-01T07:41:00Z</time>
      </trkpt>
      <trkpt lat="45.26612" lon="5.80018">
        <ele>1228</ele>
        <time>2014-06-01T07:41:14Z</time>
      </trkpt>
      <trkpt lat="45.26595" lon="5.80007">
        <ele>1229</ele>
        <time>2014-06-01T07:41:29Z</time>
      </trkpt>
      <trkpt lat="45.26579" lon="5.79993">
        <ele>1229</ele>
        <time>2014-06-01T07:41:41Z</time>
      </trkpt>
      <trkpt lat="45.26563" lon="5.79981">
        <ele>1229</ele>
        <time>2014-06-01T07:41:51Z</time>
      </trkpt>
      <trkpt lat="45.26546" lon="5.79969">
        <ele>1229</ele>
        <time>2014-06-01T07:42:02Z</time>
      </trkpt>
      <trkpt lat="45.26527" lon="5.79958">
        <ele>1229</ele>
        <time>2014-06-01T07:42:12Z</time>
      </trkpt>
      <trkpt lat="45.2651" lon="5.79948">
        <ele>1228</ele>
        <time>2014-06-01T07:42:19Z</time>
      </trkpt>
      <trkpt lat="45.26494" lon="5.79933">
        <ele>1235</ele>
        <time>2014-06-01T07:42:29Z</time>
      </trkpt>
      <trkpt lat="45.26476" lon="5.79926">
        <ele>1239</ele>
        <time>2014-06-01T07:42:37Z</time>
      </trkpt>
      <trkpt lat="45.26457" lon="5.79921">
        <ele>1243</ele>
        <time>2014-06-01T07:42:45Z</time>
      </trkpt>
      <trkpt lat="45.26439" lon="5.79912">
        <ele>1231</ele>
        <time>2014-06-01T07:42:53Z</time>
      </trkpt>
      <trkpt lat="45.2642" lon="5.79904">
        <ele>1235</ele>
        <time>2014-06-01T07:43:03Z</time>
      </trkpt>
      <trkpt lat="45.26402" lon="5.79896">
        <ele>1246</ele>
        <time>2014-06-01T07:43:14Z</time>
      </trkpt>
      <trkpt lat="45.26385" lon="5.79882">
        <ele>1247</ele>
        <time>2014-06-01T07:43:22Z</time>
      </trkpt>
      <trkpt lat="45.26368" lon="5.79868">
        <ele>1249</ele>
        <time>2014-06-01T07:43:34Z</time>
      </trkpt>
      <trkpt lat="45.26354" lon="5.79851">
        <ele>1250</ele>
        <time>2014-06-01T07:43:45Z</time>
      </trkpt>
      <trkpt lat="45.26342" lon="5.79832">
        <ele>1249</ele>
        <time>2014-06-01T07:43:58Z</time>
      </trkpt>
      <trkpt lat="45.26336" lon="5.79807">
        <ele>1243</ele>
        <time>2014-06-01T07:44:09Z</time>
      </trkpt>
      <trkpt lat="45.26321" lon="5.7979">
        <ele>1251</ele>
        <time>2014-06-01T07:44:19Z</time>
      </trkpt>
      <trkpt lat="45.26301" lon="5.79791">
        <ele>1253</ele>
        <time>2014-06-01T07:44:28Z</time>
      </trkpt>
      <trkpt lat="45.26283" lon="5.79797">
        <ele>1255</ele>
        <time>2014-06-01T07:44:38Z</time>
      </trkpt>
      <trkpt lat="45.26264" lon="5.79794">
        <ele>1256</ele>
        <time>2014-06-01T07:44:44Z</time>
      </trkpt>
      <trkpt lat="45.26247" lon="5.79784">
        <ele>1270</ele>
        <time>2014-06-01T07:44:50Z</time>
      </trkpt>
      <trkpt lat="45.26231" lon="5.79771">
        <ele>1270</ele>
        <time>2014-06-01T07:44:57Z</time>
      </trkpt>
      <trkpt lat="45.26218" lon="5.79754">
        <ele>1271</ele>
        <time>2014-06-01T07:45:06Z</time>
      </trkpt>
      <trkpt lat="45.26199" lon="5.79751">
        <ele>1277</ele>
        <time>2014-06-01T07:45:17Z</time>
      </trkpt>
      <trkpt lat="45.26202" lon="5.79777">
        <ele>1278</ele>
        <time>2014-06-01T07:45:29Z</time>
      </trkpt>
      <trkpt lat="45.26213" lon="5.79799">
        <ele>1278</ele>
        <time>2014-06-01T07:45:42Z</time>
      </trkpt>
      <trkpt lat="45.26228" lon="5.79817">
        <ele>1276</ele>
        <time>2014-06-01T07:45:51Z</time>
      </trkpt>
      <trkpt lat="45.26241" lon="5.79834">
        <ele>1279</ele>
        <time>2014-06-01T07:46:01Z</time>
      </trkpt>
      <trkpt lat="45.26256" lon="5.79853">
        <ele>1272</ele>
        <time>2014-06-01T07:46:13Z</time>
      </trkpt>
      <trkpt lat="45.26273" lon="5.79863">
        <ele>1273</ele>
        <time>2014-06-01T07:46:22Z</time>
      </trkpt>
      <trkpt lat="45.26289" lon="5.79876">
        <ele>1273</ele>
        <time>2014-06-01T07:46:31Z</time>
      </trkpt>
      <trkpt lat="45.26304" lon="5.79893">
        <ele>1273</ele>
        <time>2014-06-01T07:46:41Z</time>
      </trkpt>
      <trkpt lat="45.2632" lon="5.79909">
        <ele>1272</ele>
        <time>2014-06-01T07:46:51Z</time>
      </trkpt>
      <trkpt lat="45.26332" lon="5.79928">
        <ele>1280</ele>
        <time>2014-06-01T07:47:02Z</time>
      </trkpt>
      <trkpt lat="45.26345" lon="5.79949">
        <ele>1274</ele>
        <time>2014-06-01T07:47:15Z</time>
      </trkpt>
      <trkpt lat="45.26356" lon="5.79969">
        <ele>1277</ele>
        <time>2014-06-01T07:47:26Z</time>
      </trkpt>
      <trkpt lat="45.26371" lon="5.79987">
        <ele>1277</ele>
        <time>2014-06-01T07:47:40Z</time>
      </trkpt>
      <trkpt lat="45.26388" lon="5.79998">
        <ele>1275</ele>
        <time>2014-06-01T07:47:51Z</time>
      </trkpt>
      <trkpt lat="45.26401" lon="5.80016">
        <ele>1291</ele>
        <time>2014-06-01T07:48:01Z</time>
      </trkpt>
      <trkpt lat="45.26418" lon="5.80028">
        <ele>1280</ele>
        <time>2014-06-01T07:48:10Z</time>
      </trkpt>
      <trkpt lat="45.2643" lon="5.80048">
        <ele>1284</ele>
        <time>2014-06-01T07:48:21Z</time>
      </trkpt>
      <trkpt lat="45.26444" lon="5.80068">
        <ele>1286</ele>
        <time>2014-06-01T07:48:32Z</time>
      </trkpt>
      <trkpt lat="45.26459" lon="5.80082">
        <ele>1284</ele>
        <time>2014-06-01T07:48:45Z</time>
      </trkpt>
      <trkpt lat="45.26475" lon="5.80096">
        <ele>1299</ele>
        <time>2014-06-01T07:48:54Z</time>
      </trkpt>
      <trkpt lat="45.26492" lon="5.80109">
        <ele>1299</ele>
        <time>2014-06-01T07:49:04Z</time>
      </trkpt>
      <trkpt lat="45.26507" lon="5.80126">
        <ele>1287</ele>
        <time>2014-06-01T07:49:14Z</time>
      </trkpt>
      <trkpt lat="45.26518" lon="5.80146">
        <ele>1292</ele>
        <time>2014-06-01T07:49:24Z</time>
      </trkpt>
      <trkpt lat="45.26533" lon="5.80161">
        <ele>1291</ele>
        <time>2014-06-01T07:49:32Z</time>
      </trkpt>
      <trkpt lat="45.26545" lon="5.8018">
        <ele>1308</ele>
        <time>2014-06-01T07:49:42Z</time>
      </trkpt>
      <trkpt lat="45.26559" lon="5.802">
        <ele>1309</ele>
        <time>2014-06-01T07:49:54Z</time>
      </trkpt>
      <trkpt lat="45.26573" lon="5.80219">
        <ele>1311</ele>
        <time>2014-06-01T07:50:06Z</time>
      </trkpt>
      <trkpt lat="45.26591" lon="5.80229">
        <ele>1297</ele>
        <time>2014-06-01T07:50:17Z</time>
      </trkpt>
      <trkpt lat="45.26605" lon="5.80249">
        <ele>1298</ele>
        <time>2014-06-01T07:50:30Z</time>
      </trkpt>
      <trkpt lat="45.26618" lon="5.80268">
        <ele>1313</ele>
        <time>2014-06-01T07:50:41Z</time>
      </trkpt>
      <trkpt lat="45.26632" lon="5.80284">
        <ele>1313</ele>
        <time>2014-06-01T07:50:51Z</time>
      </trkpt>
      <trkpt lat="45.26646" lon="5.80303">
        <ele>1315</ele>
        <time>2014-06-01T07:51:02Z</time>
      </trkpt>
      <trkpt lat="45.2666" lon="5.80322">
        <ele>1316</ele>
        <time>2014-06-01T07:51:15Z</time>
      </trkpt>
      <trkpt lat="45.26676" lon="5.80338">
        <ele>1318</ele>
        <time>2014-06-01T07:51:26Z</time>
      </trkpt>
      <trkpt lat="45.2669" lon="5.80355">
        <ele>1319</ele>
        <time>2014-06-01T07:51:36Z</time>
      </trkpt>
      <trkpt lat="45.26706" lon="5.80371">
        <ele>1319</ele>
        <time>2014-06-01T07:51:47Z</time>
      </trkpt>
      <trkpt lat="45.2672" lon="5.80387">
        <ele>1320</ele>
        <time>2014-06-01T07:51:57Z</time>
      </trkpt>
      <trkpt lat="45.26734" lon="5.80406">
        <ele>1320</ele>
        <time>2014-06-01T07:52:08Z</time>
      </trkpt>
      <trkpt lat="45.26748" lon="5.80424">
        <ele>1325</ele>
        <time>2014-06-01T07:52:19Z</time>
      </trkpt>
      <trkpt lat="45.26759" lon="5.80446">
        <ele>1324</ele>
        <time>2014-06-01T07:52:30Z</time>
      </trkpt>
      <trkpt lat="45.26772" lon="5.80465">
        <ele>1327</ele>
        <time>2014-06-01T07:52:42Z</time>
      </trkpt>
      <trkpt lat="45.26787" lon="5.8048">
        <ele>1327</ele>
        <time>2014-06-01T07:52:52Z</time>
      </trkpt>
      <trkpt lat="45.268" lon="5.80498">
        <ele>1326</ele>
        <time>2014-06-01T07:53:02Z</time>
      </trkpt>
      <trkpt lat="45.26814" lon="5.80517">
        <ele>1342</ele>
        <time>2014-06-01T07:53:15Z</time>
      </trkpt>
      <trkpt lat="45.26826" lon="5.80536">
        <ele>1345</ele>
        <time>2014-06-01T07:53:25Z</time>
      </trkpt>
      <trkpt lat="45.26842" lon="5.80551">
        <ele>1335</ele>
        <time>2014-06-01T07:53:36Z</time>
      </trkpt>
      <trkpt lat="45.26857" lon="5.80567">
        <ele>1336</ele>
        <time>2014-06-01T07:53:48Z</time>
      </trkpt>
      <trkpt lat="45.26873" lon="5.80581">
        <ele>1334</ele>
        <time>2014-06-01T07:54:00Z</time>
      </trkpt>
      <trkpt lat="45.26888" lon="5.80596">
        <ele>1346</ele>
        <time>2014-06-01T07:54:12Z</time>
      </trkpt>
      <trkpt lat="45.26904" lon="5.80612">
        <ele>1346</ele>
        <time>2014-06-01T07:54:55Z</time>
      </trkpt>
      <trkpt lat="45.26917" lon="5.80631">
        <ele>1333</ele>
        <time>2014-06-01T07:55:11Z</time>
      </trkpt>
      <trkpt lat="45.26928" lon="5.80653">
        <ele>1338</ele>
        <time>2014-06-01T07:55:24Z</time>
      </trkpt>
      <trkpt lat="45.2694" lon="5.80673">
        <ele>1349</ele>
        <time>2014-06-01T07:55:35Z</time>
      </trkpt>
      <trkpt lat="45.26949" lon="5.80699">
        <ele>1351</ele>
        <time>2014-06-01T07:55:45Z</time>
      </trkpt>
      <trkpt lat="45.26959" lon="5.80723">
        <ele>1353</ele>
        <time>2014-06-01T07:55:58Z</time>
      </trkpt>
      <trkpt lat="45.26974" lon="5.8074">
        <ele>1352</ele>
        <time>2014-06-01T07:56:08Z</time>
      </trkpt>
      <trkpt lat="45.26989" lon="5.80758">
        <ele>1362</ele>
        <time>2014-06-01T07:56:19Z</time>
      </trkpt>
      <trkpt lat="45.27" lon="5.80777">
        <ele>1358</ele>
        <time>2014-06-01T07:56:29Z</time>
      </trkpt>
      <trkpt lat="45.27013" lon="5.80796">
        <ele>1362</ele>
        <time>2014-06-01T07:56:40Z</time>
      </trkpt>
      <trkpt lat="45.27027" lon="5.80814">
        <ele>1365</ele>
        <time>2014-06-01T07:56:49Z</time>
      </trkpt>
      <trkpt lat="45.27042" lon="5.80828">
        <ele>1364</ele>
        <time>2014-06-01T07:56:56Z</time>
      </trkpt>
      <trkpt lat="45.27059" lon="5.80844">
        <ele>1379</ele>
        <time>2014-06-01T07:57:07Z</time>
      </trkpt>
      <trkpt lat="45.27074" lon="5.8086">
        <ele>1379</ele>
        <time>2014-06-01T07:57:17Z</time>
      </trkpt>
      <trkpt lat="45.27088" lon="5.80877">
        <ele>1373</ele>
        <time>2014-06-01T07:57:27Z</time>
      </trkpt>
      <trkpt lat="45.27105" lon="5.80891">
        <ele>1374</ele>
        <time>2014-06-01T07:57:40Z</time>
      </trkpt>
      <trkpt lat="45.27122" lon="5.809">
        <ele>1373</ele>
        <time>2014-06-01T07:57:49Z</time>
      </trkpt>
      <trkpt lat="45.2714" lon="5.80913">
        <ele>1373</ele>
        <time>2014-06-01T07:57:59Z</time>
      </trkpt>
      <trkpt lat="45.27159" lon="5.8092">
        <ele>1381</ele>
        <time>2014-06-01T07:58:08Z</time>
      </trkpt>
      <trkpt lat="45.27179" lon="5.80926">
        <ele>1379</ele>
        <time>2014-06-01T07:58:17Z</time>
      </trkpt>
      <trkpt lat="45.27197" lon="5.80922">
        <ele>1380</ele>
        <time>2014-06-01T07:59:17Z</time>
      </trkpt>
      <trkpt lat="45.27216" lon="5.80919">
        <ele>1379</ele>
        <time>2014-06-01T07:59:29Z</time>
      </trkpt>
      <trkpt lat="45.27236" lon="5.80918">
        <ele>1375</ele>
        <time>2014-06-01T07:59:39Z</time>
      </trkpt>
      <trkpt lat="45.27255" lon="5.80927">
        <ele>1370</ele>
        <time>2014-06-01T07:59:45Z</time>
      </trkpt>
      <trkpt lat="45.27273" lon="5.80944">
        <ele>1371</ele>
        <time>2014-06-01T07:59:50Z</time>
      </trkpt>
      <trkpt lat="45.27288" lon="5.80964">
        <ele>1372</ele>
        <time>2014-06-01T07:59:54Z</time>
      </trkpt>
      <trkpt lat="45.27307" lon="5.80981">
        <ele>1372</ele>
        <time>2014-06-01T07:59:59Z</time>
      </trkpt>
      <trkpt lat="45.27324" lon="5.80997">
        <ele>1371</ele>
        <time>2014-06-01T08:00:05Z</time>
      </trkpt>
      <trkpt lat="45.27345" lon="5.80989">
        <ele>1367</ele>
        <time>2014-06-01T08:00:10Z</time>
      </trkpt>
      <trkpt lat="45.2736" lon="5.80973">
        <ele>1365</ele>
        <time>2014-06-01T08:00:14Z</time>
      </trkpt>
      <trkpt lat="45.27367" lon="5.80948">
        <ele>1362</ele>
        <time>2014-06-01T08:00:21Z</time>
      </trkpt>
      <trkpt lat="45.27384" lon="5.80934">
        <ele>1361</ele>
        <time>2014-06-01T08:00:30Z</time>
      </trkpt>
      <trkpt lat="45.27401" lon="5.80942">
        <ele>1361</ele>
        <time>2014-06-01T08:00:38Z</time>
      </trkpt>
      <trkpt lat="45.27417" lon="5.80958">
        <ele>1363</ele>
        <time>2014-06-01T08:00:45Z</time>
      </trkpt>
      <trkpt lat="45.27428" lon="5.80977">
        <ele>1360</ele>
        <time>2014-06-01T08:00:54Z</time>
      </trkpt>
      <trkpt lat="45.27437" lon="5.80999">
        <ele>1362</ele>
        <time>2014-06-01T08:01:02Z</time>
      </trkpt>
      <trkpt lat="45.27449" lon="5.81019">
        <ele>1369</ele>
        <time>2014-06-01T08:01:09Z</time>
      </trkpt>
      <trkpt lat="45.27459" lon="5.81044">
        <ele>1370</ele>
        <time>2014-06-01T08:01:17Z</time>
      </trkpt>
      <trkpt lat="45.27463" lon="5.8107">
        <ele>1370</ele>
        <time>2014-06-01T08:01:27Z</time>
      </trkpt>
      <trkpt lat="45.27467" lon="5.81096">
        <ele>1376</ele>
        <time>2014-06-01T08:01:36Z</time>
      </trkpt>
      <trkpt lat="45.27465" lon="5.81123">
        <ele>1378</ele>
        <time>2014-06-01T08:01:47Z</time>
      </trkpt>
      <trkpt lat="45.27462" lon="5.81149">
        <ele>1379</ele>
        <time>2014-06-01T08:01:54Z</time>
      </trkpt>
      <trkpt lat="45.2746" lon="5.81176">
        <ele>1385</ele>
        <time>2014-06-01T08:02:03Z</time>
      </trkpt>
      <trkpt lat="45.27449" lon="5.81201">
        <ele>1389</ele>
        <time>2014-06-01T08:02:12Z</time>
      </trkpt>
      <trkpt lat="45.27453" lon="5.81226">
        <ele>1389</ele>
        <time>2014-06-01T08:02:23Z</time>
      </trkpt>
      <trkpt lat="45.27467" lon="5.81246">
        <ele>1387</ele>
        <time>2014-06-01T08:02:32Z</time>
      </trkpt>
      <trkpt lat="45.27481" lon="5.81265">
        <ele>1393</ele>
        <time>2014-06-01T08:02:41Z</time>
      </trkpt>
      <trkpt lat="45.27493" lon="5.81287">
        <ele>1397</ele>
        <time>2014-06-01T08:02:49Z</time>
      </trkpt>
      <trkpt lat="45.27505" lon="5.81306">
        <ele>1387</ele>
        <time>2014-06-01T08:02:58Z</time>
      </trkpt>
      <trkpt lat="45.27519" lon="5.81327">
        <ele>1390</ele>
        <time>2014-06-01T08:03:07Z</time>
      </trkpt>
      <trkpt lat="45.27534" lon="5.81342">
        <ele>1400</ele>
        <time>2014-06-01T08:03:16Z</time>
      </trkpt>
      <trkpt lat="45.2755" lon="5.81356">
        <ele>1399</ele>
        <time>2014-06-01T08:03:25Z</time>
      </trkpt>
      <trkpt lat="45.27566" lon="5.8137">
        <ele>1399</ele>
        <time>2014-06-01T08:03:36Z</time>
      </trkpt>
      <trkpt lat="45.27582" lon="5.81386">
        <ele>1401</ele>
        <time>2014-06-01T08:03:43Z</time>
      </trkpt>
      <trkpt lat="45.27597" lon="5.81402">
        <ele>1401</ele>
        <time>2014-06-01T08:03:54Z</time>
      </trkpt>
      <trkpt lat="45.27615" lon="5.81411">
        <ele>1401</ele>
        <time>2014-06-01T08:04:04Z</time>
      </trkpt>
      <trkpt lat="45.27633" lon="5.81404">
        <ele>1401</ele>
        <time>2014-06-01T08:04:14Z</time>
      </trkpt>
      <trkpt lat="45.27649" lon="5.8139">
        <ele>1400</ele>
        <time>2014-06-01T08:04:22Z</time>
      </trkpt>
      <trkpt lat="45.27665" lon="5.81376">
        <ele>1398</ele>
        <time>2014-06-01T08:04:29Z</time>
      </trkpt>
      <trkpt lat="45.2768" lon="5.8136">
        <ele>1403</ele>
        <time>2014-06-01T08:04:39Z</time>
      </trkpt>
      <trkpt lat="45.27696" lon="5.81348">
        <ele>1403</ele>
        <time>2014-06-01T08:04:49Z</time>
      </trkpt>
      <trkpt lat="45.27702" lon="5.81323">
        <ele>1395</ele>
        <time>2014-06-01T08:04:57Z</time>
      </trkpt>
      <trkpt lat="45.27714" lon="5.81304">
        <ele>1397</ele>
        <time>2014-06-01T08:05:04Z</time>
      </trkpt>
      <trkpt lat="45.27723" lon="5.81279">
        <ele>1397</ele>
        <time>2014-06-01T08:05:12Z</time>
      </trkpt>
      <trkpt lat="45.27722" lon="5.81251">
        <ele>1398</ele>
        <time>2014-06-01T08:05:18Z</time>
      </trkpt>
      <trkpt lat="45.27721" lon="5.81225">
        <ele>1391</ele>
        <time>2014-06-01T08:05:24Z</time>
      </trkpt>
      <trkpt lat="45.27734" lon="5.81204">
        <ele>1391</ele>
        <time>2014-06-01T08:05:33Z</time>
      </trkpt>
      <trkpt lat="45.27748" lon="5.81183">
        <ele>1392</ele>
        <time>2014-06-01T08:05:41Z</time>
      </trkpt>
      <trkpt lat="45.27757" lon="5.8116">
        <ele>1399</ele>
        <time>2014-06-01T08:05:49Z</time>
      </trkpt>
      <trkpt lat="45.27766" lon="5.81138">
        <ele>1404</ele>
        <time>2014-06-01T08:05:57Z</time>
      </trkpt>
      <trkpt lat="45.27777" lon="5.81116">
        <ele>1404</ele>
        <time>2014-06-01T08:06:06Z</time>
      </trkpt>
      <trkpt lat="45.27787" lon="5.81091">
        <ele>1405</ele>
        <time>2014-06-01T08:06:14Z</time>
      </trkpt>
      <trkpt lat="45.27796" lon="5.81067">
        <ele>1402</ele>
        <time>2014-06-01T08:06:21Z</time>
      </trkpt>
      <trkpt lat="45.27805" lon="5.81043">
        <ele>1403</ele>
        <time>2014-06-01T08:06:30Z</time>
      </trkpt>
      <trkpt lat="45.27811" lon="5.81018">
        <ele>1405</ele>
        <time>2014-06-01T08:06:38Z</time>
      </trkpt>
      <trkpt lat="45.27815" lon="5.8099">
        <ele>1402</ele>
        <time>2014-06-01T08:06:47Z</time>
      </trkpt>
      <trkpt lat="45.27815" lon="5.80962">
        <ele>1398</ele>
        <time>2014-06-01T08:06:57Z</time>
      </trkpt>
      <trkpt lat="45.27818" lon="5.80936">
        <ele>1398</ele>
        <time>2014-06-01T08:07:04Z</time>
      </trkpt>
      <trkpt lat="45.27826" lon="5.80912">
        <ele>1398</ele>
        <time>2014-06-01T08:07:13Z</time>
      </trkpt>
      <trkpt lat="45.27842" lon="5.80898">
        <ele>1403</ele>
        <time>2014-06-01T08:07:23Z</time>
      </trkpt>
      <trkpt lat="45.2786" lon="5.80889">
        <ele>1403</ele>
        <time>2014-06-01T08:07:32Z</time>
      </trkpt>
      <trkpt lat="45.27878" lon="5.80887">
        <ele>1404</ele>
        <time>2014-06-01T08:07:39Z</time>
      </trkpt>
      <trkpt lat="45.279" lon="5.80886">
        <ele>1405</ele>
        <time>2014-06-01T08:07:49Z</time>
      </trkpt>
      <trkpt lat="45.2792" lon="5.80885">
        <ele>1409</ele>
        <time>2014-06-01T08:07:57Z</time>
      </trkpt>
      <trkpt lat="45.27941" lon="5.80885">
        <ele>1409</ele>
        <time>2014-06-01T08:08:03Z</time>
      </trkpt>
      <trkpt lat="45.27963" lon="5.80886">
        <ele>1409</ele>
        <time>2014-06-01T08:08:10Z</time>
      </trkpt>
      <trkpt lat="45.27982" lon="5.80884">
        <ele>1410</ele>
        <time>2014-06-01T08:08:16Z</time>
      </trkpt>
      <trkpt lat="45.28001" lon="5.8088">
        <ele>1411</ele>
        <time>2014-06-01T08:08:22Z</time>
      </trkpt>
      <trkpt lat="45.28017" lon="5.80866">
        <ele>1410</ele>
        <time>2014-06-01T08:08:33Z</time>
      </trkpt>
      <trkpt lat="45.28031" lon="5.80842">
        <ele>1410</ele>
        <time>2014-06-01T08:08:42Z</time>
      </trkpt>
      <trkpt lat="45.28044" lon="5.80822">
        <ele>1404</ele>
        <time>2014-06-01T08:08:50Z</time>
      </trkpt>
      <trkpt lat="45.28058" lon="5.8084">
        <ele>1409</ele>
        <time>2014-06-01T08:09:17Z</time>
      </trkpt>
      <trkpt lat="45.28076" lon="5.80845">
        <ele>1409</ele>
        <time>2014-06-01T08:09:31Z</time>
      </trkpt>
      <trkpt lat="45.28093" lon="5.80857">
        <ele>1411</ele>
        <time>2014-06-01T08:09:48Z</time>
      </trkpt>
      <trkpt lat="45.28107" lon="5.80874">
        <ele>1413</ele>
        <time>2014-06-01T08:10:07Z</time>
      </trkpt>
      <trkpt lat="45.28121" lon="5.8089">
        <ele>1415</ele>
        <time>2014-06-01T08:10:27Z</time>
      </trkpt>
      <trkpt lat="45.28135" lon="5.80907">
        <ele>1416</ele>
        <time>2014-06-01T08:10:49Z</time>
      </trkpt>
      <trkpt lat="45.28146" lon="5.80928">
        <ele>1423</ele>
        <time>2014-06-01T08:11:11Z</time>
      </trkpt>
      <trkpt lat="45.28154" lon="5.80952">
        <ele>1424</ele>
        <time>2014-06-01T08:11:32Z</time>
      </trkpt>
      <trkpt lat="45.28156" lon="5.80978">
        <ele>1426</ele>
        <time>2014-06-01T08:11:58Z</time>
      </trkpt>
      <trkpt lat="45.28161" lon="5.81004">
        <ele>1430</ele>
        <time>2014-06-01T08:12:19Z</time>
      </trkpt>
      <trkpt lat="45.28171" lon="5.81026">
        <ele>1429</ele>
        <time>2014-06-01T08:12:40Z</time>
      </trkpt>
      <trkpt lat="45.28187" lon="5.81044">
        <ele>1429</ele>
        <time>2014-06-01T08:22:06Z</time>
      </trkpt>
      <trkpt lat="45.28206" lon="5.81059">
        <ele>1428</ele>
        <time>2014-06-01T08:22:11Z</time>
      </trkpt>
      <trkpt lat="45.28223" lon="5.81073">
        <ele>1427</ele>
        <time>2014-06-01T08:22:15Z</time>
      </trkpt>
      <trkpt lat="45.28244" lon="5.81086">
        <ele>1425</ele>
        <time>2014-06-01T08:22:20Z</time>
      </trkpt>
      <trkpt lat="45.28267" lon="5.811">
        <ele>1423</ele>
        <time>2014-06-01T08:22:24Z</time>
      </trkpt>
      <trkpt lat="45.28287" lon="5.81113">
        <ele>1423</ele>
        <time>2014-06-01T08:22:27Z</time>
      </trkpt>
      <trkpt lat="45.28305" lon="5.81122">
        <ele>1423</ele>
        <time>2014-06-01T08:22:31Z</time>
      </trkpt>
      <trkpt lat="45.28324" lon="5.81126">
        <ele>1422</ele>
        <time>2014-06-01T08:22:35Z</time>
      </trkpt>
      <trkpt lat="45.28343" lon="5.81127">
        <ele>1416</ele>
        <time>2014-06-01T08:22:39Z</time>
      </trkpt>
      <trkpt lat="45.28362" lon="5.81128">
        <ele>1415</ele>
        <time>2014-06-01T08:22:44Z</time>
      </trkpt>
      <trkpt lat="45.28381" lon="5.81127">
        <ele>1414</ele>
        <time>2014-06-01T08:22:48Z</time>
      </trkpt>
      <trkpt lat="45.28399" lon="5.81134">
        <ele>1414</ele>
        <time>2014-06-01T08:22:55Z</time>
      </trkpt>
      <trkpt lat="45.28415" lon="5.81147">
        <ele>1414</ele>
        <time>2014-06-01T08:24:50Z</time>
      </trkpt>
      <trkpt lat="45.28427" lon="5.81167">
        <ele>1411</ele>
        <time>2014-06-01T08:24:54Z</time>
      </trkpt>
      <trkpt lat="45.28422" lon="5.81198">
        <ele>1408</ele>
        <time>2014-06-01T08:24:59Z</time>
      </trkpt>
      <trkpt lat="45.28412" lon="5.81222">
        <ele>1414</ele>
        <time>2014-06-01T08:25:02Z</time>
      </trkpt>
      <trkpt lat="45.28407" lon="5.81251">
        <ele>1410</ele>
        <time>2014-06-01T08:25:06Z</time>
      </trkpt>
      <trkpt lat="45.28403" lon="5.81277">
        <ele>1411</ele>
        <time>2014-06-01T08:25:10Z</time>
      </trkpt>
      <trkpt lat="45.28396" lon="5.81306">
        <ele>1410</ele>
        <time>2014-06-01T08:25:14Z</time>
      </trkpt>
      <trkpt lat="45.28387" lon="5.81329">
        <ele>1410</ele>
        <time>2014-06-01T08:25:18Z</time>
      </trkpt>
      <trkpt lat="45.28378" lon="5.81354">
        <ele>1404</ele>
        <time>2014-06-01T08:25:21Z</time>
      </trkpt>
      <trkpt lat="45.28366" lon="5.81384">
        <ele>1403</ele>
        <time>2014-06-01T08:25:24Z</time>
      </trkpt>
      <trkpt lat="45.28349" lon="5.81411">
        <ele>1404</ele>
        <time>2014-06-01T08:25:27Z</time>
      </trkpt>
      <trkpt lat="45.28335" lon="5.81433">
        <ele>1395</ele>
        <time>2014-06-01T08:25:29Z</time>
      </trkpt>
      <trkpt lat="45.28318" lon="5.81451">
        <ele>1404</ele>
        <time>2014-06-01T08:25:33Z</time>
      </trkpt>
      <trkpt lat="45.28307" lon="5.81472">
        <ele>1402</ele>
        <time>2014-06-01T08:25:38Z</time>
      </trkpt>
      <trkpt lat="45.28294" lon="5.81497">
        <ele>1401</ele>
        <time>2014-06-01T08:25:42Z</time>
      </trkpt>
      <trkpt lat="45.28294" lon="5.81525">
        <ele>1389</ele>
        <time>2014-06-01T08:25:46Z</time>
      </trkpt>
      <trkpt lat="45.28285" lon="5.81552">
        <ele>1389</ele>
        <time>2014-06-01T08:25:49Z</time>
      </trkpt>
      <trkpt lat="45.2827" lon="5.8157">
        <ele>1390</ele>
        <time>2014-06-01T08:25:52Z</time>
      </trkpt>
      <trkpt lat="45.28261" lon="5.81594">
        <ele>1390</ele>
        <time>2014-06-01T08:25:55Z</time>
      </trkpt>
      <trkpt lat="45.28256" lon="5.81619">
        <ele>1389</ele>
        <time>2014-06-01T08:25:58Z</time>
      </trkpt>
      <trkpt lat="45.28262" lon="5.81651">
        <ele>1391</ele>
        <time>2014-06-01T08:26:02Z</time>
      </trkpt>
      <trkpt lat="45.28276" lon="5.81672">
        <ele>1397</ele>
        <time>2014-06-01T08:26:06Z</time>
      </trkpt>
      <trkpt lat="45.28294" lon="5.81687">
        <ele>1395</ele>
        <time>2014-06-01T08:26:10Z</time>
      </trkpt>
      <trkpt lat="45.28311" lon="5.81697">
        <ele>1394</ele>
        <time>2014-06-01T08:26:13Z</time>
      </trkpt>
      <trkpt lat="45.28329" lon="5.81707">
        <ele>1395</ele>
        <time>2014-06-01T08:26:16Z</time>
      </trkpt>
      <trkpt lat="45.28348" lon="5.81718">
        <ele>1386</ele>
        <time>2014-06-01T08:26:19Z</time>
      </trkpt>
      <trkpt lat="45.28365" lon="5.81728">
        <ele>1385</ele>
        <time>2014-06-01T08:26:22Z</time>
      </trkpt>
      <trkpt lat="45.28385" lon="5.8174">
        <ele>1384</ele>
        <time>2014-06-01T08:26:26Z</time>
      </trkpt>
      <trkpt lat="45.28403" lon="5.81748">
        <ele>1383</ele>
        <time>2014-06-01T08:26:29Z</time>
      </trkpt>
      <trkpt lat="45.28421" lon="5.81762">
        <ele>1386</ele>
        <time>2014-06-01T08:26:33Z</time>
      </trkpt>
      <trkpt lat="45.28438" lon="5.81781">
        <ele>1388</ele>
        <time>2014-06-01T08:26:39Z</time>
      </trkpt>
      <trkpt lat="45.28456" lon="5.81799">
        <ele>1389</ele>
        <time>2014-06-01T08:26:46Z</time>
      </trkpt>
      <trkpt lat="45.28474" lon="5.81818">
        <ele>1391</ele>
        <time>2014-06-01T08:26:55Z</time>
      </trkpt>
      <trkpt lat="45.28492" lon="5.81829">
        <ele>1392</ele>
        <time>2014-06-01T08:27:04Z</time>
      </trkpt>
      <trkpt lat="45.28511" lon="5.8184">
        <ele>1396</ele>
        <time>2014-06-01T08:27:15Z</time>
      </trkpt>
      <trkpt lat="45.28539" lon="5.81839">
        <ele>1396</ele>
        <time>2014-06-01T08:27:26Z</time>
      </trkpt>
      <trkpt lat="45.28558" lon="5.81845">
        <ele>1393</ele>
        <time>2014-06-01T08:27:32Z</time>
      </trkpt>
      <trkpt lat="45.28576" lon="5.81858">
        <ele>1393</ele>
        <time>2014-06-01T08:27:39Z</time>
      </trkpt>
      <trkpt lat="45.28594" lon="5.81871">
        <ele>1388</ele>
        <time>2014-06-01T08:27:46Z</time>
      </trkpt>
      <trkpt lat="45.28614" lon="5.81883">
        <ele>1389</ele>
        <time>2014-06-01T08:27:54Z</time>
      </trkpt>
      <trkpt lat="45.28638" lon="5.81893">
        <ele>1388</ele>
        <time>2014-06-01T08:28:04Z</time>
      </trkpt>
      <trkpt lat="45.28658" lon="5.81904">
        <ele>1389</ele>
        <time>2014-06-01T08:28:10Z</time>
      </trkpt>
      <trkpt lat="45.28676" lon="5.81915">
        <ele>1386</ele>
        <time>2014-06-01T08:28:13Z</time>
      </trkpt>
      <trkpt lat="45.28694" lon="5.81933">
        <ele>1395</ele>
        <time>2014-06-01T08:28:16Z</time>
      </trkpt>
      <trkpt lat="45.28707" lon="5.81958">
        <ele>1398</ele>
        <time>2014-06-01T08:28:20Z</time>
      </trkpt>
      <trkpt lat="45.28727" lon="5.81969">
        <ele>1399</ele>
        <time>2014-06-01T08:28:27Z</time>
      </trkpt>
      <trkpt lat="45.28746" lon="5.81974">
        <ele>1400</ele>
        <time>2014-06-01T08:28:32Z</time>
      </trkpt>
      <trkpt lat="45.28764" lon="5.8197">
        <ele>1397</ele>
        <time>2014-06-01T08:28:39Z</time>
      </trkpt>
      <trkpt lat="45.28785" lon="5.81962">
        <ele>1396</ele>
        <time>2014-06-01T08:28:45Z</time>
      </trkpt>
      <trkpt lat="45.2881" lon="5.81948">
        <ele>1394</ele>
        <time>2014-06-01T08:28:56Z</time>
      </trkpt>
      <trkpt lat="45.28832" lon="5.81942">
        <ele>1392</ele>
        <time>2014-06-01T08:29:05Z</time>
      </trkpt>
      <trkpt lat="45.28852" lon="5.81948">
        <ele>1395</ele>
        <time>2014-06-01T08:29:11Z</time>
      </trkpt>
      <trkpt lat="45.28868" lon="5.81961">
        <ele>1397</ele>
        <time>2014-06-01T08:29:17Z</time>
      </trkpt>
      <trkpt lat="45.2889" lon="5.81974">
        <ele>1398</ele>
        <time>2014-06-01T08:29:24Z</time>
      </trkpt>
      <trkpt lat="45.28915" lon="5.81982">
        <ele>1400</ele>
        <time>2014-06-01T08:29:34Z</time>
      </trkpt>
      <trkpt lat="45.28933" lon="5.81989">
        <ele>1399</ele>
        <time>2014-06-01T08:29:39Z</time>
      </trkpt>
      <trkpt lat="45.28951" lon="5.82007">
        <ele>1410</ele>
        <time>2014-06-01T08:29:45Z</time>
      </trkpt>
      <trkpt lat="45.28961" lon="5.82045">
        <ele>1414</ele>
        <time>2014-06-01T08:29:52Z</time>
      </trkpt>
      <trkpt lat="45.28964" lon="5.82074">
        <ele>1417</ele>
        <time>2014-06-01T08:30:02Z</time>
      </trkpt>
      <trkpt lat="45.28988" lon="5.82082">
        <ele>1418</ele>
        <time>2014-06-01T08:30:12Z</time>
      </trkpt>
      <trkpt lat="45.29006" lon="5.8207">
        <ele>1417</ele>
        <time>2014-06-01T08:30:20Z</time>
      </trkpt>
      <trkpt lat="45.29026" lon="5.82054">
        <ele>1415</ele>
        <time>2014-06-01T08:30:29Z</time>
      </trkpt>
      <trkpt lat="45.29039" lon="5.82032">
        <ele>1412</ele>
        <time>2014-06-01T08:30:37Z</time>
      </trkpt>
      <trkpt lat="45.29056" lon="5.82008">
        <ele>1410</ele>
        <time>2014-06-01T08:30:47Z</time>
      </trkpt>
      <trkpt lat="45.29074" lon="5.82002">
        <ele>1408</ele>
        <time>2014-06-01T08:30:52Z</time>
      </trkpt>
      <trkpt lat="45.29095" lon="5.82017">
        <ele>1412</ele>
        <time>2014-06-01T08:30:58Z</time>
      </trkpt>
      <trkpt lat="45.29111" lon="5.82031">
        <ele>1416</ele>
        <time>2014-06-01T08:31:05Z</time>
      </trkpt>
      <trkpt lat="45.29132" lon="5.8203">
        <ele>1416</ele>
        <time>2014-06-01T08:31:15Z</time>
      </trkpt>
      <trkpt lat="45.29151" lon="5.82032">
        <ele>1415</ele>
        <time>2014-06-01T08:31:23Z</time>
      </trkpt>
      <trkpt lat="45.29173" lon="5.82032">
        <ele>1415</ele>
        <time>2014-06-01T08:31:34Z</time>
      </trkpt>
      <trkpt lat="45.29191" lon="5.82035">
        <ele>1417</ele>
        <time>2014-06-01T08:31:39Z</time>
      </trkpt>
      <trkpt lat="45.29209" lon="5.82041">
        <ele>1418</ele>
        <time>2014-06-01T08:31:45Z</time>
      </trkpt>
      <trkpt lat="45.29228" lon="5.82046">
        <ele>1419</ele>
        <time>2014-06-01T08:31:55Z</time>
      </trkpt>
      <trkpt lat="45.29247" lon="5.82048">
        <ele>1420</ele>
        <time>2014-06-01T08:32:01Z</time>
      </trkpt>
      <trkpt lat="45.29268" lon="5.82052">
        <ele>1419</ele>
        <time>2014-06-01T08:32:05Z</time>
      </trkpt>
      <trkpt lat="45.29286" lon="5.82057">
        <ele>1419</ele>
        <time>2014-06-01T08:32:10Z</time>
      </trkpt>
      <trkpt lat="45.29304" lon="5.82056">
        <ele>1419</ele>
        <time>2014-06-01T08:32:17Z</time>
      </trkpt>
      <trkpt lat="45.29324" lon="5.8205">
        <ele>1418</ele>
        <time>2014-06-01T08:32:24Z</time>
      </trkpt>
      <trkpt lat="45.29342" lon="5.82055">
        <ele>1417</ele>
        <time>2014-06-01T08:33:02Z</time>
      </trkpt>
      <trkpt lat="45.29361" lon="5.82061">
        <ele>1417</ele>
        <time>2014-06-01T08:33:06Z</time>
      </trkpt>
      <trkpt lat="45.29383" lon="5.82062">
        <ele>1416</ele>
        <time>2014-06-01T08:33:11Z</time>
      </trkpt>
      <trkpt lat="45.29402" lon="5.82058">
        <ele>1416</ele>
        <time>2014-06-01T08:33:18Z</time>
      </trkpt>
      <trkpt lat="45.29423" lon="5.82055">
        <ele>1413</ele>
        <time>2014-06-01T08:33:26Z</time>
      </trkpt>
      <trkpt lat="45.29443" lon="5.82063">
        <ele>1413</ele>
        <time>2014-06-01T08:33:34Z</time>
      </trkpt>
      <trkpt lat="45.29465" lon="5.82067">
        <ele>1413</ele>
        <time>2014-06-01T08:33:41Z</time>
      </trkpt>
      <trkpt lat="45.29484" lon="5.8207">
        <ele>1414</ele>
        <time>2014-06-01T08:33:46Z</time>
      </trkpt>
      <trkpt lat="45.29503" lon="5.82055">
        <ele>1410</ele>
        <time>2014-06-01T08:33:52Z</time>
      </trkpt>
      <trkpt lat="45.29522" lon="5.82054">
        <ele>1409</ele>
        <time>2014-06-01T08:33:55Z</time>
      </trkpt>
      <trkpt lat="45.29545" lon="5.82058">
        <ele>1409</ele>
        <time>2014-06-01T08:33:58Z</time>
      </trkpt>
      <trkpt lat="45.29563" lon="5.8206">
        <ele>1410</ele>
        <time>2014-06-01T08:34:00Z</time>
      </trkpt>
      <trkpt lat="45.29585" lon="5.82066">
        <ele>1411</ele>
        <time>2014-06-01T08:34:03Z</time>
      </trkpt>
      <trkpt lat="45.29609" lon="5.82069">
        <ele>1409</ele>
        <time>2014-06-01T08:34:06Z</time>
      </trkpt>
      <trkpt lat="45.29628" lon="5.82067">
        <ele>1407</ele>
        <time>2014-06-01T08:34:09Z</time>
      </trkpt>
      <trkpt lat="45.2965" lon="5.82079">
        <ele>1410</ele>
        <time>2014-06-01T08:34:12Z</time>
      </trkpt>
      <trkpt lat="45.2967" lon="5.82086">
        <ele>1416</ele>
        <time>2014-06-01T08:34:15Z</time>
      </trkpt>
      <trkpt lat="45.29688" lon="5.82083">
        <ele>1405</ele>
        <time>2014-06-01T08:34:19Z</time>
      </trkpt>
      <trkpt lat="45.29711" lon="5.82088">
        <ele>1421</ele>
        <time>2014-06-01T08:34:23Z</time>
      </trkpt>
      <trkpt lat="45.29734" lon="5.8209">
        <ele>1417</ele>
        <time>2014-06-01T08:34:26Z</time>
      </trkpt>
      <trkpt lat="45.29752" lon="5.82086">
        <ele>1408</ele>
        <time>2014-06-01T08:34:29Z</time>
      </trkpt>
      <trkpt lat="45.29773" lon="5.82091">
        <ele>1414</ele>
        <time>2014-06-01T08:34:32Z</time>
      </trkpt>
      <trkpt lat="45.29794" lon="5.82097">
        <ele>1414</ele>
        <time>2014-06-01T08:34:35Z</time>
      </trkpt>
      <trkpt lat="45.29816" lon="5.82096">
        <ele>1410</ele>
        <time>2014-06-01T08:34:38Z</time>
      </trkpt>
      <trkpt lat="45.29839" lon="5.82085">
        <ele>1401</ele>
        <time>2014-06-01T08:34:41Z</time>
      </trkpt>
      <trkpt lat="45.29856" lon="5.82075">
        <ele>1388</ele>
        <time>2014-06-01T08:34:43Z</time>
      </trkpt>
      <trkpt lat="45.29876" lon="5.82056">
        <ele>1383</ele>
        <time>2014-06-01T08:34:46Z</time>
      </trkpt>
      <trkpt lat="45.29892" lon="5.82046">
        <ele>1381</ele>
        <time>2014-06-01T08:34:48Z</time>
      </trkpt>
      <trkpt lat="45.29913" lon="5.82042">
        <ele>1380</ele>
        <time>2014-06-01T08:34:50Z</time>
      </trkpt>
      <trkpt lat="45.29931" lon="5.82037">
        <ele>1373</ele>
        <time>2014-06-01T08:34:52Z</time>
      </trkpt>
      <trkpt lat="45.2995" lon="5.82035">
        <ele>1371</ele>
        <time>2014-06-01T08:34:54Z</time>
      </trkpt>
      <trkpt lat="45.2997" lon="5.82036">
        <ele>1370</ele>
        <time>2014-06-01T08:34:56Z</time>
      </trkpt>
      <trkpt lat="45.29988" lon="5.82052">
        <ele>1371</ele>
        <time>2014-06-01T08:34:58Z</time>
      </trkpt>
      <trkpt lat="45.30004" lon="5.82072">
        <ele>1365</ele>
        <time>2014-06-01T08:35:00Z</time>
      </trkpt>
      <trkpt lat="45.30022" lon="5.82099">
        <ele>1369</ele>
        <time>2014-06-01T08:35:03Z</time>
      </trkpt>
      <trkpt lat="45.30036" lon="5.82129">
        <ele>1369</ele>
        <time>2014-06-01T08:35:06Z</time>
      </trkpt>
      <trkpt lat="45.3005" lon="5.82155">
        <ele>1368</ele>
        <time>2014-06-01T08:35:09Z</time>
      </trkpt>
      <trkpt lat="45.30068" lon="5.82172">
        <ele>1375</ele>
        <time>2014-06-01T08:35:12Z</time>
      </trkpt>
      <trkpt lat="45.30081" lon="5.82191">
        <ele>1381</ele>
        <time>2014-06-01T08:37:43Z</time>
      </trkpt>
      <trkpt lat="45.301" lon="5.82208">
        <ele>1360</ele>
        <time>2014-06-01T08:37:47Z</time>
      </trkpt>
      <trkpt lat="45.3012" lon="5.82224">
        <ele>1359</ele>
        <time>2014-06-01T08:37:50Z</time>
      </trkpt>
      <trkpt lat="45.30142" lon="5.82238">
        <ele>1356</ele>
        <time>2014-06-01T08:37:53Z</time>
      </trkpt>
      <trkpt lat="45.30168" lon="5.82247">
        <ele>1353</ele>
        <time>2014-06-01T08:37:56Z</time>
      </trkpt>
      <trkpt lat="45.30193" lon="5.8225">
        <ele>1342</ele>
        <time>2014-06-01T08:37:59Z</time>
      </trkpt>
      <trkpt lat="45.30215" lon="5.82247">
        <ele>1339</ele>
        <time>2014-06-01T08:38:02Z</time>
      </trkpt>
      <trkpt lat="45.30236" lon="5.8224">
        <ele>1339</ele>
        <time>2014-06-01T08:38:05Z</time>
      </trkpt>
      <trkpt lat="45.30256" lon="5.82225">
        <ele>1330</ele>
        <time>2014-06-01T08:38:08Z</time>
      </trkpt>
      <trkpt lat="45.30277" lon="5.82215">
        <ele>1325</ele>
        <time>2014-06-01T08:38:11Z</time>
      </trkpt>
      <trkpt lat="45.30297" lon="5.82215">
        <ele>1323</ele>
        <time>2014-06-01T08:38:14Z</time>
      </trkpt>
      <trkpt lat="45.30318" lon="5.82237">
        <ele>1326</ele>
        <time>2014-06-01T08:38:17Z</time>
      </trkpt>
      <trkpt lat="45.30334" lon="5.82266">
        <ele>1331</ele>
        <time>2014-06-01T08:38:20Z</time>
      </trkpt>
      <trkpt lat="45.30342" lon="5.82289">
        <ele>1335</ele>
        <time>2014-06-01T08:38:22Z</time>
      </trkpt>
      <trkpt lat="45.30356" lon="5.82309">
        <ele>1338</ele>
        <time>2014-06-01T08:38:24Z</time>
      </trkpt>
      <trkpt lat="45.30371" lon="5.82329">
        <ele>1336</ele>
        <time>2014-06-01T08:38:26Z</time>
      </trkpt>
      <trkpt lat="45.30388" lon="5.82348">
        <ele>1341</ele>
        <time>2014-06-01T08:38:28Z</time>
      </trkpt>
      <trkpt lat="45.30402" lon="5.82374">
        <ele>1340</ele>
        <time>2014-06-01T08:38:31Z</time>
      </trkpt>
      <trkpt lat="45.30409" lon="5.82405">
        <ele>1335</ele>
        <time>2014-06-01T08:38:34Z</time>
      </trkpt>
      <trkpt lat="45.30417" lon="5.82434">
        <ele>1320</ele>
        <time>2014-06-01T08:38:37Z</time>
      </trkpt>
      <trkpt lat="45.3043" lon="5.82465">
        <ele>1316</ele>
        <time>2014-06-01T08:38:40Z</time>
      </trkpt>
      <trkpt lat="45.30437" lon="5.82494">
        <ele>1318</ele>
        <time>2014-06-01T08:38:43Z</time>
      </trkpt>
      <trkpt lat="45.30433" lon="5.82524">
        <ele>1316</ele>
        <time>2014-06-01T08:38:46Z</time>
      </trkpt>
      <trkpt lat="45.3042" lon="5.82553">
        <ele>1315</ele>
        <time>2014-06-01T08:38:49Z</time>
      </trkpt>
      <trkpt lat="45.30412" lon="5.82586">
        <ele>1323</ele>
        <time>2014-06-01T08:38:52Z</time>
      </trkpt>
      <trkpt lat="45.30415" lon="5.82624">
        <ele>1327</ele>
        <time>2014-06-01T08:38:55Z</time>
      </trkpt>
      <trkpt lat="45.3042" lon="5.82657">
        <ele>1312</ele>
        <time>2014-06-01T08:38:58Z</time>
      </trkpt>
      <trkpt lat="45.30425" lon="5.82689">
        <ele>1314</ele>
        <time>2014-06-01T08:39:15Z</time>
      </trkpt>
      <trkpt lat="45.30425" lon="5.82723">
        <ele>1316</ele>
        <time>2014-06-01T08:41:09Z</time>
      </trkpt>
      <trkpt lat="45.30413" lon="5.82745">
        <ele>1319</ele>
        <time>2014-06-01T08:41:22Z</time>
      </trkpt>
      <trkpt lat="45.30399" lon="5.82776">
        <ele>1329</ele>
        <time>2014-06-01T08:41:47Z</time>
      </trkpt>
      <trkpt lat="45.30378" lon="5.82796">
        <ele>1334</ele>
        <time>2014-06-01T08:42:10Z</time>
      </trkpt>
      <trkpt lat="45.30357" lon="5.82823">
        <ele>1338</ele>
        <time>2014-06-01T08:42:27Z</time>
      </trkpt>
      <trkpt lat="45.30346" lon="5.82844">
        <ele>1343</ele>
        <time>2014-06-01T08:42:39Z</time>
      </trkpt>
      <trkpt lat="45.30343" lon="5.8287">
        <ele>1343</ele>
        <time>2014-06-01T08:42:50Z</time>
      </trkpt>
      <trkpt lat="45.30346" lon="5.82896">
        <ele>1345</ele>
        <time>2014-06-01T08:43:02Z</time>
      </trkpt>
      <trkpt lat="45.3036" lon="5.82915">
        <ele>1344</ele>
        <time>2014-06-01T08:43:13Z</time>
      </trkpt>
      <trkpt lat="45.30375" lon="5.82932">
        <ele>1348</ele>
        <time>2014-06-01T08:43:34Z</time>
      </trkpt>
      <trkpt lat="45.30394" lon="5.82927">
        <ele>1345</ele>
        <time>2014-06-01T08:43:50Z</time>
      </trkpt>
      <trkpt lat="45.30413" lon="5.82922">
        <ele>1340</ele>
        <time>2014-06-01T08:44:05Z</time>
      </trkpt>
      <trkpt lat="45.30428" lon="5.82907">
        <ele>1337</ele>
        <time>2014-06-01T08:44:18Z</time>
      </trkpt>
      <trkpt lat="45.30447" lon="5.82904">
        <ele>1338</ele>
        <time>2014-06-01T08:44:29Z</time>
      </trkpt>
      <trkpt lat="45.30464" lon="5.82916">
        <ele>1340</ele>
        <time>2014-06-01T08:44:37Z</time>
      </trkpt>
      <trkpt lat="45.30473" lon="5.82939">
        <ele>1348</ele>
        <time>2014-06-01T08:44:50Z</time>
      </trkpt>
      <trkpt lat="45.30463" lon="5.82961">
        <ele>1349</ele>
        <time>2014-06-01T08:45:03Z</time>
      </trkpt>
      <trkpt lat="45.30452" lon="5.82982">
        <ele>1349</ele>
        <time>2014-06-01T08:45:17Z</time>
      </trkpt>
      <trkpt lat="45.30446" lon="5.83006">
        <ele>1355</ele>
        <time>2014-06-01T08:45:28Z</time>
      </trkpt>
      <trkpt lat="45.3044" lon="5.83032">
        <ele>1356</ele>
        <time>2014-06-01T08:45:42Z</time>
      </trkpt>
      <trkpt lat="45.30437" lon="5.83057">
        <ele>1358</ele>
        <time>2014-06-01T08:45:55Z</time>
      </trkpt>
      <trkpt lat="45.3043" lon="5.83081">
        <ele>1358</ele>
        <time>2014-06-01T08:46:08Z</time>
      </trkpt>
      <trkpt lat="45.30424" lon="5.83107">
        <ele>1367</ele>
        <time>2014-06-01T08:46:24Z</time>
      </trkpt>
      <trkpt lat="45.30417" lon="5.83132">
        <ele>1370</ele>
        <time>2014-06-01T08:46:38Z</time>
      </trkpt>
      <trkpt lat="45.30411" lon="5.83157">
        <ele>1366</ele>
        <time>2014-06-01T08:46:54Z</time>
      </trkpt>
      <trkpt lat="45.30404" lon="5.83182">
        <ele>1372</ele>
        <time>2014-06-01T08:47:10Z</time>
      </trkpt>
      <trkpt lat="45.30399" lon="5.83207">
        <ele>1376</ele>
        <time>2014-06-01T08:47:24Z</time>
      </trkpt>
      <trkpt lat="45.30393" lon="5.83233">
        <ele>1379</ele>
        <time>2014-06-01T08:47:38Z</time>
      </trkpt>
      <trkpt lat="45.30391" lon="5.8326">
        <ele>1390</ele>
        <time>2014-06-01T08:47:51Z</time>
      </trkpt>
      <trkpt lat="45.30391" lon="5.83286">
        <ele>1393</ele>
        <time>2014-06-01T08:48:06Z</time>
      </trkpt>
      <trkpt lat="45.30383" lon="5.8331">
        <ele>1395</ele>
        <time>2014-06-01T08:48:18Z</time>
      </trkpt>
      <trkpt lat="45.30365" lon="5.8332">
        <ele>1393</ele>
        <time>2014-06-01T08:48:30Z</time>
      </trkpt>
      <trkpt lat="45.3035" lon="5.83335">
        <ele>1401</ele>
        <time>2014-06-01T08:48:42Z</time>
      </trkpt>
      <trkpt lat="45.30332" lon="5.83341">
        <ele>1390</ele>
        <time>2014-06-01T08:48:53Z</time>
      </trkpt>
      <trkpt lat="45.30314" lon="5.8335">
        <ele>1394</ele>
        <time>2014-06-01T08:49:02Z</time>
      </trkpt>
      <trkpt lat="45.303" lon="5.83365">
        <ele>1396</ele>
        <time>2014-06-01T08:49:12Z</time>
      </trkpt>
      <trkpt lat="45.30284" lon="5.83382">
        <ele>1397</ele>
        <time>2014-06-01T08:49:26Z</time>
      </trkpt>
      <trkpt lat="45.30267" lon="5.83397">
        <ele>1397</ele>
        <time>2014-06-01T08:49:37Z</time>
      </trkpt>
      <trkpt lat="45.30251" lon="5.83411">
        <ele>1397</ele>
        <time>2014-06-01T08:49:48Z</time>
      </trkpt>
      <trkpt lat="45.30235" lon="5.83423">
        <ele>1404</ele>
        <time>2014-06-01T08:50:00Z</time>
      </trkpt>
      <trkpt lat="45.30218" lon="5.83434">
        <ele>1408</ele>
        <time>2014-06-01T08:50:12Z</time>
      </trkpt>
      <trkpt lat="45.302" lon="5.83434">
        <ele>1409</ele>
        <time>2014-06-01T08:50:22Z</time>
      </trkpt>
      <trkpt lat="45.30185" lon="5.8342">
        <ele>1408</ele>
        <time>2014-06-01T08:50:31Z</time>
      </trkpt>
      <trkpt lat="45.30172" lon="5.83402">
        <ele>1402</ele>
        <time>2014-06-01T08:50:43Z</time>
      </trkpt>
      <trkpt lat="45.30168" lon="5.8343">
        <ele>1408</ele>
        <time>2014-06-01T08:50:56Z</time>
      </trkpt>
      <trkpt lat="45.30171" lon="5.83456">
        <ele>1413</ele>
        <time>2014-06-01T08:51:05Z</time>
      </trkpt>
      <trkpt lat="45.30176" lon="5.83482">
        <ele>1419</ele>
        <time>2014-06-01T08:51:15Z</time>
      </trkpt>
      <trkpt lat="45.30185" lon="5.83507">
        <ele>1430</ele>
        <time>2014-06-01T08:51:27Z</time>
      </trkpt>
      <trkpt lat="45.30199" lon="5.83525">
        <ele>1432</ele>
        <time>2014-06-01T08:51:37Z</time>
      </trkpt>
      <trkpt lat="45.30215" lon="5.83539">
        <ele>1432</ele>
        <time>2014-06-01T08:51:48Z</time>
      </trkpt>
      <trkpt lat="45.30233" lon="5.83545">
        <ele>1431</ele>
        <time>2014-06-01T08:51:59Z</time>
      </trkpt>
      <trkpt lat="45.30251" lon="5.83537">
        <ele>1431</ele>
        <time>2014-06-01T08:52:10Z</time>
      </trkpt>
      <trkpt lat="45.30271" lon="5.8353">
        <ele>1432</ele>
        <time>2014-06-01T08:52:18Z</time>
      </trkpt>
      <trkpt lat="45.30289" lon="5.83525">
        <ele>1433</ele>
        <time>2014-06-01T08:52:25Z</time>
      </trkpt>
      <trkpt lat="45.30303" lon="5.83506">
        <ele>1433</ele>
        <time>2014-06-01T08:52:39Z</time>
      </trkpt>
      <trkpt lat="45.30319" lon="5.83492">
        <ele>1423</ele>
        <time>2014-06-01T08:52:45Z</time>
      </trkpt>
      <trkpt lat="45.30337" lon="5.83483">
        <ele>1435</ele>
        <time>2014-06-01T08:52:54Z</time>
      </trkpt>
      <trkpt lat="45.30353" lon="5.83471">
        <ele>1437</ele>
        <time>2014-06-01T08:53:05Z</time>
      </trkpt>
      <trkpt lat="45.30372" lon="5.8347">
        <ele>1441</ele>
        <time>2014-06-01T08:53:16Z</time>
      </trkpt>
      <trkpt lat="45.30363" lon="5.83493">
        <ele>1441</ele>
        <time>2014-06-01T08:53:24Z</time>
      </trkpt>
      <trkpt lat="45.30351" lon="5.83514">
        <ele>1453</ele>
        <time>2014-06-01T08:53:32Z</time>
      </trkpt>
      <trkpt lat="45.30337" lon="5.83534">
        <ele>1457</ele>
        <time>2014-06-01T08:53:41Z</time>
      </trkpt>
      <trkpt lat="45.30321" lon="5.8355">
        <ele>1441</ele>
        <time>2014-06-01T08:53:48Z</time>
      </trkpt>
      <trkpt lat="45.30308" lon="5.83569">
        <ele>1443</ele>
        <time>2014-06-01T08:53:57Z</time>
      </trkpt>
      <trkpt lat="45.30297" lon="5.83591">
        <ele>1451</ele>
        <time>2014-06-01T08:54:07Z</time>
      </trkpt>
      <trkpt lat="45.30288" lon="5.83614">
        <ele>1451</ele>
        <time>2014-06-01T08:54:15Z</time>
      </trkpt>
      <trkpt lat="45.30283" lon="5.83641">
        <ele>1452</ele>
        <time>2014-06-01T08:54:24Z</time>
      </trkpt>
      <trkpt lat="45.30268" lon="5.83667">
        <ele>1450</ele>
        <time>2014-06-01T08:54:36Z</time>
      </trkpt>
      <trkpt lat="45.30253" lon="5.83685">
        <ele>1446</ele>
        <time>2014-06-01T08:54:42Z</time>
      </trkpt>
      <trkpt lat="45.30262" lon="5.83708">
        <ele>1444</ele>
        <time>2014-06-01T08:54:58Z</time>
      </trkpt>
      <trkpt lat="45.30283" lon="5.83721">
        <ele>1444</ele>
        <time>2014-06-01T08:55:06Z</time>
      </trkpt>
      <trkpt lat="45.30297" lon="5.83739">
        <ele>1444</ele>
        <time>2014-06-01T08:55:10Z</time>
      </trkpt>
      <trkpt lat="45.30316" lon="5.83755">
        <ele>1432</ele>
        <time>2014-06-01T08:55:14Z</time>
      </trkpt>
      <trkpt lat="45.30338" lon="5.83762">
        <ele>1439</ele>
        <time>2014-06-01T08:55:18Z</time>
      </trkpt>
      <trkpt lat="45.30359" lon="5.83766">
        <ele>1438</ele>
        <time>2014-06-01T08:55:22Z</time>
      </trkpt>
      <trkpt lat="45.30376" lon="5.83773">
        <ele>1438</ele>
        <time>2014-06-01T08:55:27Z</time>
      </trkpt>
      <trkpt lat="45.30365" lon="5.83793">
        <ele>1433</ele>
        <time>2014-06-01T08:56:23Z</time>
      </trkpt>
      <trkpt lat="45.30381" lon="5.83781">
        <ele>1437</ele>
        <time>2014-06-01T08:58:56Z</time>
      </trkpt>
      <trkpt lat="45.30396" lon="5.83796">
        <ele>1435</ele>
        <time>2014-06-01T08:59:00Z</time>
      </trkpt>
      <trkpt lat="45.3041" lon="5.83816">
        <ele>1430</ele>
        <time>2014-06-01T08:59:04Z</time>
      </trkpt>
      <trkpt lat="45.30422" lon="5.83836">
        <ele>1423</ele>
        <time>2014-06-01T08:59:08Z</time>
      </trkpt>
      <trkpt lat="45.30436" lon="5.83862">
        <ele>1423</ele>
        <time>2014-06-01T08:59:11Z</time>
      </trkpt>
      <trkpt lat="45.30453" lon="5.83889">
        <ele>1422</ele>
        <time>2014-06-01T08:59:14Z</time>
      </trkpt>
      <trkpt lat="45.30472" lon="5.83908">
        <ele>1423</ele>
        <time>2014-06-01T08:59:18Z</time>
      </trkpt>
      <trkpt lat="45.3049" lon="5.83924">
        <ele>1417</ele>
        <time>2014-06-01T08:59:21Z</time>
      </trkpt>
      <trkpt lat="45.3051" lon="5.83945">
        <ele>1425</ele>
        <time>2014-06-01T08:59:24Z</time>
      </trkpt>
      <trkpt lat="45.30523" lon="5.83977">
        <ele>1421</ele>
        <time>2014-06-01T08:59:27Z</time>
      </trkpt>
      <trkpt lat="45.30535" lon="5.84011">
        <ele>1413</ele>
        <time>2014-06-01T08:59:30Z</time>
      </trkpt>
      <trkpt lat="45.3054" lon="5.84036">
        <ele>1414</ele>
        <time>2014-06-01T08:59:33Z</time>
      </trkpt>
      <trkpt lat="45.30524" lon="5.84057">
        <ele>1411</ele>
        <time>2014-06-01T08:59:36Z</time>
      </trkpt>
      <trkpt lat="45.30505" lon="5.84047">
        <ele>1409</ele>
        <time>2014-06-01T08:59:40Z</time>
      </trkpt>
      <trkpt lat="45.30492" lon="5.84029">
        <ele>1398</ele>
        <time>2014-06-01T08:59:43Z</time>
      </trkpt>
      <trkpt lat="45.30475" lon="5.84014">
        <ele>1397</ele>
        <time>2014-06-01T08:59:46Z</time>
      </trkpt>
      <trkpt lat="45.30453" lon="5.84008">
        <ele>1394</ele>
        <time>2014-06-01T08:59:50Z</time>
      </trkpt>
      <trkpt lat="45.30437" lon="5.84021">
        <ele>1393</ele>
        <time>2014-06-01T08:59:55Z</time>
      </trkpt>
      <trkpt lat="45.30421" lon="5.84035">
        <ele>1392</ele>
        <time>2014-06-01T09:00:04Z</time>
      </trkpt>
      <trkpt lat="45.30401" lon="5.84044">
        <ele>1380</ele>
        <time>2014-06-01T09:00:09Z</time>
      </trkpt>
      <trkpt lat="45.3038" lon="5.84043">
        <ele>1378</ele>
        <time>2014-06-01T09:00:15Z</time>
      </trkpt>
      <trkpt lat="45.3036" lon="5.8404">
        <ele>1375</ele>
        <time>2014-06-01T09:00:24Z</time>
      </trkpt>
      <trkpt lat="45.30343" lon="5.84051">
        <ele>1373</ele>
        <time>2014-06-01T09:00:32Z</time>
      </trkpt>
      <trkpt lat="45.30318" lon="5.84054">
        <ele>1358</ele>
        <time>2014-06-01T09:00:45Z</time>
      </trkpt>
      <trkpt lat="45.30292" lon="5.84066">
        <ele>1354</ele>
        <time>2014-06-01T09:01:08Z</time>
      </trkpt>
      <trkpt lat="45.30274" lon="5.84067">
        <ele>1350</ele>
        <time>2014-06-01T09:01:18Z</time>
      </trkpt>
      <trkpt lat="45.30256" lon="5.84074">
        <ele>1345</ele>
        <time>2014-06-01T09:01:57Z</time>
      </trkpt>
      <trkpt lat="45.30244" lon="5.84095">
        <ele>1337</ele>
        <time>2014-06-01T09:02:26Z</time>
      </trkpt>
      <trkpt lat="45.30227" lon="5.84107">
        <ele>1334</ele>
        <time>2014-06-01T09:02:36Z</time>
      </trkpt>
      <trkpt lat="45.30209" lon="5.84113">
        <ele>1331</ele>
        <time>2014-06-01T09:02:58Z</time>
      </trkpt>
      <trkpt lat="45.30197" lon="5.84144">
        <ele>1331</ele>
        <time>2014-06-01T09:03:09Z</time>
      </trkpt>
      <trkpt lat="45.30185" lon="5.84168">
        <ele>1338</ele>
        <time>2014-06-01T09:03:18Z</time>
      </trkpt>
      <trkpt lat="45.30175" lon="5.84197">
        <ele>1344</ele>
        <time>2014-06-01T09:03:31Z</time>
      </trkpt>
      <trkpt lat="45.30163" lon="5.84218">
        <ele>1331</ele>
        <time>2014-06-01T09:03:37Z</time>
      </trkpt>
      <trkpt lat="45.30146" lon="5.84237">
        <ele>1333</ele>
        <time>2014-06-01T09:03:52Z</time>
      </trkpt>
      <trkpt lat="45.30135" lon="5.84259">
        <ele>1345</ele>
        <time>2014-06-01T09:04:05Z</time>
      </trkpt>
      <trkpt lat="45.30117" lon="5.84269">
        <ele>1341</ele>
        <time>2014-06-01T09:04:16Z</time>
      </trkpt>
      <trkpt lat="45.30103" lon="5.84286">
        <ele>1342</ele>
        <time>2014-06-01T09:04:20Z</time>
      </trkpt>
      <trkpt lat="45.30084" lon="5.84305">
        <ele>1343</ele>
        <time>2014-06-01T09:04:27Z</time>
      </trkpt>
      <trkpt lat="45.30065" lon="5.84324">
        <ele>1327</ele>
        <time>2014-06-01T09:04:31Z</time>
      </trkpt>
      <trkpt lat="45.30049" lon="5.84337">
        <ele>1337</ele>
        <time>2014-06-01T09:04:35Z</time>
      </trkpt>
      <trkpt lat="45.30039" lon="5.84361">
        <ele>1337</ele>
        <time>2014-06-01T09:04:40Z</time>
      </trkpt>
      <trkpt lat="45.30023" lon="5.84381">
        <ele>1337</ele>
        <time>2014-06-01T09:04:47Z</time>
      </trkpt>
      <trkpt lat="45.30006" lon="5.84394">
        <ele>1336</ele>
        <time>2014-06-01T09:04:53Z</time>
      </trkpt>
      <trkpt lat="45.29988" lon="5.84397">
        <ele>1318</ele>
        <time>2014-06-01T09:05:00Z</time>
      </trkpt>
      <trkpt lat="45.2997" lon="5.84406">
        <ele>1315</ele>
        <time>2014-06-01T09:05:08Z</time>
      </trkpt>
      <trkpt lat="45.29949" lon="5.8441">
        <ele>1310</ele>
        <time>2014-06-01T09:05:14Z</time>
      </trkpt>
      <trkpt lat="45.29933" lon="5.84425">
        <ele>1318</ele>
        <time>2014-06-01T09:05:18Z</time>
      </trkpt>
      <trkpt lat="45.29913" lon="5.8444">
        <ele>1302</ele>
        <time>2014-06-01T09:05:23Z</time>
      </trkpt>
      <trkpt lat="45.29901" lon="5.8446">
        <ele>1301</ele>
        <time>2014-06-01T09:05:28Z</time>
      </trkpt>
      <trkpt lat="45.29887" lon="5.84478">
        <ele>1301</ele>
        <time>2014-06-01T09:05:42Z</time>
      </trkpt>
      <trkpt lat="45.29877" lon="5.84499">
        <ele>1300</ele>
        <time>2014-06-01T09:05:57Z</time>
      </trkpt>
      <trkpt lat="45.2986" lon="5.84511">
        <ele>1295</ele>
        <time>2014-06-01T09:06:30Z</time>
      </trkpt>
      <trkpt lat="45.29842" lon="5.84518">
        <ele>1292</ele>
        <time>2014-06-01T09:06:41Z</time>
      </trkpt>
      <trkpt lat="45.29824" lon="5.84517">
        <ele>1275</ele>
        <time>2014-06-01T09:07:11Z</time>
      </trkpt>
      <trkpt lat="45.29807" lon="5.84527">
        <ele>1270</ele>
        <time>2014-06-01T09:07:25Z</time>
      </trkpt>
      <trkpt lat="45.29787" lon="5.8453">
        <ele>1265</ele>
        <time>2014-06-01T09:07:34Z</time>
      </trkpt>
      <trkpt lat="45.29771" lon="5.84521">
        <ele>1261</ele>
        <time>2014-06-01T09:07:42Z</time>
      </trkpt>
      <trkpt lat="45.29751" lon="5.84527">
        <ele>1259</ele>
        <time>2014-06-01T09:07:50Z</time>
      </trkpt>
      <trkpt lat="45.29734" lon="5.84539">
        <ele>1240</ele>
        <time>2014-06-01T09:07:58Z</time>
      </trkpt>
      <trkpt lat="45.29716" lon="5.84539">
        <ele>1237</ele>
        <time>2014-06-01T09:08:04Z</time>
      </trkpt>
      <trkpt lat="45.29697" lon="5.84545">
        <ele>1234</ele>
        <time>2014-06-01T09:08:13Z</time>
      </trkpt>
      <trkpt lat="45.29679" lon="5.84558">
        <ele>1231</ele>
        <time>2014-06-01T09:08:20Z</time>
      </trkpt>
      <trkpt lat="45.29662" lon="5.84564">
        <ele>1216</ele>
        <time>2014-06-01T09:08:30Z</time>
      </trkpt>
      <trkpt lat="45.29674" lon="5.84584">
        <ele>1222</ele>
        <time>2014-06-01T09:11:50Z</time>
      </trkpt>
      <trkpt lat="45.29692" lon="5.84594">
        <ele>1223</ele>
        <time>2014-06-01T09:11:57Z</time>
      </trkpt>
      <trkpt lat="45.29712" lon="5.846">
        <ele>1226</ele>
        <time>2014-06-01T09:12:05Z</time>
      </trkpt>
      <trkpt lat="45.2973" lon="5.84609">
        <ele>1228</ele>
        <time>2014-06-01T09:12:14Z</time>
      </trkpt>
      <trkpt lat="45.29738" lon="5.84632">
        <ele>1225</ele>
        <time>2014-06-01T09:12:25Z</time>
      </trkpt>
      <trkpt lat="45.2975" lon="5.84652">
        <ele>1234</ele>
        <time>2014-06-01T09:12:34Z</time>
      </trkpt>
      <trkpt lat="45.2976" lon="5.84673">
        <ele>1223</ele>
        <time>2014-06-01T09:12:42Z</time>
      </trkpt>
      <trkpt lat="45.29778" lon="5.84675">
        <ele>1223</ele>
        <time>2014-06-01T09:13:10Z</time>
      </trkpt>
      <trkpt lat="45.29785" lon="5.84701">
        <ele>1222</ele>
        <time>2014-06-01T09:13:23Z</time>
      </trkpt>
      <trkpt lat="45.29803" lon="5.84715">
        <ele>1222</ele>
        <time>2014-06-01T09:13:29Z</time>
      </trkpt>
      <trkpt lat="45.29791" lon="5.84693">
        <ele>1223</ele>
        <time>2014-06-01T09:13:39Z</time>
      </trkpt>
      <trkpt lat="45.29782" lon="5.84667">
        <ele>1224</ele>
        <time>2014-06-01T09:13:45Z</time>
      </trkpt>
      <trkpt lat="45.29772" lon="5.84642">
        <ele>1241</ele>
        <time>2014-06-01T09:13:51Z</time>
      </trkpt>
      <trkpt lat="45.29757" lon="5.84621">
        <ele>1244</ele>
        <time>2014-06-01T09:13:56Z</time>
      </trkpt>
      <trkpt lat="45.29742" lon="5.84605">
        <ele>1232</ele>
        <time>2014-06-01T09:14:03Z</time>
      </trkpt>
      <trkpt lat="45.29725" lon="5.84596">
        <ele>1230</ele>
        <time>2014-06-01T09:14:11Z</time>
      </trkpt>
      <trkpt lat="45.29733" lon="5.8462">
        <ele>1226</ele>
        <time>2014-06-01T09:14:44Z</time>
      </trkpt>
      <trkpt lat="45.29738" lon="5.84647">
        <ele>1223</ele>
        <time>2014-06-01T09:14:59Z</time>
      </trkpt>
      <trkpt lat="45.29756" lon="5.84636">
        <ele>1240</ele>
        <time>2014-06-01T09:15:32Z</time>
      </trkpt>
      <trkpt lat="45.29774" lon="5.84634">
        <ele>1243</ele>
        <time>2014-06-01T09:15:50Z</time>
      </trkpt>
      <trkpt lat="45.29789" lon="5.8465">
        <ele>1243</ele>
        <time>2014-06-01T09:15:56Z</time>
      </trkpt>
      <trkpt lat="45.29798" lon="5.84675">
        <ele>1226</ele>
        <time>2014-06-01T09:16:04Z</time>
      </trkpt>
      <trkpt lat="45.29804" lon="5.84701">
        <ele>1224</ele>
        <time>2014-06-01T09:16:13Z</time>
      </trkpt>
      <trkpt lat="45.29819" lon="5.8472">
        <ele>1223</ele>
        <time>2014-06-01T09:16:21Z</time>
      </trkpt>
      <trkpt lat="45.29837" lon="5.8473">
        <ele>1232</ele>
        <time>2014-06-01T09:16:27Z</time>
      </trkpt>
      <trkpt lat="45.29852" lon="5.84747">
        <ele>1231</ele>
        <time>2014-06-01T09:16:36Z</time>
      </trkpt>
      <trkpt lat="45.29871" lon="5.84757">
        <ele>1219</ele>
        <time>2014-06-01T09:16:42Z</time>
      </trkpt>
      <trkpt lat="45.29859" lon="5.84779">
        <ele>1216</ele>
        <time>2014-06-01T09:16:50Z</time>
      </trkpt>
      <trkpt lat="45.29836" lon="5.84782">
        <ele>1214</ele>
        <time>2014-06-01T09:16:54Z</time>
      </trkpt>
      <trkpt lat="45.29813" lon="5.84777">
        <ele>1203</ele>
        <time>2014-06-01T09:16:57Z</time>
      </trkpt>
      <trkpt lat="45.29793" lon="5.84773">
        <ele>1200</ele>
        <time>2014-06-01T09:17:00Z</time>
      </trkpt>
      <trkpt lat="45.29773" lon="5.84771">
        <ele>1198</ele>
        <time>2014-06-01T09:17:04Z</time>
      </trkpt>
      <trkpt lat="45.29752" lon="5.84772">
        <ele>1197</ele>
        <time>2014-06-01T09:17:08Z</time>
      </trkpt>
      <trkpt lat="45.29734" lon="5.84768">
        <ele>1184</ele>
        <time>2014-06-01T09:17:11Z</time>
      </trkpt>
      <trkpt lat="45.29717" lon="5.84757">
        <ele>1182</ele>
        <time>2014-06-01T09:17:15Z</time>
      </trkpt>
      <trkpt lat="45.29699" lon="5.84769">
        <ele>1177</ele>
        <time>2014-06-01T09:17:24Z</time>
      </trkpt>
      <trkpt lat="45.29686" lon="5.8479">
        <ele>1173</ele>
        <time>2014-06-01T09:17:30Z</time>
      </trkpt>
      <trkpt lat="45.2967" lon="5.84807">
        <ele>1169</ele>
        <time>2014-06-01T09:17:35Z</time>
      </trkpt>
      <trkpt lat="45.29657" lon="5.84828">
        <ele>1156</ele>
        <time>2014-06-01T09:17:39Z</time>
      </trkpt>
      <trkpt lat="45.29637" lon="5.84837">
        <ele>1142</ele>
        <time>2014-06-01T09:17:43Z</time>
      </trkpt>
      <trkpt lat="45.29617" lon="5.84854">
        <ele>1137</ele>
        <time>2014-06-01T09:17:46Z</time>
      </trkpt>
      <trkpt lat="45.29599" lon="5.84866">
        <ele>1135</ele>
        <time>2014-06-01T09:17:49Z</time>
      </trkpt>
      <trkpt lat="45.2958" lon="5.84876">
        <ele>1125</ele>
        <time>2014-06-01T09:17:52Z</time>
      </trkpt>
      <trkpt lat="45.2956" lon="5.84873">
        <ele>1125</ele>
        <time>2014-06-01T09:17:55Z</time>
      </trkpt>
      <trkpt lat="45.29541" lon="5.84869">
        <ele>1123</ele>
        <time>2014-06-01T09:17:58Z</time>
      </trkpt>
      <trkpt lat="45.29524" lon="5.84862">
        <ele>1123</ele>
        <time>2014-06-01T09:18:05Z</time>
      </trkpt>
      <trkpt lat="45.2952" lon="5.8489">
        <ele>1119</ele>
        <time>2014-06-01T09:18:14Z</time>
      </trkpt>
      <trkpt lat="45.29521" lon="5.84923">
        <ele>1102</ele>
        <time>2014-06-01T09:18:19Z</time>
      </trkpt>
      <trkpt lat="45.2954" lon="5.84938">
        <ele>1099</ele>
        <time>2014-06-01T09:18:27Z</time>
      </trkpt>
      <trkpt lat="45.29559" lon="5.84947">
        <ele>1099</ele>
        <time>2014-06-01T09:18:30Z</time>
      </trkpt>
      <trkpt lat="45.29576" lon="5.84957">
        <ele>1096</ele>
        <time>2014-06-01T09:18:33Z</time>
      </trkpt>
      <trkpt lat="45.29594" lon="5.84965">
        <ele>1097</ele>
        <time>2014-06-01T09:18:37Z</time>
      </trkpt>
      <trkpt lat="45.29616" lon="5.84961">
        <ele>1098</ele>
        <time>2014-06-01T09:18:42Z</time>
      </trkpt>
      <trkpt lat="45.29638" lon="5.84963">
        <ele>1098</ele>
        <time>2014-06-01T09:18:47Z</time>
      </trkpt>
      <trkpt lat="45.29647" lon="5.84986">
        <ele>1092</ele>
        <time>2014-06-01T09:18:53Z</time>
      </trkpt>
      <trkpt lat="45.29632" lon="5.85005">
        <ele>1073</ele>
        <time>2014-06-01T09:18:57Z</time>
      </trkpt>
      <trkpt lat="45.29612" lon="5.85011">
        <ele>1072</ele>
        <time>2014-06-01T09:19:01Z</time>
      </trkpt>
      <trkpt lat="45.29598" lon="5.85031">
        <ele>1070</ele>
        <time>2014-06-01T09:19:06Z</time>
      </trkpt>
      <trkpt lat="45.29607" lon="5.85054">
        <ele>1066</ele>
        <time>2014-06-01T09:19:11Z</time>
      </trkpt>
      <trkpt lat="45.29617" lon="5.85078">
        <ele>1064</ele>
        <time>2014-06-01T09:19:17Z</time>
      </trkpt>
      <trkpt lat="45.29632" lon="5.85098">
        <ele>1065</ele>
        <time>2014-06-01T09:19:21Z</time>
      </trkpt>
      <trkpt lat="45.29649" lon="5.85091">
        <ele>1065</ele>
        <time>2014-06-01T09:20:14Z</time>
      </trkpt>
      <trkpt lat="45.29631" lon="5.85094">
        <ele>1064</ele>
        <time>2014-06-01T09:22:17Z</time>
      </trkpt>
      <trkpt lat="45.29614" lon="5.85106">
        <ele>1063</ele>
        <time>2014-06-01T09:22:23Z</time>
      </trkpt>
      <trkpt lat="45.29594" lon="5.85118">
        <ele>1062</ele>
        <time>2014-06-01T09:22:28Z</time>
      </trkpt>
      <trkpt lat="45.29563" lon="5.85135">
        <ele>1049</ele>
        <time>2014-06-01T09:22:45Z</time>
      </trkpt>
      <trkpt lat="45.29548" lon="5.85148">
        <ele>1048</ele>
        <time>2014-06-01T09:22:48Z</time>
      </trkpt>
      <trkpt lat="45.29533" lon="5.85165">
        <ele>1045</ele>
        <time>2014-06-01T09:22:54Z</time>
      </trkpt>
      <trkpt lat="45.29517" lon="5.85184">
        <ele>1053</ele>
        <time>2014-06-01T09:22:59Z</time>
      </trkpt>
      <trkpt lat="45.29502" lon="5.85196">
        <ele>1054</ele>
        <time>2014-06-01T09:23:04Z</time>
      </trkpt>
      <trkpt lat="45.29486" lon="5.8521">
        <ele>1040</ele>
        <time>2014-06-01T09:23:11Z</time>
      </trkpt>
      <trkpt lat="45.29473" lon="5.85229">
        <ele>1042</ele>
        <time>2014-06-01T09:23:20Z</time>
      </trkpt>
      <trkpt lat="45.29469" lon="5.85257">
        <ele>1054</ele>
        <time>2014-06-01T09:23:25Z</time>
      </trkpt>
      <trkpt lat="45.29449" lon="5.85269">
        <ele>1050</ele>
        <time>2014-06-01T09:23:31Z</time>
      </trkpt>
      <trkpt lat="45.29433" lon="5.85284">
        <ele>1049</ele>
        <time>2014-06-01T09:23:37Z</time>
      </trkpt>
      <trkpt lat="45.29417" lon="5.85295">
        <ele>1032</ele>
        <time>2014-06-01T09:23:45Z</time>
      </trkpt>
      <trkpt lat="45.29404" lon="5.85314">
        <ele>1036</ele>
        <time>2014-06-01T09:23:54Z</time>
      </trkpt>
      <trkpt lat="45.29391" lon="5.85336">
        <ele>1044</ele>
        <time>2014-06-01T09:24:01Z</time>
      </trkpt>
      <trkpt lat="45.29385" lon="5.85364">
        <ele>1042</ele>
        <time>2014-06-01T09:24:09Z</time>
      </trkpt>
      <trkpt lat="45.29383" lon="5.8539">
        <ele>1043</ele>
        <time>2014-06-01T09:24:14Z</time>
      </trkpt>
      <trkpt lat="45.29379" lon="5.85421">
        <ele>1044</ele>
        <time>2014-06-01T09:24:19Z</time>
      </trkpt>
      <trkpt lat="45.29376" lon="5.85449">
        <ele>1044</ele>
        <time>2014-06-01T09:24:25Z</time>
      </trkpt>
      <trkpt lat="45.29377" lon="5.85478">
        <ele>1044</ele>
        <time>2014-06-01T09:24:33Z</time>
      </trkpt>
      <trkpt lat="45.29376" lon="5.85505">
        <ele>1045</ele>
        <time>2014-06-01T09:24:42Z</time>
      </trkpt>
      <trkpt lat="45.29376" lon="5.85531">
        <ele>1045</ele>
        <time>2014-06-01T09:24:50Z</time>
      </trkpt>
      <trkpt lat="45.29378" lon="5.8556">
        <ele>1045</ele>
        <time>2014-06-01T09:24:58Z</time>
      </trkpt>
      <trkpt lat="45.2938" lon="5.8559">
        <ele>1045</ele>
        <time>2014-06-01T09:25:04Z</time>
      </trkpt>
      <trkpt lat="45.29372" lon="5.85621">
        <ele>1043</ele>
        <time>2014-06-01T09:25:09Z</time>
      </trkpt>
      <trkpt lat="45.2937" lon="5.85652">
        <ele>1042</ele>
        <time>2014-06-01T09:25:14Z</time>
      </trkpt>
      <trkpt lat="45.29372" lon="5.85681">
        <ele>1041</ele>
        <time>2014-06-01T09:25:18Z</time>
      </trkpt>
      <trkpt lat="45.29377" lon="5.85705">
        <ele>1041</ele>
        <time>2014-06-01T09:25:23Z</time>
      </trkpt>
      <trkpt lat="45.29384" lon="5.8573">
        <ele>1042</ele>
        <time>2014-06-01T09:25:30Z</time>
      </trkpt>
      <trkpt lat="45.29397" lon="5.85751">
        <ele>1044</ele>
        <time>2014-06-01T09:25:41Z</time>
      </trkpt>
      <trkpt lat="45.29411" lon="5.85772">
        <ele>1044</ele>
        <time>2014-06-01T09:25:53Z</time>
      </trkpt>
      <trkpt lat="45.29418" lon="5.85797">
        <ele>1056</ele>
        <time>2014-06-01T09:26:01Z</time>
      </trkpt>
      <trkpt lat="45.29425" lon="5.85821">
        <ele>1054</ele>
        <time>2014-06-01T09:26:13Z</time>
      </trkpt>
      <trkpt lat="45.2943" lon="5.85845">
        <ele>1055</ele>
        <time>2014-06-01T09:26:27Z</time>
      </trkpt>
      <trkpt lat="45.29436" lon="5.8587">
        <ele>1057</ele>
        <time>2014-06-01T09:26:37Z</time>
      </trkpt>
      <trkpt lat="45.29441" lon="5.85897">
        <ele>1057</ele>
        <time>2014-06-01T09:26:46Z</time>
      </trkpt>
      <trkpt lat="45.29443" lon="5.85924">
        <ele>1054</ele>
        <time>2014-06-01T09:26:56Z</time>
      </trkpt>
      <trkpt lat="45.29451" lon="5.85951">
        <ele>1055</ele>
        <time>2014-06-01T09:27:02Z</time>
      </trkpt>
      <trkpt lat="45.29459" lon="5.85977">
        <ele>1055</ele>
        <time>2014-06-01T09:27:08Z</time>
      </trkpt>
      <trkpt lat="45.2947" lon="5.85998">
        <ele>1056</ele>
        <time>2014-06-01T09:27:19Z</time>
      </trkpt>
      <trkpt lat="45.29484" lon="5.86018">
        <ele>1053</ele>
        <time>2014-06-01T09:27:27Z</time>
      </trkpt>
      <trkpt lat="45.29493" lon="5.8604">
        <ele>1051</ele>
        <time>2014-06-01T09:27:32Z</time>
      </trkpt>
      <trkpt lat="45.2949" lon="5.86067">
        <ele>1050</ele>
        <time>2014-06-01T09:28:10Z</time>
      </trkpt>
      <trkpt lat="45.29472" lon="5.86088">
        <ele>1043</ele>
        <time>2014-06-01T09:28:13Z</time>
      </trkpt>
      <trkpt lat="45.29456" lon="5.86105">
        <ele>1039</ele>
        <time>2014-06-01T09:28:16Z</time>
      </trkpt>
      <trkpt lat="45.29441" lon="5.86123">
        <ele>1037</ele>
        <time>2014-06-01T09:28:21Z</time>
      </trkpt>
      <trkpt lat="45.29424" lon="5.86148">
        <ele>1032</ele>
        <time>2014-06-01T09:28:27Z</time>
      </trkpt>
      <trkpt lat="45.29408" lon="5.86174">
        <ele>1022</ele>
        <time>2014-06-01T09:28:31Z</time>
      </trkpt>
      <trkpt lat="45.29393" lon="5.86196">
        <ele>1018</ele>
        <time>2014-06-01T09:28:35Z</time>
      </trkpt>
      <trkpt lat="45.29379" lon="5.86212">
        <ele>1016</ele>
        <time>2014-06-01T09:28:38Z</time>
      </trkpt>
      <trkpt lat="45.29367" lon="5.86231">
        <ele>1015</ele>
        <time>2014-06-01T09:28:43Z</time>
      </trkpt>
      <trkpt lat="45.29375" lon="5.86258">
        <ele>1011</ele>
        <time>2014-06-01T09:28:50Z</time>
      </trkpt>
      <trkpt lat="45.29382" lon="5.8629">
        <ele>1010</ele>
        <time>2014-06-01T09:28:54Z</time>
      </trkpt>
      <trkpt lat="45.29391" lon="5.86316">
        <ele>1009</ele>
        <time>2014-06-01T09:28:58Z</time>
      </trkpt>
      <trkpt lat="45.29397" lon="5.86343">
        <ele>1006</ele>
        <time>2014-06-01T09:29:04Z</time>
      </trkpt>
      <trkpt lat="45.29406" lon="5.8637">
        <ele>1005</ele>
        <time>2014-06-01T09:29:09Z</time>
      </trkpt>
      <trkpt lat="45.29417" lon="5.86391">
        <ele>1010</ele>
        <time>2014-06-01T09:29:14Z</time>
      </trkpt>
      <trkpt lat="45.29433" lon="5.86407">
        <ele>1010</ele>
        <time>2014-06-01T09:29:20Z</time>
      </trkpt>
      <trkpt lat="45.29451" lon="5.86417">
        <ele>1006</ele>
        <time>2014-06-01T09:29:26Z</time>
      </trkpt>
      <trkpt lat="45.2947" lon="5.86422">
        <ele>1007</ele>
        <time>2014-06-01T09:29:30Z</time>
      </trkpt>
      <trkpt lat="45.29486" lon="5.86435">
        <ele>1008</ele>
        <time>2014-06-01T09:29:36Z</time>
      </trkpt>
      <trkpt lat="45.29493" lon="5.86459">
        <ele>1006</ele>
        <time>2014-06-01T09:29:44Z</time>
      </trkpt>
      <trkpt lat="45.29505" lon="5.86479">
        <ele>1009</ele>
        <time>2014-06-01T09:30:05Z</time>
      </trkpt>
      <trkpt lat="45.29506" lon="5.86505">
        <ele>1002</ele>
        <time>2014-06-01T09:30:16Z</time>
      </trkpt>
      <trkpt lat="45.29497" lon="5.86527">
        <ele>994</ele>
        <time>2014-06-01T09:30:23Z</time>
      </trkpt>
      <trkpt lat="45.2951" lon="5.86545">
        <ele>996</ele>
        <time>2014-06-01T09:30:45Z</time>
      </trkpt>
      <trkpt lat="45.29524" lon="5.86527">
        <ele>998</ele>
        <time>2014-06-01T09:30:59Z</time>
      </trkpt>
      <trkpt lat="45.29539" lon="5.86541">
        <ele>997</ele>
        <time>2014-06-01T09:31:12Z</time>
      </trkpt>
      <trkpt lat="45.29539" lon="5.86567">
        <ele>995</ele>
        <time>2014-06-01T09:31:25Z</time>
      </trkpt>
      <trkpt lat="45.29522" lon="5.86584">
        <ele>984</ele>
        <time>2014-06-01T09:31:35Z</time>
      </trkpt>
      <trkpt lat="45.29509" lon="5.86605">
        <ele>982</ele>
        <time>2014-06-01T09:31:41Z</time>
      </trkpt>
      <trkpt lat="45.29522" lon="5.86627">
        <ele>979</ele>
        <time>2014-06-01T09:31:55Z</time>
      </trkpt>
      <trkpt lat="45.29533" lon="5.86648">
        <ele>977</ele>
        <time>2014-06-01T09:33:00Z</time>
      </trkpt>
      <trkpt lat="45.29531" lon="5.86674">
        <ele>964</ele>
        <time>2014-06-01T09:33:10Z</time>
      </trkpt>
      <trkpt lat="45.29535" lon="5.86701">
        <ele>961</ele>
        <time>2014-06-01T09:33:35Z</time>
      </trkpt>
      <trkpt lat="45.29549" lon="5.86722">
        <ele>960</ele>
        <time>2014-06-01T09:34:41Z</time>
      </trkpt>
      <trkpt lat="45.29566" lon="5.86737">
        <ele>960</ele>
        <time>2014-06-01T09:34:50Z</time>
      </trkpt>
      <trkpt lat="45.29587" lon="5.86746">
        <ele>962</ele>
        <time>2014-06-01T09:35:18Z</time>
      </trkpt>
      <trkpt lat="45.29609" lon="5.86745">
        <ele>968</ele>
        <time>2014-06-01T09:35:23Z</time>
      </trkpt>
      <trkpt lat="45.29627" lon="5.86752">
        <ele>957</ele>
        <time>2014-06-01T09:35:44Z</time>
      </trkpt>
      <trkpt lat="45.29647" lon="5.86763">
        <ele>960</ele>
        <time>2014-06-01T09:35:52Z</time>
      </trkpt>
      <trkpt lat="45.29665" lon="5.86777">
        <ele>959</ele>
        <time>2014-06-01T09:35:58Z</time>
      </trkpt>
      <trkpt lat="45.29684" lon="5.86783">
        <ele>963</ele>
        <time>2014-06-01T09:36:04Z</time>
      </trkpt>
      <trkpt lat="45.29704" lon="5.86789">
        <ele>963</ele>
        <time>2014-06-01T09:36:13Z</time>
      </trkpt>
      <trkpt lat="45.29716" lon="5.86811">
        <ele>960</ele>
        <time>2014-06-01T09:36:17Z</time>
      </trkpt>
      <trkpt lat="45.29736" lon="5.86818">
        <ele>959</ele>
        <time>2014-06-01T09:36:24Z</time>
      </trkpt>
      <trkpt lat="45.29755" lon="5.86816">
        <ele>962</ele>
        <time>2014-06-01T09:36:31Z</time>
      </trkpt>
      <trkpt lat="45.29773" lon="5.86819">
        <ele>964</ele>
        <time>2014-06-01T09:37:02Z</time>
      </trkpt>
      <trkpt lat="45.29791" lon="5.86813">
        <ele>967</ele>
        <time>2014-06-01T09:37:33Z</time>
      </trkpt>
      <trkpt lat="45.2981" lon="5.86812">
        <ele>969</ele>
        <time>2014-06-01T09:38:15Z</time>
      </trkpt>
      <trkpt lat="45.29828" lon="5.86821">
        <ele>968</ele>
        <time>2014-06-01T09:38:17Z</time>
      </trkpt>
      <trkpt lat="45.29847" lon="5.86825">
        <ele>975</ele>
        <time>2014-06-01T09:38:48Z</time>
      </trkpt>
      <trkpt lat="45.2987" lon="5.86829">
        <ele>981</ele>
        <time>2014-06-01T09:39:17Z</time>
      </trkpt>
      <trkpt lat="45.29858" lon="5.86848">
        <ele>975</ele>
        <time>2014-06-01T09:40:11Z</time>
      </trkpt>
      <trkpt lat="45.29866" lon="5.86871">
        <ele>977</ele>
        <time>2014-06-01T09:40:45Z</time>
      </trkpt>
      <trkpt lat="45.29879" lon="5.86892">
        <ele>979</ele>
        <time>2014-06-01T09:40:54Z</time>
      </trkpt>
      <trkpt lat="45.29891" lon="5.86914">
        <ele>981</ele>
        <time>2014-06-01T09:41:00Z</time>
      </trkpt>
      <trkpt lat="45.29906" lon="5.86931">
        <ele>981</ele>
        <time>2014-06-01T09:41:16Z</time>
      </trkpt>
      <trkpt lat="45.29924" lon="5.86935">
        <ele>992</ele>
        <time>2014-06-01T09:41:22Z</time>
      </trkpt>
      <trkpt lat="45.29941" lon="5.86944">
        <ele>993</ele>
        <time>2014-06-01T09:41:35Z</time>
      </trkpt>
      <trkpt lat="45.29947" lon="5.86971">
        <ele>993</ele>
        <time>2014-06-01T09:41:47Z</time>
      </trkpt>
      <trkpt lat="45.29956" lon="5.86996">
        <ele>993</ele>
        <time>2014-06-01T09:42:01Z</time>
      </trkpt>
      <trkpt lat="45.29939" lon="5.87013">
        <ele>990</ele>
        <time>2014-06-01T09:43:02Z</time>
      </trkpt>
      <trkpt lat="45.29929" lon="5.87034">
        <ele>991</ele>
        <time>2014-06-01T09:43:39Z</time>
      </trkpt>
      <trkpt lat="45.2992" lon="5.87057">
        <ele>992</ele>
        <time>2014-06-01T09:44:14Z</time>
      </trkpt>
      <trkpt lat="45.29899" lon="5.87057">
        <ele>979</ele>
        <time>2014-06-01T09:44:28Z</time>
      </trkpt>
      <trkpt lat="45.2988" lon="5.87044">
        <ele>976</ele>
        <time>2014-06-01T09:44:33Z</time>
      </trkpt>
      <trkpt lat="45.2986" lon="5.87051">
        <ele>974</ele>
        <time>2014-06-01T09:44:37Z</time>
      </trkpt>
      <trkpt lat="45.29843" lon="5.87062">
        <ele>973</ele>
        <time>2014-06-01T09:44:43Z</time>
      </trkpt>
      <trkpt lat="45.29822" lon="5.87054">
        <ele>959</ele>
        <time>2014-06-01T09:44:48Z</time>
      </trkpt>
      <trkpt lat="45.29804" lon="5.87065">
        <ele>958</ele>
        <time>2014-06-01T09:44:52Z</time>
      </trkpt>
      <trkpt lat="45.29795" lon="5.87087">
        <ele>968</ele>
        <time>2014-06-01T09:44:58Z</time>
      </trkpt>
      <trkpt lat="45.29774" lon="5.87104">
        <ele>967</ele>
        <time>2014-06-01T09:45:08Z</time>
      </trkpt>
      <trkpt lat="45.29756" lon="5.87106">
        <ele>965</ele>
        <time>2014-06-01T09:45:20Z</time>
      </trkpt>
      <trkpt lat="45.29739" lon="5.87095">
        <ele>956</ele>
        <time>2014-06-01T09:45:28Z</time>
      </trkpt>
      <trkpt lat="45.29721" lon="5.87102">
        <ele>956</ele>
        <time>2014-06-01T09:45:44Z</time>
      </trkpt>
      <trkpt lat="45.29702" lon="5.87104">
        <ele>954</ele>
        <time>2014-06-01T09:45:54Z</time>
      </trkpt>
      <trkpt lat="45.29683" lon="5.871">
        <ele>949</ele>
        <time>2014-06-01T09:46:11Z</time>
      </trkpt>
      <trkpt lat="45.29662" lon="5.87102">
        <ele>936</ele>
        <time>2014-06-01T09:46:31Z</time>
      </trkpt>
      <trkpt lat="45.29639" lon="5.87099">
        <ele>933</ele>
        <time>2014-06-01T09:46:35Z</time>
      </trkpt>
      <trkpt lat="45.29621" lon="5.87105">
        <ele>930</ele>
        <time>2014-06-01T09:46:49Z</time>
      </trkpt>
      <trkpt lat="45.29603" lon="5.87113">
        <ele>927</ele>
        <time>2014-06-01T09:47:03Z</time>
      </trkpt>
      <trkpt lat="45.29591" lon="5.87133">
        <ele>931</ele>
        <time>2014-06-01T09:47:16Z</time>
      </trkpt>
      <trkpt lat="45.29575" lon="5.8715">
        <ele>917</ele>
        <time>2014-06-01T09:47:23Z</time>
      </trkpt>
      <trkpt lat="45.29559" lon="5.87168">
        <ele>929</ele>
        <time>2014-06-01T09:47:31Z</time>
      </trkpt>
      <trkpt lat="45.29542" lon="5.87186">
        <ele>926</ele>
        <time>2014-06-01T09:47:40Z</time>
      </trkpt>
      <trkpt lat="45.29528" lon="5.87209">
        <ele>928</ele>
        <time>2014-06-01T09:47:45Z</time>
      </trkpt>
      <trkpt lat="45.29518" lon="5.87231">
        <ele>931</ele>
        <time>2014-06-01T09:47:58Z</time>
      </trkpt>
      <trkpt lat="45.29502" lon="5.87251">
        <ele>937</ele>
        <time>2014-06-01T09:48:12Z</time>
      </trkpt>
      <trkpt lat="45.29487" lon="5.87267">
        <ele>937</ele>
        <time>2014-06-01T09:48:35Z</time>
      </trkpt>
      <trkpt lat="45.29473" lon="5.87284">
        <ele>938</ele>
        <time>2014-06-01T09:48:56Z</time>
      </trkpt>
      <trkpt lat="45.29461" lon="5.87303">
        <ele>939</ele>
        <time>2014-06-01T09:49:10Z</time>
      </trkpt>
      <trkpt lat="45.2945" lon="5.87323">
        <ele>939</ele>
        <time>2014-06-01T09:49:36Z</time>
      </trkpt>
      <trkpt lat="45.29434" lon="5.87341">
        <ele>952</ele>
        <time>2014-06-01T09:49:51Z</time>
      </trkpt>
      <trkpt lat="45.29426" lon="5.87363">
        <ele>958</ele>
        <time>2014-06-01T09:50:09Z</time>
      </trkpt>
      <trkpt lat="45.29414" lon="5.87384">
        <ele>931</ele>
        <time>2014-06-01T09:50:31Z</time>
      </trkpt>
      <trkpt lat="45.29406" lon="5.87407">
        <ele>944</ele>
        <time>2014-06-01T09:50:59Z</time>
      </trkpt>
      <trkpt lat="45.29401" lon="5.87432">
        <ele>915</ele>
        <time>2014-06-01T09:51:46Z</time>
      </trkpt>
      <trkpt lat="45.29384" lon="5.87444">
        <ele>886</ele>
        <time>2014-06-01T09:52:14Z</time>
      </trkpt>
      <trkpt lat="45.29368" lon="5.87456">
        <ele>863</ele>
        <time>2014-06-01T09:52:42Z</time>
      </trkpt>
      <trkpt lat="45.29369" lon="5.87482">
        <ele>852</ele>
        <time>2014-06-01T09:53:21Z</time>
      </trkpt>
      <trkpt lat="45.29371" lon="5.87508">
        <ele>798</ele>
        <time>2014-06-01T09:53:42Z</time>
      </trkpt>
      <trkpt lat="45.29368" lon="5.87533">
        <ele>783</ele>
        <time>2014-06-01T09:54:11Z</time>
      </trkpt>
      <trkpt lat="45.29375" lon="5.87557">
        <ele>779</ele>
        <time>2014-06-01T09:55:07Z</time>
      </trkpt>
      <trkpt lat="45.2939" lon="5.87572">
        <ele>802</ele>
        <time>2014-06-01T09:55:21Z</time>
      </trkpt>
      <trkpt lat="45.29406" lon="5.8759">
        <ele>805</ele>
        <time>2014-06-01T09:55:37Z</time>
      </trkpt>
      <trkpt lat="45.29424" lon="5.87599">
        <ele>879</ele>
        <time>2014-06-01T09:55:42Z</time>
      </trkpt>
      <trkpt lat="45.29442" lon="5.87613">
        <ele>889</ele>
        <time>2014-06-01T09:55:46Z</time>
      </trkpt>
      <trkpt lat="45.29463" lon="5.87621">
        <ele>903</ele>
        <time>2014-06-01T09:55:50Z</time>
      </trkpt>
      <trkpt lat="45.2948" lon="5.87638">
        <ele>911</ele>
        <time>2014-06-01T09:55:56Z</time>
      </trkpt>
      <trkpt lat="45.29495" lon="5.87654">
        <ele>924</ele>
        <time>2014-06-01T09:56:01Z</time>
      </trkpt>
      <trkpt lat="45.29513" lon="5.87668">
        <ele>943</ele>
        <time>2014-06-01T09:56:05Z</time>
      </trkpt>
      <trkpt lat="45.29533" lon="5.87674">
        <ele>946</ele>
        <time>2014-06-01T09:56:10Z</time>
      </trkpt>
      <trkpt lat="45.29553" lon="5.87677">
        <ele>951</ele>
        <time>2014-06-01T09:56:18Z</time>
      </trkpt>
      <trkpt lat="45.2957" lon="5.87665">
        <ele>970</ele>
        <time>2014-06-01T09:56:27Z</time>
      </trkpt>
      <trkpt lat="45.29588" lon="5.87659">
        <ele>977</ele>
        <time>2014-06-01T09:56:34Z</time>
      </trkpt>
      <trkpt lat="45.296" lon="5.87684">
        <ele>974</ele>
        <time>2014-06-01T09:56:41Z</time>
      </trkpt>
      <trkpt lat="45.29599" lon="5.87712">
        <ele>971</ele>
        <time>2014-06-01T09:56:45Z</time>
      </trkpt>
      <trkpt lat="45.29602" lon="5.87743">
        <ele>965</ele>
        <time>2014-06-01T09:56:50Z</time>
      </trkpt>
      <trkpt lat="45.29606" lon="5.87771">
        <ele>967</ele>
        <time>2014-06-01T09:56:59Z</time>
      </trkpt>
      <trkpt lat="45.29613" lon="5.87795">
        <ele>971</ele>
        <time>2014-06-01T09:57:13Z</time>
      </trkpt>
      <trkpt lat="45.29612" lon="5.87826">
        <ele>972</ele>
        <time>2014-06-01T09:57:36Z</time>
      </trkpt>
      <trkpt lat="45.29613" lon="5.87851">
        <ele>955</ele>
        <time>2014-06-01T09:57:59Z</time>
      </trkpt>
      <trkpt lat="45.29622" lon="5.87874">
        <ele>950</ele>
        <time>2014-06-01T09:58:14Z</time>
      </trkpt>
      <trkpt lat="45.29625" lon="5.87899">
        <ele>944</ele>
        <time>2014-06-01T09:58:38Z</time>
      </trkpt>
      <trkpt lat="45.29621" lon="5.87925">
        <ele>862</ele>
        <time>2014-06-01T09:59:03Z</time>
      </trkpt>
      <trkpt lat="45.29629" lon="5.87947">
        <ele>848</ele>
        <time>2014-06-01T10:02:34Z</time>
      </trkpt>
      <trkpt lat="45.29641" lon="5.87927">
        <ele>879</ele>
        <time>2014-06-01T10:04:25Z</time>
      </trkpt>
      <trkpt lat="45.29657" lon="5.87914">
        <ele>956</ele>
        <time>2014-06-01T10:04:44Z</time>
      </trkpt>
      <trkpt lat="45.29674" lon="5.87907">
        <ele>975</ele>
        <time>2014-06-01T10:05:27Z</time>
      </trkpt>
      <trkpt lat="45.29692" lon="5.87895">
        <ele>990</ele>
        <time>2014-06-01T10:06:10Z</time>
      </trkpt>
      <trkpt lat="45.2971" lon="5.87899">
        <ele>997</ele>
        <time>2014-06-01T10:06:40Z</time>
      </trkpt>
      <trkpt lat="45.29725" lon="5.87913">
        <ele>1004</ele>
        <time>2014-06-01T10:07:12Z</time>
      </trkpt>
      <trkpt lat="45.29717" lon="5.87937">
        <ele>963</ele>
        <time>2014-06-01T10:08:06Z</time>
      </trkpt>
      <trkpt lat="45.29708" lon="5.8796">
        <ele>945</ele>
        <time>2014-06-01T10:08:26Z</time>
      </trkpt>
      <trkpt lat="45.29725" lon="5.8797">
        <ele>959</ele>
        <time>2014-06-01T10:09:35Z</time>
      </trkpt>
      <trkpt lat="45.29743" lon="5.87976">
        <ele>977</ele>
        <time>2014-06-01T10:10:23Z</time>
      </trkpt>
      <trkpt lat="45.29762" lon="5.87982">
        <ele>1029</ele>
        <time>2014-06-01T10:10:56Z</time>
      </trkpt>
      <trkpt lat="45.2978" lon="5.87988">
        <ele>1031</ele>
        <time>2014-06-01T10:11:17Z</time>
      </trkpt>
      <trkpt lat="45.29798" lon="5.8799">
        <ele>1034</ele>
        <time>2014-06-01T10:11:52Z</time>
      </trkpt>
      <trkpt lat="45.29816" lon="5.87994">
        <ele>1038</ele>
        <time>2014-06-01T10:12:53Z</time>
      </trkpt>
      <trkpt lat="45.29833" lon="5.88005">
        <ele>1037</ele>
        <time>2014-06-01T10:13:12Z</time>
      </trkpt>
      <trkpt lat="45.29849" lon="5.88018">
        <ele>1044</ele>
        <time>2014-06-01T10:13:20Z</time>
      </trkpt>
      <trkpt lat="45.29866" lon="5.88029">
        <ele>1044</ele>
        <time>2014-06-01T10:13:30Z</time>
      </trkpt>
      <trkpt lat="45.29882" lon="5.88044">
        <ele>1045</ele>
        <time>2014-06-01T10:13:38Z</time>
      </trkpt>
      <trkpt lat="45.29897" lon="5.8806">
        <ele>1046</ele>
        <time>2014-06-01T10:13:53Z</time>
      </trkpt>
      <trkpt lat="45.29909" lon="5.88079">
        <ele>1049</ele>
        <time>2014-06-01T10:14:05Z</time>
      </trkpt>
      <trkpt lat="45.29924" lon="5.88099">
        <ele>1051</ele>
        <time>2014-06-01T10:14:12Z</time>
      </trkpt>
      <trkpt lat="45.29936" lon="5.88126">
        <ele>1050</ele>
        <time>2014-06-01T10:14:17Z</time>
      </trkpt>
      <trkpt lat="45.29943" lon="5.88151">
        <ele>1048</ele>
        <time>2014-06-01T10:14:22Z</time>
      </trkpt>
      <trkpt lat="45.29944" lon="5.88179">
        <ele>1046</ele>
        <time>2014-06-01T10:14:28Z</time>
      </trkpt>
      <trkpt lat="45.2994" lon="5.88204">
        <ele>1047</ele>
        <time>2014-06-01T10:14:33Z</time>
      </trkpt>
      <trkpt lat="45.2993" lon="5.88227">
        <ele>1048</ele>
        <time>2014-06-01T10:14:39Z</time>
      </trkpt>
      <trkpt lat="45.29912" lon="5.88234">
        <ele>1032</ele>
        <time>2014-06-01T10:15:53Z</time>
      </trkpt>
      <trkpt lat="45.2993" lon="5.88231">
        <ele>1048</ele>
        <time>2014-06-01T10:16:57Z</time>
      </trkpt>
      <trkpt lat="45.29948" lon="5.88232">
        <ele>1049</ele>
        <time>2014-06-01T10:18:38Z</time>
      </trkpt>
      <trkpt lat="45.29968" lon="5.8824">
        <ele>1050</ele>
        <time>2014-06-01T10:18:43Z</time>
      </trkpt>
      <trkpt lat="45.29984" lon="5.88253">
        <ele>1042</ele>
        <time>2014-06-01T10:18:56Z</time>
      </trkpt>
      <trkpt lat="45.30006" lon="5.88242">
        <ele>1053</ele>
        <time>2014-06-01T10:19:13Z</time>
      </trkpt>
      <trkpt lat="45.30027" lon="5.88231">
        <ele>1054</ele>
        <time>2014-06-01T10:19:16Z</time>
      </trkpt>
      <trkpt lat="45.3005" lon="5.88222">
        <ele>1054</ele>
        <time>2014-06-01T10:19:19Z</time>
      </trkpt>
      <trkpt lat="45.30068" lon="5.88213">
        <ele>1053</ele>
        <time>2014-06-01T10:19:22Z</time>
      </trkpt>
      <trkpt lat="45.30087" lon="5.88218">
        <ele>1045</ele>
        <time>2014-06-01T10:19:29Z</time>
      </trkpt>
      <trkpt lat="45.301" lon="5.88237">
        <ele>1045</ele>
        <time>2014-06-01T10:19:35Z</time>
      </trkpt>
      <trkpt lat="45.3011" lon="5.88259">
        <ele>1044</ele>
        <time>2014-06-01T10:19:40Z</time>
      </trkpt>
      <trkpt lat="45.3012" lon="5.88283">
        <ele>1042</ele>
        <time>2014-06-01T10:19:45Z</time>
      </trkpt>
      <trkpt lat="45.30111" lon="5.88257">
        <ele>1044</ele>
        <time>2014-06-01T10:21:04Z</time>
      </trkpt>
      <trkpt lat="45.30102" lon="5.8823">
        <ele>1044</ele>
        <time>2014-06-01T10:21:11Z</time>
      </trkpt>
      <trkpt lat="45.30094" lon="5.88198">
        <ele>1044</ele>
        <time>2014-06-01T10:21:20Z</time>
      </trkpt>
      <trkpt lat="45.30112" lon="5.88183">
        <ele>1043</ele>
        <time>2014-06-01T10:21:26Z</time>
      </trkpt>
      <trkpt lat="45.30132" lon="5.88176">
        <ele>1038</ele>
        <time>2014-06-01T10:21:30Z</time>
      </trkpt>
      <trkpt lat="45.30153" lon="5.88171">
        <ele>1033</ele>
        <time>2014-06-01T10:21:34Z</time>
      </trkpt>
      <trkpt lat="45.3017" lon="5.88163">
        <ele>1026</ele>
        <time>2014-06-01T10:21:39Z</time>
      </trkpt>
      <trkpt lat="45.30193" lon="5.88149">
        <ele>1022</ele>
        <time>2014-06-01T10:21:43Z</time>
      </trkpt>
      <trkpt lat="45.30208" lon="5.88131">
        <ele>1021</ele>
        <time>2014-06-01T10:21:45Z</time>
      </trkpt>
      <trkpt lat="45.30223" lon="5.88109">
        <ele>1019</ele>
        <time>2014-06-01T10:21:47Z</time>
      </trkpt>
      <trkpt lat="45.30237" lon="5.88089">
        <ele>1015</ele>
        <time>2014-06-01T10:21:49Z</time>
      </trkpt>
      <trkpt lat="45.3025" lon="5.88065">
        <ele>1010</ele>
        <time>2014-06-01T10:21:52Z</time>
      </trkpt>
      <trkpt lat="45.30262" lon="5.88043">
        <ele>1010</ele>
        <time>2014-06-01T10:21:55Z</time>
      </trkpt>
      <trkpt lat="45.30276" lon="5.88018">
        <ele>1010</ele>
        <time>2014-06-01T10:21:59Z</time>
      </trkpt>
      <trkpt lat="45.3029" lon="5.87995">
        <ele>1012</ele>
        <time>2014-06-01T10:22:03Z</time>
      </trkpt>
      <trkpt lat="45.30301" lon="5.87972">
        <ele>1012</ele>
        <time>2014-06-01T10:22:07Z</time>
      </trkpt>
      <trkpt lat="45.30313" lon="5.87946">
        <ele>1013</ele>
        <time>2014-06-01T10:22:13Z</time>
      </trkpt>
      <trkpt lat="45.30325" lon="5.87927">
        <ele>1014</ele>
        <time>2014-06-01T10:22:18Z</time>
      </trkpt>
      <trkpt lat="45.30343" lon="5.87918">
        <ele>1013</ele>
        <time>2014-06-01T10:22:28Z</time>
      </trkpt>
      <trkpt lat="45.3036" lon="5.87938">
        <ele>1012</ele>
        <time>2014-06-01T10:22:33Z</time>
      </trkpt>
      <trkpt lat="45.30376" lon="5.87957">
        <ele>1011</ele>
        <time>2014-06-01T10:22:36Z</time>
      </trkpt>
      <trkpt lat="45.30392" lon="5.87973">
        <ele>1010</ele>
        <time>2014-06-01T10:22:39Z</time>
      </trkpt>
      <trkpt lat="45.30409" lon="5.87987">
        <ele>1008</ele>
        <time>2014-06-01T10:22:42Z</time>
      </trkpt>
      <trkpt lat="45.30429" lon="5.88004">
        <ele>1002</ele>
        <time>2014-06-01T10:22:45Z</time>
      </trkpt>
      <trkpt lat="45.30446" lon="5.8802">
        <ele>999</ele>
        <time>2014-06-01T10:22:48Z</time>
      </trkpt>
      <trkpt lat="45.3046" lon="5.88042">
        <ele>997</ele>
        <time>2014-06-01T10:22:55Z</time>
      </trkpt>
      <trkpt lat="45.30473" lon="5.88063">
        <ele>995</ele>
        <time>2014-06-01T10:22:59Z</time>
      </trkpt>
      <trkpt lat="45.30488" lon="5.88077">
        <ele>992</ele>
        <time>2014-06-01T10:23:02Z</time>
      </trkpt>
      <trkpt lat="45.30504" lon="5.88093">
        <ele>985</ele>
        <time>2014-06-01T10:23:12Z</time>
      </trkpt>
      <trkpt lat="45.30518" lon="5.88112">
        <ele>982</ele>
        <time>2014-06-01T10:23:16Z</time>
      </trkpt>
      <trkpt lat="45.30536" lon="5.88125">
        <ele>980</ele>
        <time>2014-06-01T10:23:21Z</time>
      </trkpt>
      <trkpt lat="45.30556" lon="5.88122">
        <ele>980</ele>
        <time>2014-06-01T10:23:24Z</time>
      </trkpt>
      <trkpt lat="45.30576" lon="5.88111">
        <ele>981</ele>
        <time>2014-06-01T10:23:27Z</time>
      </trkpt>
      <trkpt lat="45.30597" lon="5.88108">
        <ele>980</ele>
        <time>2014-06-01T10:23:30Z</time>
      </trkpt>
      <trkpt lat="45.3062" lon="5.88109">
        <ele>979</ele>
        <time>2014-06-01T10:23:33Z</time>
      </trkpt>
      <trkpt lat="45.30638" lon="5.88112">
        <ele>980</ele>
        <time>2014-06-01T10:23:36Z</time>
      </trkpt>
      <trkpt lat="45.30657" lon="5.88117">
        <ele>980</ele>
        <time>2014-06-01T10:23:40Z</time>
      </trkpt>
      <trkpt lat="45.30675" lon="5.88123">
        <ele>984</ele>
        <time>2014-06-01T10:23:44Z</time>
      </trkpt>
      <trkpt lat="45.30691" lon="5.88134">
        <ele>984</ele>
        <time>2014-06-01T10:23:49Z</time>
      </trkpt>
      <trkpt lat="45.30704" lon="5.88157">
        <ele>983</ele>
        <time>2014-06-01T10:23:54Z</time>
      </trkpt>
      <trkpt lat="45.30711" lon="5.88185">
        <ele>976</ele>
        <time>2014-06-01T10:23:58Z</time>
      </trkpt>
      <trkpt lat="45.3072" lon="5.88209">
        <ele>976</ele>
        <time>2014-06-01T10:24:02Z</time>
      </trkpt>
      <trkpt lat="45.30735" lon="5.88229">
        <ele>976</ele>
        <time>2014-06-01T10:24:07Z</time>
      </trkpt>
      <trkpt lat="45.30753" lon="5.88244">
        <ele>980</ele>
        <time>2014-06-01T10:24:13Z</time>
      </trkpt>
      <trkpt lat="45.30764" lon="5.88265">
        <ele>979</ele>
        <time>2014-06-01T10:24:18Z</time>
      </trkpt>
      <trkpt lat="45.30773" lon="5.8829">
        <ele>979</ele>
        <time>2014-06-01T10:24:24Z</time>
      </trkpt>
      <trkpt lat="45.30783" lon="5.88313">
        <ele>979</ele>
        <time>2014-06-01T10:24:30Z</time>
      </trkpt>
      <trkpt lat="45.30794" lon="5.88335">
        <ele>975</ele>
        <time>2014-06-01T10:24:35Z</time>
      </trkpt>
      <trkpt lat="45.30803" lon="5.88358">
        <ele>975</ele>
        <time>2014-06-01T10:24:42Z</time>
      </trkpt>
      <trkpt lat="45.30817" lon="5.88374">
        <ele>975</ele>
        <time>2014-06-01T10:24:47Z</time>
      </trkpt>
      <trkpt lat="45.30827" lon="5.884">
        <ele>976</ele>
        <time>2014-06-01T10:24:52Z</time>
      </trkpt>
      <trkpt lat="45.30835" lon="5.88428">
        <ele>979</ele>
        <time>2014-06-01T10:24:56Z</time>
      </trkpt>
      <trkpt lat="45.30847" lon="5.88447">
        <ele>979</ele>
        <time>2014-06-01T10:24:59Z</time>
      </trkpt>
      <trkpt lat="45.30858" lon="5.88469">
        <ele>978</ele>
        <time>2014-06-01T10:25:02Z</time>
      </trkpt>
      <trkpt lat="45.30868" lon="5.88493">
        <ele>978</ele>
        <time>2014-06-01T10:25:05Z</time>
      </trkpt>
      <trkpt lat="45.30883" lon="5.88525">
        <ele>973</ele>
        <time>2014-06-01T10:25:08Z</time>
      </trkpt>
      <trkpt lat="45.30893" lon="5.88548">
        <ele>972</ele>
        <time>2014-06-01T10:25:10Z</time>
      </trkpt>
      <trkpt lat="45.30906" lon="5.88579">
        <ele>972</ele>
        <time>2014-06-01T10:25:13Z</time>
      </trkpt>
      <trkpt lat="45.30918" lon="5.88607">
        <ele>973</ele>
        <time>2014-06-01T10:25:16Z</time>
      </trkpt>
      <trkpt lat="45.3093" lon="5.88639">
        <ele>971</ele>
        <time>2014-06-01T10:25:19Z</time>
      </trkpt>
      <trkpt lat="45.30942" lon="5.88665">
        <ele>971</ele>
        <time>2014-06-01T10:25:22Z</time>
      </trkpt>
      <trkpt lat="45.30957" lon="5.88684">
        <ele>968</ele>
        <time>2014-06-01T10:25:27Z</time>
      </trkpt>
      <trkpt lat="45.30969" lon="5.88707">
        <ele>968</ele>
        <time>2014-06-01T10:25:33Z</time>
      </trkpt>
      <trkpt lat="45.30973" lon="5.88733">
        <ele>967</ele>
        <time>2014-06-01T10:25:39Z</time>
      </trkpt>
      <trkpt lat="45.30978" lon="5.88759">
        <ele>965</ele>
        <time>2014-06-01T10:25:44Z</time>
      </trkpt>
      <trkpt lat="45.30986" lon="5.88782">
        <ele>965</ele>
        <time>2014-06-01T10:25:49Z</time>
      </trkpt>
      <trkpt lat="45.31002" lon="5.888">
        <ele>967</ele>
        <time>2014-06-01T10:25:56Z</time>
      </trkpt>
      <trkpt lat="45.31017" lon="5.88815">
        <ele>967</ele>
        <time>2014-06-01T10:26:04Z</time>
      </trkpt>
      <trkpt lat="45.31028" lon="5.88839">
        <ele>966</ele>
        <time>2014-06-01T10:26:11Z</time>
      </trkpt>
      <trkpt lat="45.31036" lon="5.88866">
        <ele>966</ele>
        <time>2014-06-01T10:26:17Z</time>
      </trkpt>
      <trkpt lat="45.3104" lon="5.88893">
        <ele>966</ele>
        <time>2014-06-01T10:26:22Z</time>
      </trkpt>
      <trkpt lat="45.31045" lon="5.88919">
        <ele>963</ele>
        <time>2014-06-01T10:26:27Z</time>
      </trkpt>
      <trkpt lat="45.31053" lon="5.88944">
        <ele>963</ele>
        <time>2014-06-01T10:26:34Z</time>
      </trkpt>
      <trkpt lat="45.31063" lon="5.88967">
        <ele>963</ele>
        <time>2014-06-01T10:26:41Z</time>
      </trkpt>
      <trkpt lat="45.31073" lon="5.88989">
        <ele>965</ele>
        <time>2014-06-01T10:26:50Z</time>
      </trkpt>
      <trkpt lat="45.31085" lon="5.8901">
        <ele>966</ele>
        <time>2014-06-01T10:27:44Z</time>
      </trkpt>
      <trkpt lat="45.31093" lon="5.89036">
        <ele>964</ele>
        <time>2014-06-01T10:27:49Z</time>
      </trkpt>
      <trkpt lat="45.31101" lon="5.89059">
        <ele>964</ele>
        <time>2014-06-01T10:27:54Z</time>
      </trkpt>
      <trkpt lat="45.31106" lon="5.89086">
        <ele>964</ele>
        <time>2014-06-01T10:28:01Z</time>
      </trkpt>
      <trkpt lat="45.31108" lon="5.89118">
        <ele>963</ele>
        <time>2014-06-01T10:28:09Z</time>
      </trkpt>
      <trkpt lat="45.31106" lon="5.89146">
        <ele>963</ele>
        <time>2014-06-01T10:28:13Z</time>
      </trkpt>
      <trkpt lat="45.31109" lon="5.89173">
        <ele>961</ele>
        <time>2014-06-01T10:28:18Z</time>
      </trkpt>
      <trkpt lat="45.31107" lon="5.89204">
        <ele>960</ele>
        <time>2014-06-01T10:28:23Z</time>
      </trkpt>
      <trkpt lat="45.31097" lon="5.89226">
        <ele>958</ele>
        <time>2014-06-01T10:28:26Z</time>
      </trkpt>
      <trkpt lat="45.31087" lon="5.89253">
        <ele>954</ele>
        <time>2014-06-01T10:28:30Z</time>
      </trkpt>
      <trkpt lat="45.31086" lon="5.89279">
        <ele>957</ele>
        <time>2014-06-01T10:28:37Z</time>
      </trkpt>
      <trkpt lat="45.31089" lon="5.89306">
        <ele>958</ele>
        <time>2014-06-01T10:28:45Z</time>
      </trkpt>
      <trkpt lat="45.31092" lon="5.89332">
        <ele>957</ele>
        <time>2014-06-01T10:28:54Z</time>
      </trkpt>
      <trkpt lat="45.3109" lon="5.89358">
        <ele>960</ele>
        <time>2014-06-01T10:29:02Z</time>
      </trkpt>
      <trkpt lat="45.3109" lon="5.89384">
        <ele>961</ele>
        <time>2014-06-01T10:29:10Z</time>
      </trkpt>
      <trkpt lat="45.3109" lon="5.89411">
        <ele>961</ele>
        <time>2014-06-01T10:29:18Z</time>
      </trkpt>
      <trkpt lat="45.31092" lon="5.89439">
        <ele>963</ele>
        <time>2014-06-01T10:29:28Z</time>
      </trkpt>
      <trkpt lat="45.31092" lon="5.89466">
        <ele>963</ele>
        <time>2014-06-01T10:29:37Z</time>
      </trkpt>
      <trkpt lat="45.31092" lon="5.89495">
        <ele>962</ele>
        <time>2014-06-01T10:29:45Z</time>
      </trkpt>
      <trkpt lat="45.31092" lon="5.89524">
        <ele>962</ele>
        <time>2014-06-01T10:29:51Z</time>
      </trkpt>
      <trkpt lat="45.3109" lon="5.89552">
        <ele>962</ele>
        <time>2014-06-01T10:29:56Z</time>
      </trkpt>
      <trkpt lat="45.31088" lon="5.89582">
        <ele>959</ele>
        <time>2014-06-01T10:30:01Z</time>
      </trkpt>
      <trkpt lat="45.31098" lon="5.89605">
        <ele>957</ele>
        <time>2014-06-01T10:30:05Z</time>
      </trkpt>
      <trkpt lat="45.31114" lon="5.89627">
        <ele>957</ele>
        <time>2014-06-01T10:30:09Z</time>
      </trkpt>
      <trkpt lat="45.31124" lon="5.89657">
        <ele>956</ele>
        <time>2014-06-01T10:30:12Z</time>
      </trkpt>
      <trkpt lat="45.31131" lon="5.89682">
        <ele>952</ele>
        <time>2014-06-01T10:30:15Z</time>
      </trkpt>
      <trkpt lat="45.31139" lon="5.89711">
        <ele>952</ele>
        <time>2014-06-01T10:30:21Z</time>
      </trkpt>
      <trkpt lat="45.31148" lon="5.89738">
        <ele>954</ele>
        <time>2014-06-01T10:30:26Z</time>
      </trkpt>
      <trkpt lat="45.31161" lon="5.89765">
        <ele>954</ele>
        <time>2014-06-01T10:30:31Z</time>
      </trkpt>
      <trkpt lat="45.3117" lon="5.89788">
        <ele>961</ele>
        <time>2014-06-01T10:30:35Z</time>
      </trkpt>
      <trkpt lat="45.3118" lon="5.89813">
        <ele>961</ele>
        <time>2014-06-01T10:30:40Z</time>
      </trkpt>
      <trkpt lat="45.31188" lon="5.89841">
        <ele>961</ele>
        <time>2014-06-01T10:30:46Z</time>
      </trkpt>
      <trkpt lat="45.31194" lon="5.89865">
        <ele>961</ele>
        <time>2014-06-01T10:30:52Z</time>
      </trkpt>
      <trkpt lat="45.312" lon="5.89891">
        <ele>961</ele>
        <time>2014-06-01T10:30:59Z</time>
      </trkpt>
      <trkpt lat="45.31206" lon="5.89918">
        <ele>960</ele>
        <time>2014-06-01T10:31:07Z</time>
      </trkpt>
      <trkpt lat="45.31216" lon="5.89943">
        <ele>962</ele>
        <time>2014-06-01T10:31:14Z</time>
      </trkpt>
      <trkpt lat="45.31223" lon="5.89968">
        <ele>962</ele>
        <time>2014-06-01T10:31:19Z</time>
      </trkpt>
      <trkpt lat="45.31228" lon="5.89993">
        <ele>964</ele>
        <time>2014-06-01T10:31:23Z</time>
      </trkpt>
      <trkpt lat="45.31236" lon="5.90017">
        <ele>961</ele>
        <time>2014-06-01T10:31:29Z</time>
      </trkpt>
      <trkpt lat="45.31248" lon="5.90037">
        <ele>959</ele>
        <time>2014-06-01T10:31:38Z</time>
      </trkpt>
      <trkpt lat="45.31262" lon="5.90055">
        <ele>963</ele>
        <time>2014-06-01T10:31:53Z</time>
      </trkpt>
      <trkpt lat="45.31277" lon="5.90069">
        <ele>963</ele>
        <time>2014-06-01T10:32:20Z</time>
      </trkpt>
      <trkpt lat="45.31295" lon="5.90084">
        <ele>952</ele>
        <time>2014-06-01T10:32:31Z</time>
      </trkpt>
      <trkpt lat="45.31311" lon="5.90099">
        <ele>953</ele>
        <time>2014-06-01T10:32:40Z</time>
      </trkpt>
      <trkpt lat="45.31329" lon="5.90112">
        <ele>953</ele>
        <time>2014-06-01T10:32:48Z</time>
      </trkpt>
      <trkpt lat="45.31345" lon="5.90127">
        <ele>959</ele>
        <time>2014-06-01T10:32:55Z</time>
      </trkpt>
      <trkpt lat="45.31366" lon="5.9015">
        <ele>957</ele>
        <time>2014-06-01T10:33:06Z</time>
      </trkpt>
      <trkpt lat="45.31377" lon="5.90185">
        <ele>933</ele>
        <time>2014-06-01T10:33:14Z</time>
      </trkpt>
      <trkpt lat="45.31389" lon="5.90206">
        <ele>929</ele>
        <time>2014-06-01T10:33:20Z</time>
      </trkpt>
      <trkpt lat="45.314" lon="5.90228">
        <ele>930</ele>
        <time>2014-06-01T10:33:28Z</time>
      </trkpt>
      <trkpt lat="45.31414" lon="5.90244">
        <ele>942</ele>
        <time>2014-06-01T10:33:36Z</time>
      </trkpt>
      <trkpt lat="45.31429" lon="5.90261">
        <ele>925</ele>
        <time>2014-06-01T10:33:45Z</time>
      </trkpt>
      <trkpt lat="45.31449" lon="5.90268">
        <ele>916</ele>
        <time>2014-06-01T10:33:53Z</time>
      </trkpt>
      <trkpt lat="45.31471" lon="5.90259">
        <ele>923</ele>
        <time>2014-06-01T10:34:03Z</time>
      </trkpt>
      <trkpt lat="45.31489" lon="5.90253">
        <ele>936</ele>
        <time>2014-06-01T10:34:29Z</time>
      </trkpt>
      <trkpt lat="45.31508" lon="5.90258">
        <ele>943</ele>
        <time>2014-06-01T10:34:38Z</time>
      </trkpt>
      <trkpt lat="45.31528" lon="5.9026">
        <ele>937</ele>
        <time>2014-06-01T10:34:47Z</time>
      </trkpt>
      <trkpt lat="45.31546" lon="5.90261">
        <ele>934</ele>
        <time>2014-06-01T10:34:56Z</time>
      </trkpt>
      <trkpt lat="45.31564" lon="5.9025">
        <ele>933</ele>
        <time>2014-06-01T10:35:15Z</time>
      </trkpt>
      <trkpt lat="45.31581" lon="5.90263">
        <ele>933</ele>
        <time>2014-06-01T10:35:26Z</time>
      </trkpt>
      <trkpt lat="45.31598" lon="5.90279">
        <ele>926</ele>
        <time>2014-06-01T10:35:31Z</time>
      </trkpt>
      <trkpt lat="45.31616" lon="5.9028">
        <ele>924</ele>
        <time>2014-06-01T10:35:35Z</time>
      </trkpt>
      <trkpt lat="45.31633" lon="5.90294">
        <ele>923</ele>
        <time>2014-06-01T10:36:27Z</time>
      </trkpt>
      <trkpt lat="45.31645" lon="5.90314">
        <ele>923</ele>
        <time>2014-06-01T10:36:37Z</time>
      </trkpt>
      <trkpt lat="45.31653" lon="5.90337">
        <ele>917</ele>
        <time>2014-06-01T10:36:47Z</time>
      </trkpt>
      <trkpt lat="45.31659" lon="5.90361">
        <ele>914</ele>
        <time>2014-06-01T10:36:58Z</time>
      </trkpt>
      <trkpt lat="45.31662" lon="5.90389">
        <ele>911</ele>
        <time>2014-06-01T10:37:09Z</time>
      </trkpt>
      <trkpt lat="45.31666" lon="5.9042">
        <ele>910</ele>
        <time>2014-06-01T10:37:14Z</time>
      </trkpt>
      <trkpt lat="45.3167" lon="5.90451">
        <ele>915</ele>
        <time>2014-06-01T10:37:19Z</time>
      </trkpt>
      <trkpt lat="45.31672" lon="5.90478">
        <ele>913</ele>
        <time>2014-06-01T10:37:23Z</time>
      </trkpt>
      <trkpt lat="45.31675" lon="5.90506">
        <ele>902</ele>
        <time>2014-06-01T10:37:27Z</time>
      </trkpt>
      <trkpt lat="45.31693" lon="5.90523">
        <ele>893</ele>
        <time>2014-06-01T10:37:33Z</time>
      </trkpt>
      <trkpt lat="45.31713" lon="5.90518">
        <ele>897</ele>
        <time>2014-06-01T10:37:38Z</time>
      </trkpt>
      <trkpt lat="45.3173" lon="5.90502">
        <ele>905</ele>
        <time>2014-06-01T10:37:44Z</time>
      </trkpt>
      <trkpt lat="45.31748" lon="5.90495">
        <ele>918</ele>
        <time>2014-06-01T10:37:50Z</time>
      </trkpt>
      <trkpt lat="45.31767" lon="5.90501">
        <ele>908</ele>
        <time>2014-06-01T10:37:57Z</time>
      </trkpt>
      <trkpt lat="45.31786" lon="5.90507">
        <ele>900</ele>
        <time>2014-06-01T10:38:03Z</time>
      </trkpt>
      <trkpt lat="45.31806" lon="5.90495">
        <ele>905</ele>
        <time>2014-06-01T10:38:08Z</time>
      </trkpt>
      <trkpt lat="45.31824" lon="5.90484">
        <ele>902</ele>
        <time>2014-06-01T10:38:13Z</time>
      </trkpt>
      <trkpt lat="45.31836" lon="5.9046">
        <ele>888</ele>
        <time>2014-06-01T10:38:18Z</time>
      </trkpt>
      <trkpt lat="45.31829" lon="5.9043">
        <ele>902</ele>
        <time>2014-06-01T10:38:53Z</time>
      </trkpt>
      <trkpt lat="45.31819" lon="5.90406">
        <ele>901</ele>
        <time>2014-06-01T10:38:58Z</time>
      </trkpt>
      <trkpt lat="45.3181" lon="5.90382">
        <ele>903</ele>
        <time>2014-06-01T10:39:05Z</time>
      </trkpt>
      <trkpt lat="45.31799" lon="5.90361">
        <ele>904</ele>
        <time>2014-06-01T10:39:10Z</time>
      </trkpt>
      <trkpt lat="45.31791" lon="5.90337">
        <ele>904</ele>
        <time>2014-06-01T10:39:20Z</time>
      </trkpt>
      <trkpt lat="45.31785" lon="5.90309">
        <ele>900</ele>
        <time>2014-06-01T10:39:30Z</time>
      </trkpt>
      <trkpt lat="45.31775" lon="5.90286">
        <ele>900</ele>
        <time>2014-06-01T10:39:35Z</time>
      </trkpt>
      <trkpt lat="45.31766" lon="5.90261">
        <ele>900</ele>
        <time>2014-06-01T10:39:43Z</time>
      </trkpt>
      <trkpt lat="45.3176" lon="5.90234">
        <ele>898</ele>
        <time>2014-06-01T10:39:51Z</time>
      </trkpt>
      <trkpt lat="45.31752" lon="5.90211">
        <ele>897</ele>
        <time>2014-06-01T10:39:57Z</time>
      </trkpt>
      <trkpt lat="45.31743" lon="5.90187">
        <ele>907</ele>
        <time>2014-06-01T10:40:04Z</time>
      </trkpt>
      <trkpt lat="45.31733" lon="5.90162">
        <ele>906</ele>
        <time>2014-06-01T10:40:12Z</time>
      </trkpt>
      <trkpt lat="45.31729" lon="5.90137">
        <ele>907</ele>
        <time>2014-06-01T10:40:16Z</time>
      </trkpt>
      <trkpt lat="45.31726" lon="5.90108">
        <ele>907</ele>
        <time>2014-06-01T10:40:19Z</time>
      </trkpt>
      <trkpt lat="45.31718" lon="5.90083">
        <ele>907</ele>
        <time>2014-06-01T10:40:23Z</time>
      </trkpt>
      <trkpt lat="45.31705" lon="5.9006">
        <ele>904</ele>
        <time>2014-06-01T10:40:29Z</time>
      </trkpt>
      <trkpt lat="45.31693" lon="5.90039">
        <ele>903</ele>
        <time>2014-06-01T10:40:33Z</time>
      </trkpt>
      <trkpt lat="45.31682" lon="5.90016">
        <ele>902</ele>
        <time>2014-06-01T10:40:36Z</time>
      </trkpt>
      <trkpt lat="45.31667" lon="5.8999">
        <ele>899</ele>
        <time>2014-06-01T10:40:40Z</time>
      </trkpt>
      <trkpt lat="45.31654" lon="5.89967">
        <ele>905</ele>
        <time>2014-06-01T10:40:44Z</time>
      </trkpt>
      <trkpt lat="45.31639" lon="5.89945">
        <ele>905</ele>
        <time>2014-06-01T10:40:49Z</time>
      </trkpt>
      <trkpt lat="45.31625" lon="5.89927">
        <ele>906</ele>
        <time>2014-06-01T10:40:55Z</time>
      </trkpt>
      <trkpt lat="45.31624" lon="5.89899">
        <ele>907</ele>
        <time>2014-06-01T10:41:09Z</time>
      </trkpt>
      <trkpt lat="45.31624" lon="5.89873">
        <ele>907</ele>
        <time>2014-06-01T10:41:13Z</time>
      </trkpt>
      <trkpt lat="45.3162" lon="5.89844">
        <ele>909</ele>
        <time>2014-06-01T10:41:19Z</time>
      </trkpt>
      <trkpt lat="45.31611" lon="5.89821">
        <ele>915</ele>
        <time>2014-06-01T10:41:25Z</time>
      </trkpt>
      <trkpt lat="45.31607" lon="5.89796">
        <ele>915</ele>
        <time>2014-06-01T10:41:30Z</time>
      </trkpt>
      <trkpt lat="45.31616" lon="5.89772">
        <ele>916</ele>
        <time>2014-06-01T10:41:35Z</time>
      </trkpt>
      <trkpt lat="45.31626" lon="5.89748">
        <ele>921</ele>
        <time>2014-06-01T10:41:41Z</time>
      </trkpt>
      <trkpt lat="45.31635" lon="5.89726">
        <ele>921</ele>
        <time>2014-06-01T10:41:47Z</time>
      </trkpt>
      <trkpt lat="45.31647" lon="5.89699">
        <ele>921</ele>
        <time>2014-06-01T10:41:52Z</time>
      </trkpt>
      <trkpt lat="45.31658" lon="5.89673">
        <ele>918</ele>
        <time>2014-06-01T10:41:57Z</time>
      </trkpt>
      <trkpt lat="45.31669" lon="5.89652">
        <ele>914</ele>
        <time>2014-06-01T10:42:05Z</time>
      </trkpt>
      <trkpt lat="45.31679" lon="5.89628">
        <ele>913</ele>
        <time>2014-06-01T10:42:13Z</time>
      </trkpt>
      <trkpt lat="45.31689" lon="5.89605">
        <ele>914</ele>
        <time>2014-06-01T10:42:27Z</time>
      </trkpt>
      <trkpt lat="45.31693" lon="5.89579">
        <ele>917</ele>
        <time>2014-06-01T10:42:36Z</time>
      </trkpt>
      <trkpt lat="45.31693" lon="5.89554">
        <ele>915</ele>
        <time>2014-06-01T10:42:48Z</time>
      </trkpt>
      <trkpt lat="45.31684" lon="5.8953">
        <ele>917</ele>
        <time>2014-06-01T10:42:58Z</time>
      </trkpt>
      <trkpt lat="45.31674" lon="5.89508">
        <ele>922</ele>
        <time>2014-06-01T10:43:07Z</time>
      </trkpt>
      <trkpt lat="45.31665" lon="5.89483">
        <ele>928</ele>
        <time>2014-06-01T10:43:15Z</time>
      </trkpt>
      <trkpt lat="45.31654" lon="5.8946">
        <ele>928</ele>
        <time>2014-06-01T10:43:22Z</time>
      </trkpt>
      <trkpt lat="45.31641" lon="5.89437">
        <ele>927</ele>
        <time>2014-06-01T10:43:29Z</time>
      </trkpt>
      <trkpt lat="45.31632" lon="5.89414">
        <ele>921</ele>
        <time>2014-06-01T10:43:36Z</time>
      </trkpt>
      <trkpt lat="45.31621" lon="5.89393">
        <ele>923</ele>
        <time>2014-06-01T10:43:42Z</time>
      </trkpt>
      <trkpt lat="45.31611" lon="5.89367">
        <ele>923</ele>
        <time>2014-06-01T10:43:48Z</time>
      </trkpt>
      <trkpt lat="45.31606" lon="5.89342">
        <ele>923</ele>
        <time>2014-06-01T10:43:54Z</time>
      </trkpt>
      <trkpt lat="45.31612" lon="5.89316">
        <ele>920</ele>
        <time>2014-06-01T10:44:01Z</time>
      </trkpt>
      <trkpt lat="45.3162" lon="5.89293">
        <ele>918</ele>
        <time>2014-06-01T10:44:10Z</time>
      </trkpt>
      <trkpt lat="45.31618" lon="5.89266">
        <ele>919</ele>
        <time>2014-06-01T10:44:21Z</time>
      </trkpt>
      <trkpt lat="45.31611" lon="5.8924">
        <ele>920</ele>
        <time>2014-06-01T10:44:31Z</time>
      </trkpt>
      <trkpt lat="45.31629" lon="5.89253">
        <ele>918</ele>
        <time>2014-06-01T10:44:43Z</time>
      </trkpt>
      <trkpt lat="45.31648" lon="5.89256">
        <ele>916</ele>
        <time>2014-06-01T10:44:47Z</time>
      </trkpt>
      <trkpt lat="45.31661" lon="5.89236">
        <ele>916</ele>
        <time>2014-06-01T10:44:50Z</time>
      </trkpt>
      <trkpt lat="45.31656" lon="5.89207">
        <ele>918</ele>
        <time>2014-06-01T10:44:54Z</time>
      </trkpt>
      <trkpt lat="45.31647" lon="5.89178">
        <ele>919</ele>
        <time>2014-06-01T10:44:59Z</time>
      </trkpt>
      <trkpt lat="45.31632" lon="5.89155">
        <ele>920</ele>
        <time>2014-06-01T10:45:04Z</time>
      </trkpt>
      <trkpt lat="45.31634" lon="5.89126">
        <ele>920</ele>
        <time>2014-06-01T10:45:13Z</time>
      </trkpt>
      <trkpt lat="45.31639" lon="5.89099">
        <ele>920</ele>
        <time>2014-06-01T10:45:24Z</time>
      </trkpt>
      <trkpt lat="45.31646" lon="5.89075">
        <ele>924</ele>
        <time>2014-06-01T10:45:31Z</time>
      </trkpt>
      <trkpt lat="45.31651" lon="5.89047">
        <ele>926</ele>
        <time>2014-06-01T10:45:41Z</time>
      </trkpt>
      <trkpt lat="45.31646" lon="5.89022">
        <ele>928</ele>
        <time>2014-06-01T10:46:21Z</time>
      </trkpt>
      <trkpt lat="45.31637" lon="5.88996">
        <ele>935</ele>
        <time>2014-06-01T10:47:03Z</time>
      </trkpt>
      <trkpt lat="45.31632" lon="5.88971">
        <ele>936</ele>
        <time>2014-06-01T10:47:22Z</time>
      </trkpt>
      <trkpt lat="45.31629" lon="5.88945">
        <ele>938</ele>
        <time>2014-06-01T10:47:32Z</time>
      </trkpt>
      <trkpt lat="45.3163" lon="5.88919">
        <ele>939</ele>
        <time>2014-06-01T10:48:10Z</time>
      </trkpt>
      <trkpt lat="45.31631" lon="5.88893">
        <ele>945</ele>
        <time>2014-06-01T10:48:19Z</time>
      </trkpt>
      <trkpt lat="45.31626" lon="5.88868">
        <ele>946</ele>
        <time>2014-06-01T10:48:36Z</time>
      </trkpt>
      <trkpt lat="45.31623" lon="5.88842">
        <ele>947</ele>
        <time>2014-06-01T10:48:57Z</time>
      </trkpt>
      <trkpt lat="45.31618" lon="5.88817">
        <ele>953</ele>
        <time>2014-06-01T10:49:17Z</time>
      </trkpt>
      <trkpt lat="45.31633" lon="5.88801">
        <ele>953</ele>
        <time>2014-06-01T10:49:33Z</time>
      </trkpt>
      <trkpt lat="45.31652" lon="5.888">
        <ele>953</ele>
        <time>2014-06-01T10:49:38Z</time>
      </trkpt>
      <trkpt lat="45.3167" lon="5.88811">
        <ele>952</ele>
        <time>2014-06-01T10:49:44Z</time>
      </trkpt>
      <trkpt lat="45.31688" lon="5.88823">
        <ele>952</ele>
        <time>2014-06-01T10:49:51Z</time>
      </trkpt>
      <trkpt lat="45.31707" lon="5.88837">
        <ele>946</ele>
        <time>2014-06-01T10:49:57Z</time>
      </trkpt>
      <trkpt lat="45.31723" lon="5.88849">
        <ele>946</ele>
        <time>2014-06-01T10:50:02Z</time>
      </trkpt>
      <trkpt lat="45.31742" lon="5.88852">
        <ele>947</ele>
        <time>2014-06-01T10:50:08Z</time>
      </trkpt>
      <trkpt lat="45.3176" lon="5.88858">
        <ele>948</ele>
        <time>2014-06-01T10:50:12Z</time>
      </trkpt>
      <trkpt lat="45.31776" lon="5.88874">
        <ele>948</ele>
        <time>2014-06-01T10:50:16Z</time>
      </trkpt>
      <trkpt lat="45.31793" lon="5.88884">
        <ele>948</ele>
        <time>2014-06-01T10:50:19Z</time>
      </trkpt>
      <trkpt lat="45.31811" lon="5.88894">
        <ele>948</ele>
        <time>2014-06-01T10:50:23Z</time>
      </trkpt>
      <trkpt lat="45.31831" lon="5.88905">
        <ele>948</ele>
        <time>2014-06-01T10:50:27Z</time>
      </trkpt>
      <trkpt lat="45.31852" lon="5.88915">
        <ele>952</ele>
        <time>2014-06-01T10:50:32Z</time>
      </trkpt>
      <trkpt lat="45.31869" lon="5.88931">
        <ele>949</ele>
        <time>2014-06-01T10:50:36Z</time>
      </trkpt>
      <trkpt lat="45.31884" lon="5.88955">
        <ele>949</ele>
        <time>2014-06-01T10:50:40Z</time>
      </trkpt>
      <trkpt lat="45.31897" lon="5.88982">
        <ele>949</ele>
        <time>2014-06-01T10:50:44Z</time>
      </trkpt>
      <trkpt lat="45.31906" lon="5.89007">
        <ele>948</ele>
        <time>2014-06-01T10:50:48Z</time>
      </trkpt>
      <trkpt lat="45.31913" lon="5.89036">
        <ele>946</ele>
        <time>2014-06-01T10:50:52Z</time>
      </trkpt>
      <trkpt lat="45.31919" lon="5.89063">
        <ele>953</ele>
        <time>2014-06-01T10:50:57Z</time>
      </trkpt>
      <trkpt lat="45.31926" lon="5.89088">
        <ele>950</ele>
        <time>2014-06-01T10:51:05Z</time>
      </trkpt>
      <trkpt lat="45.31944" lon="5.89101">
        <ele>951</ele>
        <time>2014-06-01T10:51:14Z</time>
      </trkpt>
      <trkpt lat="45.31955" lon="5.8912">
        <ele>950</ele>
        <time>2014-06-01T10:53:51Z</time>
      </trkpt>
      <trkpt lat="45.31927" lon="5.89136">
        <ele>948</ele>
        <time>2014-06-01T10:57:22Z</time>
      </trkpt>
      <trkpt lat="45.31932" lon="5.89102">
        <ele>950</ele>
        <time>2014-06-01T10:57:24Z</time>
      </trkpt>
      <trkpt lat="45.3195" lon="5.89059">
        <ele>955</ele>
        <time>2014-06-01T10:59:57Z</time>
      </trkpt>
      <trkpt lat="45.31941" lon="5.89082">
        <ele>954</ele>
        <time>2014-06-01T11:01:57Z</time>
      </trkpt>
      <trkpt lat="45.31937" lon="5.89109">
        <ele>950</ele>
        <time>2014-06-01T11:02:23Z</time>
      </trkpt>
      <trkpt lat="45.31951" lon="5.89092">
        <ele>951</ele>
        <time>2014-06-01T11:07:09Z</time>
      </trkpt>
      <trkpt lat="45.31969" lon="5.89088">
        <ele>952</ele>
        <time>2014-06-01T11:07:25Z</time>
      </trkpt>
      <trkpt lat="45.31953" lon="5.89102">
        <ele>951</ele>
        <time>2014-06-01T11:09:04Z</time>
      </trkpt>
      <trkpt lat="45.31937" lon="5.89089">
        <ele>950</ele>
        <time>2014-06-01T11:13:25Z</time>
      </trkpt>
      <trkpt lat="45.31956" lon="5.89094">
        <ele>951</ele>
        <time>2014-06-01T11:14:04Z</time>
      </trkpt>
      <trkpt lat="45.31975" lon="5.89099">
        <ele>953</ele>
        <time>2014-06-01T11:14:17Z</time>
      </trkpt>
      <trkpt lat="45.31958" lon="5.89112">
        <ele>951</ele>
        <time>2014-06-01T11:14:36Z</time>
      </trkpt>
      <trkpt lat="45.31974" lon="5.89096">
        <ele>953</ele>
        <time>2014-06-01T11:16:47Z</time>
      </trkpt>
      <trkpt lat="45.31993" lon="5.89093">
        <ele>955</ele>
        <time>2014-06-01T11:16:56Z</time>
      </trkpt>
      <trkpt lat="45.3201" lon="5.89084">
        <ele>959</ele>
        <time>2014-06-01T11:17:06Z</time>
      </trkpt>
      <trkpt lat="45.32027" lon="5.89096">
        <ele>960</ele>
        <time>2014-06-01T11:17:20Z</time>
      </trkpt>
      <trkpt lat="45.32044" lon="5.89107">
        <ele>961</ele>
        <time>2014-06-01T11:17:32Z</time>
      </trkpt>
      <trkpt lat="45.3206" lon="5.89121">
        <ele>962</ele>
        <time>2014-06-01T11:17:43Z</time>
      </trkpt>
      <trkpt lat="45.32079" lon="5.89127">
        <ele>962</ele>
        <time>2014-06-01T11:17:54Z</time>
      </trkpt>
      <trkpt lat="45.32175" lon="5.89238">
        <ele>965</ele>
        <time>2014-06-01T11:18:31Z</time>
      </trkpt>
      <trkpt lat="45.32193" lon="5.8926">
        <ele>958</ele>
        <time>2014-06-01T11:18:36Z</time>
      </trkpt>
      <trkpt lat="45.32207" lon="5.89278">
        <ele>958</ele>
        <time>2014-06-01T11:18:39Z</time>
      </trkpt>
      <trkpt lat="45.32225" lon="5.89292">
        <ele>959</ele>
        <time>2014-06-01T11:18:43Z</time>
      </trkpt>
      <trkpt lat="45.32239" lon="5.8931">
        <ele>958</ele>
        <time>2014-06-01T11:18:46Z</time>
      </trkpt>
      <trkpt lat="45.32254" lon="5.89329">
        <ele>961</ele>
        <time>2014-06-01T11:18:50Z</time>
      </trkpt>
      <trkpt lat="45.32269" lon="5.89351">
        <ele>955</ele>
        <time>2014-06-01T11:18:56Z</time>
      </trkpt>
      <trkpt lat="45.32285" lon="5.89382">
        <ele>952</ele>
        <time>2014-06-01T11:19:00Z</time>
      </trkpt>
      <trkpt lat="45.323" lon="5.89399">
        <ele>951</ele>
        <time>2014-06-01T11:19:04Z</time>
      </trkpt>
      <trkpt lat="45.32315" lon="5.89415">
        <ele>951</ele>
        <time>2014-06-01T11:19:10Z</time>
      </trkpt>
      <trkpt lat="45.32335" lon="5.89425">
        <ele>949</ele>
        <time>2014-06-01T11:19:18Z</time>
      </trkpt>
      <trkpt lat="45.3235" lon="5.89439">
        <ele>949</ele>
        <time>2014-06-01T11:19:22Z</time>
      </trkpt>
      <trkpt lat="45.32362" lon="5.89462">
        <ele>947</ele>
        <time>2014-06-01T11:19:27Z</time>
      </trkpt>
      <trkpt lat="45.32374" lon="5.89489">
        <ele>945</ele>
        <time>2014-06-01T11:19:33Z</time>
      </trkpt>
      <trkpt lat="45.32382" lon="5.89512">
        <ele>934</ele>
        <time>2014-06-01T11:19:39Z</time>
      </trkpt>
      <trkpt lat="45.324" lon="5.8953">
        <ele>935</ele>
        <time>2014-06-01T11:19:45Z</time>
      </trkpt>
      <trkpt lat="45.32413" lon="5.89548">
        <ele>933</ele>
        <time>2014-06-01T11:19:49Z</time>
      </trkpt>
      <trkpt lat="45.32424" lon="5.89574">
        <ele>936</ele>
        <time>2014-06-01T11:19:53Z</time>
      </trkpt>
      <trkpt lat="45.32427" lon="5.89605">
        <ele>932</ele>
        <time>2014-06-01T11:19:58Z</time>
      </trkpt>
      <trkpt lat="45.32433" lon="5.89633">
        <ele>931</ele>
        <time>2014-06-01T11:20:03Z</time>
      </trkpt>
      <trkpt lat="45.32443" lon="5.89658">
        <ele>930</ele>
        <time>2014-06-01T11:20:08Z</time>
      </trkpt>
      <trkpt lat="45.32456" lon="5.89683">
        <ele>927</ele>
        <time>2014-06-01T11:20:13Z</time>
      </trkpt>
      <trkpt lat="45.32467" lon="5.89707">
        <ele>927</ele>
        <time>2014-06-01T11:20:17Z</time>
      </trkpt>
      <trkpt lat="45.32478" lon="5.8973">
        <ele>926</ele>
        <time>2014-06-01T11:20:20Z</time>
      </trkpt>
      <trkpt lat="45.32489" lon="5.89753">
        <ele>923</ele>
        <time>2014-06-01T11:20:24Z</time>
      </trkpt>
      <trkpt lat="45.32503" lon="5.89774">
        <ele>924</ele>
        <time>2014-06-01T11:20:29Z</time>
      </trkpt>
      <trkpt lat="45.32519" lon="5.89796">
        <ele>923</ele>
        <time>2014-06-01T11:20:33Z</time>
      </trkpt>
      <trkpt lat="45.32533" lon="5.89813">
        <ele>922</ele>
        <time>2014-06-01T11:20:36Z</time>
      </trkpt>
      <trkpt lat="45.32546" lon="5.89833">
        <ele>922</ele>
        <time>2014-06-01T11:20:39Z</time>
      </trkpt>
      <trkpt lat="45.32563" lon="5.89855">
        <ele>917</ele>
        <time>2014-06-01T11:20:42Z</time>
      </trkpt>
      <trkpt lat="45.32578" lon="5.89874">
        <ele>917</ele>
        <time>2014-06-01T11:20:44Z</time>
      </trkpt>
      <trkpt lat="45.32593" lon="5.89893">
        <ele>919</ele>
        <time>2014-06-01T11:20:46Z</time>
      </trkpt>
      <trkpt lat="45.32612" lon="5.89917">
        <ele>917</ele>
        <time>2014-06-01T11:20:49Z</time>
      </trkpt>
      <trkpt lat="45.3263" lon="5.89943">
        <ele>917</ele>
        <time>2014-06-01T11:20:52Z</time>
      </trkpt>
      <trkpt lat="45.32646" lon="5.89967">
        <ele>917</ele>
        <time>2014-06-01T11:20:55Z</time>
      </trkpt>
      <trkpt lat="45.32661" lon="5.89989">
        <ele>917</ele>
        <time>2014-06-01T11:20:58Z</time>
      </trkpt>
      <trkpt lat="45.32675" lon="5.90011">
        <ele>919</ele>
        <time>2014-06-01T11:21:01Z</time>
      </trkpt>
      <trkpt lat="45.32689" lon="5.90034">
        <ele>920</ele>
        <time>2014-06-01T11:21:05Z</time>
      </trkpt>
      <trkpt lat="45.32701" lon="5.90055">
        <ele>920</ele>
        <time>2014-06-01T11:21:09Z</time>
      </trkpt>
      <trkpt lat="45.32716" lon="5.90079">
        <ele>921</ele>
        <time>2014-06-01T11:21:14Z</time>
      </trkpt>
      <trkpt lat="45.32731" lon="5.901">
        <ele>918</ele>
        <time>2014-06-01T11:21:19Z</time>
      </trkpt>
      <trkpt lat="45.32746" lon="5.90125">
        <ele>917</ele>
        <time>2014-06-01T11:21:24Z</time>
      </trkpt>
      <trkpt lat="45.32759" lon="5.90147">
        <ele>920</ele>
        <time>2014-06-01T11:21:28Z</time>
      </trkpt>
      <trkpt lat="45.32774" lon="5.90174">
        <ele>917</ele>
        <time>2014-06-01T11:21:32Z</time>
      </trkpt>
      <trkpt lat="45.32784" lon="5.90197">
        <ele>917</ele>
        <time>2014-06-01T11:21:36Z</time>
      </trkpt>
      <trkpt lat="45.32802" lon="5.90198">
        <ele>918</ele>
        <time>2014-06-01T11:21:43Z</time>
      </trkpt>
      <trkpt lat="45.32822" lon="5.90196">
        <ele>919</ele>
        <time>2014-06-01T11:21:53Z</time>
      </trkpt>
      <trkpt lat="45.32836" lon="5.90216">
        <ele>924</ele>
        <time>2014-06-01T11:22:00Z</time>
      </trkpt>
      <trkpt lat="45.32851" lon="5.90232">
        <ele>924</ele>
        <time>2014-06-01T11:22:06Z</time>
      </trkpt>
      <trkpt lat="45.32868" lon="5.90257">
        <ele>921</ele>
        <time>2014-06-01T11:22:12Z</time>
      </trkpt>
      <trkpt lat="45.32881" lon="5.90282">
        <ele>922</ele>
        <time>2014-06-01T11:22:16Z</time>
      </trkpt>
      <trkpt lat="45.32892" lon="5.90306">
        <ele>921</ele>
        <time>2014-06-01T11:22:21Z</time>
      </trkpt>
      <trkpt lat="45.32905" lon="5.90333">
        <ele>921</ele>
        <time>2014-06-01T11:22:26Z</time>
      </trkpt>
      <trkpt lat="45.32914" lon="5.90355">
        <ele>917</ele>
        <time>2014-06-01T11:22:30Z</time>
      </trkpt>
      <trkpt lat="45.32935" lon="5.90358">
        <ele>917</ele>
        <time>2014-06-01T11:22:34Z</time>
      </trkpt>
      <trkpt lat="45.32956" lon="5.90345">
        <ele>916</ele>
        <time>2014-06-01T11:22:38Z</time>
      </trkpt>
      <trkpt lat="45.32975" lon="5.90335">
        <ele>917</ele>
        <time>2014-06-01T11:22:41Z</time>
      </trkpt>
      <trkpt lat="45.32995" lon="5.90325">
        <ele>921</ele>
        <time>2014-06-01T11:22:45Z</time>
      </trkpt>
      <trkpt lat="45.33015" lon="5.90316">
        <ele>922</ele>
        <time>2014-06-01T11:22:49Z</time>
      </trkpt>
      <trkpt lat="45.33035" lon="5.90308">
        <ele>922</ele>
        <time>2014-06-01T11:22:53Z</time>
      </trkpt>
      <trkpt lat="45.33061" lon="5.90292">
        <ele>923</ele>
        <time>2014-06-01T11:23:02Z</time>
      </trkpt>
      <trkpt lat="45.33079" lon="5.90282">
        <ele>924</ele>
        <time>2014-06-01T11:23:06Z</time>
      </trkpt>
      <trkpt lat="45.331" lon="5.90282">
        <ele>924</ele>
        <time>2014-06-01T11:23:11Z</time>
      </trkpt>
      <trkpt lat="45.33122" lon="5.90278">
        <ele>924</ele>
        <time>2014-06-01T11:23:19Z</time>
      </trkpt>
      <trkpt lat="45.33147" lon="5.90268">
        <ele>926</ele>
        <time>2014-06-01T11:23:30Z</time>
      </trkpt>
      <trkpt lat="45.3317" lon="5.90253">
        <ele>929</ele>
        <time>2014-06-01T11:23:41Z</time>
      </trkpt>
      <trkpt lat="45.33186" lon="5.90243">
        <ele>935</ele>
        <time>2014-06-01T11:23:49Z</time>
      </trkpt>
      <trkpt lat="45.33207" lon="5.9023">
        <ele>938</ele>
        <time>2014-06-01T11:24:01Z</time>
      </trkpt>
      <trkpt lat="45.3323" lon="5.90219">
        <ele>939</ele>
        <time>2014-06-01T11:24:14Z</time>
      </trkpt>
      <trkpt lat="45.3325" lon="5.90215">
        <ele>940</ele>
        <time>2014-06-01T11:24:26Z</time>
      </trkpt>
      <trkpt lat="45.33269" lon="5.90215">
        <ele>944</ele>
        <time>2014-06-01T11:24:36Z</time>
      </trkpt>
      <trkpt lat="45.33287" lon="5.90218">
        <ele>945</ele>
        <time>2014-06-01T11:24:46Z</time>
      </trkpt>
      <trkpt lat="45.33305" lon="5.90224">
        <ele>946</ele>
        <time>2014-06-01T11:24:56Z</time>
      </trkpt>
      <trkpt lat="45.33323" lon="5.90229">
        <ele>946</ele>
        <time>2014-06-01T11:25:04Z</time>
      </trkpt>
      <trkpt lat="45.33341" lon="5.90238">
        <ele>950</ele>
        <time>2014-06-01T11:25:14Z</time>
      </trkpt>
      <trkpt lat="45.33358" lon="5.90251">
        <ele>946</ele>
        <time>2014-06-01T11:25:24Z</time>
      </trkpt>
      <trkpt lat="45.33375" lon="5.90265">
        <ele>947</ele>
        <time>2014-06-01T11:25:34Z</time>
      </trkpt>
      <trkpt lat="45.33391" lon="5.90281">
        <ele>947</ele>
        <time>2014-06-01T11:25:45Z</time>
      </trkpt>
      <trkpt lat="45.3341" lon="5.90292">
        <ele>948</ele>
        <time>2014-06-01T11:25:56Z</time>
      </trkpt>
      <trkpt lat="45.3343" lon="5.90292">
        <ele>954</ele>
        <time>2014-06-01T11:26:08Z</time>
      </trkpt>
      <trkpt lat="45.33449" lon="5.90287">
        <ele>955</ele>
        <time>2014-06-01T11:26:18Z</time>
      </trkpt>
      <trkpt lat="45.33465" lon="5.90273">
        <ele>956</ele>
        <time>2014-06-01T11:26:28Z</time>
      </trkpt>
      <trkpt lat="45.33482" lon="5.90262">
        <ele>958</ele>
        <time>2014-06-01T11:26:38Z</time>
      </trkpt>
      <trkpt lat="45.33499" lon="5.90254">
        <ele>962</ele>
        <time>2014-06-01T11:26:48Z</time>
      </trkpt>
      <trkpt lat="45.33518" lon="5.90249">
        <ele>966</ele>
        <time>2014-06-01T11:26:59Z</time>
      </trkpt>
      <trkpt lat="45.33537" lon="5.90245">
        <ele>968</ele>
        <time>2014-06-01T11:27:10Z</time>
      </trkpt>
      <trkpt lat="45.33556" lon="5.90236">
        <ele>969</ele>
        <time>2014-06-01T11:27:20Z</time>
      </trkpt>
      <trkpt lat="45.33574" lon="5.90229">
        <ele>969</ele>
        <time>2014-06-01T11:27:28Z</time>
      </trkpt>
      <trkpt lat="45.33595" lon="5.90228">
        <ele>974</ele>
        <time>2014-06-01T11:27:40Z</time>
      </trkpt>
      <trkpt lat="45.33614" lon="5.9023">
        <ele>977</ele>
        <time>2014-06-01T11:27:48Z</time>
      </trkpt>
      <trkpt lat="45.33632" lon="5.90233">
        <ele>978</ele>
        <time>2014-06-01T11:27:57Z</time>
      </trkpt>
      <trkpt lat="45.3365" lon="5.90238">
        <ele>979</ele>
        <time>2014-06-01T11:28:06Z</time>
      </trkpt>
      <trkpt lat="45.33669" lon="5.90242">
        <ele>982</ele>
        <time>2014-06-01T11:28:16Z</time>
      </trkpt>
      <trkpt lat="45.33687" lon="5.90242">
        <ele>985</ele>
        <time>2014-06-01T11:28:27Z</time>
      </trkpt>
      <trkpt lat="45.33706" lon="5.90241">
        <ele>987</ele>
        <time>2014-06-01T11:28:38Z</time>
      </trkpt>
      <trkpt lat="45.33724" lon="5.90235">
        <ele>987</ele>
        <time>2014-06-01T11:28:49Z</time>
      </trkpt>
      <trkpt lat="45.33742" lon="5.90225">
        <ele>988</ele>
        <time>2014-06-01T11:29:00Z</time>
      </trkpt>
      <trkpt lat="45.3376" lon="5.90217">
        <ele>994</ele>
        <time>2014-06-01T11:29:12Z</time>
      </trkpt>
      <trkpt lat="45.33777" lon="5.90209">
        <ele>995</ele>
        <time>2014-06-01T11:29:20Z</time>
      </trkpt>
      <trkpt lat="45.33796" lon="5.90206">
        <ele>997</ele>
        <time>2014-06-01T11:29:27Z</time>
      </trkpt>
      <trkpt lat="45.33811" lon="5.90222">
        <ele>997</ele>
        <time>2014-06-01T11:29:36Z</time>
      </trkpt>
      <trkpt lat="45.33815" lon="5.90247">
        <ele>997</ele>
        <time>2014-06-01T11:29:45Z</time>
      </trkpt>
      <trkpt lat="45.33825" lon="5.9027">
        <ele>992</ele>
        <time>2014-06-01T11:29:53Z</time>
      </trkpt>
      <trkpt lat="45.33842" lon="5.90285">
        <ele>998</ele>
        <time>2014-06-01T11:30:01Z</time>
      </trkpt>
      <trkpt lat="45.3386" lon="5.90295">
        <ele>998</ele>
        <time>2014-06-01T11:30:10Z</time>
      </trkpt>
      <trkpt lat="45.33877" lon="5.90309">
        <ele>998</ele>
        <time>2014-06-01T11:30:18Z</time>
      </trkpt>
      <trkpt lat="45.33892" lon="5.90324">
        <ele>999</ele>
        <time>2014-06-01T11:30:25Z</time>
      </trkpt>
      <trkpt lat="45.33908" lon="5.90337">
        <ele>997</ele>
        <time>2014-06-01T11:30:30Z</time>
      </trkpt>
      <trkpt lat="45.33927" lon="5.90349">
        <ele>996</ele>
        <time>2014-06-01T11:30:36Z</time>
      </trkpt>
      <trkpt lat="45.33946" lon="5.90359">
        <ele>995</ele>
        <time>2014-06-01T11:30:41Z</time>
      </trkpt>
      <trkpt lat="45.33968" lon="5.90366">
        <ele>994</ele>
        <time>2014-06-01T11:30:46Z</time>
      </trkpt>
      <trkpt lat="45.33988" lon="5.90371">
        <ele>994</ele>
        <time>2014-06-01T11:30:51Z</time>
      </trkpt>
      <trkpt lat="45.34011" lon="5.90373">
        <ele>997</ele>
        <time>2014-06-01T11:30:56Z</time>
      </trkpt>
      <trkpt lat="45.34033" lon="5.90366">
        <ele>998</ele>
        <time>2014-06-01T11:31:00Z</time>
      </trkpt>
      <trkpt lat="45.34053" lon="5.90351">
        <ele>999</ele>
        <time>2014-06-01T11:31:04Z</time>
      </trkpt>
      <trkpt lat="45.34072" lon="5.90347">
        <ele>1001</ele>
        <time>2014-06-01T11:31:08Z</time>
      </trkpt>
      <trkpt lat="45.34084" lon="5.90367">
        <ele>1008</ele>
        <time>2014-06-01T11:31:12Z</time>
      </trkpt>
      <trkpt lat="45.34088" lon="5.90392">
        <ele>1005</ele>
        <time>2014-06-01T11:31:16Z</time>
      </trkpt>
      <trkpt lat="45.34091" lon="5.90421">
        <ele>996</ele>
        <time>2014-06-01T11:31:21Z</time>
      </trkpt>
      <trkpt lat="45.34103" lon="5.90443">
        <ele>997</ele>
        <time>2014-06-01T11:31:26Z</time>
      </trkpt>
      <trkpt lat="45.34119" lon="5.90457">
        <ele>997</ele>
        <time>2014-06-01T11:31:31Z</time>
      </trkpt>
      <trkpt lat="45.34136" lon="5.90469">
        <ele>998</ele>
        <time>2014-06-01T11:31:36Z</time>
      </trkpt>
      <trkpt lat="45.34152" lon="5.90482">
        <ele>999</ele>
        <time>2014-06-01T11:31:41Z</time>
      </trkpt>
      <trkpt lat="45.34168" lon="5.90495">
        <ele>1002</ele>
        <time>2014-06-01T11:31:46Z</time>
      </trkpt>
      <trkpt lat="45.34185" lon="5.90508">
        <ele>998</ele>
        <time>2014-06-01T11:31:53Z</time>
      </trkpt>
      <trkpt lat="45.34204" lon="5.90521">
        <ele>998</ele>
        <time>2014-06-01T11:31:59Z</time>
      </trkpt>
      <trkpt lat="45.34221" lon="5.90532">
        <ele>998</ele>
        <time>2014-06-01T11:32:04Z</time>
      </trkpt>
      <trkpt lat="45.34241" lon="5.90533">
        <ele>999</ele>
        <time>2014-06-01T11:32:10Z</time>
      </trkpt>
      <trkpt lat="45.3426" lon="5.90523">
        <ele>1006</ele>
        <time>2014-06-01T11:32:16Z</time>
      </trkpt>
      <trkpt lat="45.34275" lon="5.90506">
        <ele>1007</ele>
        <time>2014-06-01T11:32:23Z</time>
      </trkpt>
      <trkpt lat="45.34291" lon="5.90492">
        <ele>1017</ele>
        <time>2014-06-01T11:32:30Z</time>
      </trkpt>
      <trkpt lat="45.34312" lon="5.90494">
        <ele>1017</ele>
        <time>2014-06-01T11:32:37Z</time>
      </trkpt>
      <trkpt lat="45.3433" lon="5.90508">
        <ele>1011</ele>
        <time>2014-06-01T11:32:43Z</time>
      </trkpt>
      <trkpt lat="45.34346" lon="5.90526">
        <ele>1015</ele>
        <time>2014-06-01T11:32:51Z</time>
      </trkpt>
      <trkpt lat="45.34361" lon="5.90543">
        <ele>1015</ele>
        <time>2014-06-01T11:33:00Z</time>
      </trkpt>
      <trkpt lat="45.34378" lon="5.90556">
        <ele>1015</ele>
        <time>2014-06-01T11:33:09Z</time>
      </trkpt>
      <trkpt lat="45.34397" lon="5.90559">
        <ele>1016</ele>
        <time>2014-06-01T11:33:16Z</time>
      </trkpt>
      <trkpt lat="45.34416" lon="5.90554">
        <ele>1017</ele>
        <time>2014-06-01T11:33:21Z</time>
      </trkpt>
      <trkpt lat="45.34434" lon="5.90555">
        <ele>1025</ele>
        <time>2014-06-01T11:33:27Z</time>
      </trkpt>
      <trkpt lat="45.34451" lon="5.90565">
        <ele>1026</ele>
        <time>2014-06-01T11:33:32Z</time>
      </trkpt>
      <trkpt lat="45.34465" lon="5.90583">
        <ele>1019</ele>
        <time>2014-06-01T11:33:37Z</time>
      </trkpt>
      <trkpt lat="45.3448" lon="5.90603">
        <ele>1019</ele>
        <time>2014-06-01T11:33:42Z</time>
      </trkpt>
      <trkpt lat="45.34494" lon="5.90623">
        <ele>1017</ele>
        <time>2014-06-01T11:33:48Z</time>
      </trkpt>
      <trkpt lat="45.34509" lon="5.90639">
        <ele>1023</ele>
        <time>2014-06-01T11:33:54Z</time>
      </trkpt>
      <trkpt lat="45.34529" lon="5.90648">
        <ele>1024</ele>
        <time>2014-06-01T11:34:00Z</time>
      </trkpt>
      <trkpt lat="45.34551" lon="5.90652">
        <ele>1027</ele>
        <time>2014-06-01T11:34:07Z</time>
      </trkpt>
      <trkpt lat="45.34564" lon="5.90671">
        <ele>1023</ele>
        <time>2014-06-01T11:34:11Z</time>
      </trkpt>
      <trkpt lat="45.3457" lon="5.90699">
        <ele>1021</ele>
        <time>2014-06-01T11:34:16Z</time>
      </trkpt>
      <trkpt lat="45.3457" lon="5.90727">
        <ele>1019</ele>
        <time>2014-06-01T11:34:21Z</time>
      </trkpt>
      <trkpt lat="45.34561" lon="5.90755">
        <ele>1015</ele>
        <time>2014-06-01T11:34:26Z</time>
      </trkpt>
      <trkpt lat="45.34557" lon="5.90781">
        <ele>1012</ele>
        <time>2014-06-01T11:34:31Z</time>
      </trkpt>
      <trkpt lat="45.34565" lon="5.90805">
        <ele>1011</ele>
        <time>2014-06-01T11:34:37Z</time>
      </trkpt>
      <trkpt lat="45.34586" lon="5.90814">
        <ele>1020</ele>
        <time>2014-06-01T11:34:43Z</time>
      </trkpt>
      <trkpt lat="45.34605" lon="5.90824">
        <ele>1021</ele>
        <time>2014-06-01T11:34:48Z</time>
      </trkpt>
      <trkpt lat="45.34623" lon="5.90836">
        <ele>1015</ele>
        <time>2014-06-01T11:34:53Z</time>
      </trkpt>
      <trkpt lat="45.34645" lon="5.90847">
        <ele>1017</ele>
        <time>2014-06-01T11:34:58Z</time>
      </trkpt>
      <trkpt lat="45.34665" lon="5.90859">
        <ele>1017</ele>
        <time>2014-06-01T11:35:02Z</time>
      </trkpt>
      <trkpt lat="45.34681" lon="5.90869">
        <ele>1024</ele>
        <time>2014-06-01T11:35:05Z</time>
      </trkpt>
      <trkpt lat="45.34697" lon="5.90888">
        <ele>1024</ele>
        <time>2014-06-01T11:35:10Z</time>
      </trkpt>
      <trkpt lat="45.34709" lon="5.90911">
        <ele>1025</ele>
        <time>2014-06-01T11:35:15Z</time>
      </trkpt>
      <trkpt lat="45.3472" lon="5.90938">
        <ele>1021</ele>
        <time>2014-06-01T11:35:20Z</time>
      </trkpt>
      <trkpt lat="45.34728" lon="5.90968">
        <ele>1020</ele>
        <time>2014-06-01T11:35:25Z</time>
      </trkpt>
      <trkpt lat="45.34733" lon="5.90993">
        <ele>1021</ele>
        <time>2014-06-01T11:35:29Z</time>
      </trkpt>
      <trkpt lat="45.34738" lon="5.91024">
        <ele>1016</ele>
        <time>2014-06-01T11:35:34Z</time>
      </trkpt>
      <trkpt lat="45.34741" lon="5.91054">
        <ele>1014</ele>
        <time>2014-06-01T11:35:39Z</time>
      </trkpt>
      <trkpt lat="45.34746" lon="5.91079">
        <ele>1016</ele>
        <time>2014-06-01T11:35:43Z</time>
      </trkpt>
      <trkpt lat="45.34755" lon="5.91105">
        <ele>1020</ele>
        <time>2014-06-01T11:35:47Z</time>
      </trkpt>
      <trkpt lat="45.34762" lon="5.91129">
        <ele>1020</ele>
        <time>2014-06-01T11:35:50Z</time>
      </trkpt>
      <trkpt lat="45.3477" lon="5.91155">
        <ele>1018</ele>
        <time>2014-06-01T11:35:54Z</time>
      </trkpt>
      <trkpt lat="45.34783" lon="5.91173">
        <ele>1015</ele>
        <time>2014-06-01T11:36:02Z</time>
      </trkpt>
      <trkpt lat="45.34797" lon="5.91193">
        <ele>1017</ele>
        <time>2014-06-01T11:36:09Z</time>
      </trkpt>
      <trkpt lat="45.3481" lon="5.91215">
        <ele>1018</ele>
        <time>2014-06-01T11:36:16Z</time>
      </trkpt>
      <trkpt lat="45.34821" lon="5.91236">
        <ele>1019</ele>
        <time>2014-06-01T11:36:21Z</time>
      </trkpt>
      <trkpt lat="45.34833" lon="5.91256">
        <ele>1019</ele>
        <time>2014-06-01T11:36:27Z</time>
      </trkpt>
      <trkpt lat="45.3485" lon="5.91273">
        <ele>1024</ele>
        <time>2014-06-01T11:36:34Z</time>
      </trkpt>
      <trkpt lat="45.34865" lon="5.91291">
        <ele>1025</ele>
        <time>2014-06-01T11:36:42Z</time>
      </trkpt>
      <trkpt lat="45.34881" lon="5.91307">
        <ele>1025</ele>
        <time>2014-06-01T11:36:50Z</time>
      </trkpt>
      <trkpt lat="45.349" lon="5.91318">
        <ele>1026</ele>
        <time>2014-06-01T11:36:56Z</time>
      </trkpt>
      <trkpt lat="45.34917" lon="5.91325">
        <ele>1031</ele>
        <time>2014-06-01T11:37:03Z</time>
      </trkpt>
      <trkpt lat="45.34932" lon="5.9134">
        <ele>1028</ele>
        <time>2014-06-01T11:37:10Z</time>
      </trkpt>
      <trkpt lat="45.34949" lon="5.91356">
        <ele>1028</ele>
        <time>2014-06-01T11:37:18Z</time>
      </trkpt>
      <trkpt lat="45.34967" lon="5.91369">
        <ele>1029</ele>
        <time>2014-06-01T11:37:26Z</time>
      </trkpt>
      <trkpt lat="45.34986" lon="5.91379">
        <ele>1029</ele>
        <time>2014-06-01T11:37:34Z</time>
      </trkpt>
      <trkpt lat="45.35003" lon="5.91389">
        <ele>1036</ele>
        <time>2014-06-01T11:37:41Z</time>
      </trkpt>
      <trkpt lat="45.35021" lon="5.91403">
        <ele>1036</ele>
        <time>2014-06-01T11:37:48Z</time>
      </trkpt>
      <trkpt lat="45.35036" lon="5.91417">
        <ele>1031</ele>
        <time>2014-06-01T11:37:54Z</time>
      </trkpt>
      <trkpt lat="45.35052" lon="5.91435">
        <ele>1032</ele>
        <time>2014-06-01T11:38:00Z</time>
      </trkpt>
      <trkpt lat="45.35067" lon="5.91453">
        <ele>1032</ele>
        <time>2014-06-01T11:38:06Z</time>
      </trkpt>
      <trkpt lat="45.35082" lon="5.91469">
        <ele>1031</ele>
        <time>2014-06-01T11:38:12Z</time>
      </trkpt>
      <trkpt lat="45.35098" lon="5.91481">
        <ele>1039</ele>
        <time>2014-06-01T11:38:18Z</time>
      </trkpt>
      <trkpt lat="45.35116" lon="5.91494">
        <ele>1040</ele>
        <time>2014-06-01T11:38:24Z</time>
      </trkpt>
      <trkpt lat="45.35133" lon="5.91511">
        <ele>1036</ele>
        <time>2014-06-01T11:38:30Z</time>
      </trkpt>
      <trkpt lat="45.35148" lon="5.91529">
        <ele>1037</ele>
        <time>2014-06-01T11:38:36Z</time>
      </trkpt>
      <trkpt lat="45.35165" lon="5.91547">
        <ele>1036</ele>
        <time>2014-06-01T11:38:42Z</time>
      </trkpt>
      <trkpt lat="45.35181" lon="5.91559">
        <ele>1043</ele>
        <time>2014-06-01T11:38:47Z</time>
      </trkpt>
      <trkpt lat="45.35197" lon="5.91574">
        <ele>1044</ele>
        <time>2014-06-01T11:38:53Z</time>
      </trkpt>
      <trkpt lat="45.35211" lon="5.91593">
        <ele>1040</ele>
        <time>2014-06-01T11:38:59Z</time>
      </trkpt>
      <trkpt lat="45.35229" lon="5.9161">
        <ele>1041</ele>
        <time>2014-06-01T11:39:05Z</time>
      </trkpt>
      <trkpt lat="45.35248" lon="5.91623">
        <ele>1041</ele>
        <time>2014-06-01T11:39:11Z</time>
      </trkpt>
      <trkpt lat="45.35267" lon="5.91636">
        <ele>1047</ele>
        <time>2014-06-01T11:39:16Z</time>
      </trkpt>
      <trkpt lat="45.35286" lon="5.91652">
        <ele>1048</ele>
        <time>2014-06-01T11:39:21Z</time>
      </trkpt>
      <trkpt lat="45.35303" lon="5.91668">
        <ele>1047</ele>
        <time>2014-06-01T11:39:26Z</time>
      </trkpt>
      <trkpt lat="45.35318" lon="5.91691">
        <ele>1047</ele>
        <time>2014-06-01T11:39:31Z</time>
      </trkpt>
      <trkpt lat="45.35329" lon="5.91712">
        <ele>1047</ele>
        <time>2014-06-01T11:39:35Z</time>
      </trkpt>
      <trkpt lat="45.35336" lon="5.91738">
        <ele>1052</ele>
        <time>2014-06-01T11:39:40Z</time>
      </trkpt>
      <trkpt lat="45.35339" lon="5.91764">
        <ele>1052</ele>
        <time>2014-06-01T11:39:48Z</time>
      </trkpt>
      <trkpt lat="45.35348" lon="5.91789">
        <ele>1054</ele>
        <time>2014-06-01T11:39:55Z</time>
      </trkpt>
      <trkpt lat="45.35358" lon="5.91811">
        <ele>1055</ele>
        <time>2014-06-01T11:40:17Z</time>
      </trkpt>
      <trkpt lat="45.35353" lon="5.91835">
        <ele>1057</ele>
        <time>2014-06-01T11:40:26Z</time>
      </trkpt>
      <trkpt lat="45.35343" lon="5.91858">
        <ele>1057</ele>
        <time>2014-06-01T11:40:32Z</time>
      </trkpt>
      <trkpt lat="45.35327" lon="5.9187">
        <ele>1053</ele>
        <time>2014-06-01T11:40:37Z</time>
      </trkpt>
      <trkpt lat="45.35309" lon="5.91886">
        <ele>1052</ele>
        <time>2014-06-01T11:40:43Z</time>
      </trkpt>
      <trkpt lat="45.35304" lon="5.91913">
        <ele>1053</ele>
        <time>2014-06-01T11:40:49Z</time>
      </trkpt>
      <trkpt lat="45.35301" lon="5.91942">
        <ele>1052</ele>
        <time>2014-06-01T11:40:54Z</time>
      </trkpt>
      <trkpt lat="45.35296" lon="5.91967">
        <ele>1051</ele>
        <time>2014-06-01T11:40:58Z</time>
      </trkpt>
      <trkpt lat="45.35305" lon="5.91995">
        <ele>1051</ele>
        <time>2014-06-01T11:41:03Z</time>
      </trkpt>
      <trkpt lat="45.35309" lon="5.92022">
        <ele>1043</ele>
        <time>2014-06-01T11:44:02Z</time>
      </trkpt>
      <trkpt lat="45.3529" lon="5.92034">
        <ele>1041</ele>
        <time>2014-06-01T11:44:06Z</time>
      </trkpt>
      <trkpt lat="45.35268" lon="5.92041">
        <ele>1040</ele>
        <time>2014-06-01T11:44:10Z</time>
      </trkpt>
      <trkpt lat="45.35247" lon="5.92044">
        <ele>1036</ele>
        <time>2014-06-01T11:44:14Z</time>
      </trkpt>
      <trkpt lat="45.35226" lon="5.92041">
        <ele>1036</ele>
        <time>2014-06-01T11:44:18Z</time>
      </trkpt>
      <trkpt lat="45.35209" lon="5.92059">
        <ele>1033</ele>
        <time>2014-06-01T11:44:24Z</time>
      </trkpt>
      <trkpt lat="45.352" lon="5.92084">
        <ele>1015</ele>
        <time>2014-06-01T11:44:35Z</time>
      </trkpt>
      <trkpt lat="45.35178" lon="5.92099">
        <ele>1014</ele>
        <time>2014-06-01T11:44:39Z</time>
      </trkpt>
      <trkpt lat="45.35159" lon="5.921">
        <ele>1010</ele>
        <time>2014-06-01T11:44:42Z</time>
      </trkpt>
      <trkpt lat="45.3514" lon="5.92102">
        <ele>1006</ele>
        <time>2014-06-01T11:44:46Z</time>
      </trkpt>
      <trkpt lat="45.35119" lon="5.92115">
        <ele>1002</ele>
        <time>2014-06-01T11:44:51Z</time>
      </trkpt>
      <trkpt lat="45.351" lon="5.92121">
        <ele>1000</ele>
        <time>2014-06-01T11:44:55Z</time>
      </trkpt>
      <trkpt lat="45.35082" lon="5.92135">
        <ele>996</ele>
        <time>2014-06-01T11:45:00Z</time>
      </trkpt>
      <trkpt lat="45.35065" lon="5.92144">
        <ele>995</ele>
        <time>2014-06-01T11:45:05Z</time>
      </trkpt>
      <trkpt lat="45.3505" lon="5.92161">
        <ele>994</ele>
        <time>2014-06-01T11:45:28Z</time>
      </trkpt>
      <trkpt lat="45.35048" lon="5.92187">
        <ele>961</ele>
        <time>2014-06-01T11:48:12Z</time>
      </trkpt>
      <trkpt lat="45.35034" lon="5.92205">
        <ele>955</ele>
        <time>2014-06-01T11:49:02Z</time>
      </trkpt>
      <trkpt lat="45.35016" lon="5.92212">
        <ele>953</ele>
        <time>2014-06-01T11:49:10Z</time>
      </trkpt>
      <trkpt lat="45.34997" lon="5.92209">
        <ele>957</ele>
        <time>2014-06-01T11:49:18Z</time>
      </trkpt>
      <trkpt lat="45.34977" lon="5.9221">
        <ele>957</ele>
        <time>2014-06-01T11:49:25Z</time>
      </trkpt>
      <trkpt lat="45.34959" lon="5.92212">
        <ele>957</ele>
        <time>2014-06-01T11:49:31Z</time>
      </trkpt>
      <trkpt lat="45.3494" lon="5.92209">
        <ele>959</ele>
        <time>2014-06-01T11:49:38Z</time>
      </trkpt>
      <trkpt lat="45.34923" lon="5.92203">
        <ele>963</ele>
        <time>2014-06-01T11:49:44Z</time>
      </trkpt>
      <trkpt lat="45.34904" lon="5.92198">
        <ele>969</ele>
        <time>2014-06-01T11:49:48Z</time>
      </trkpt>
      <trkpt lat="45.34886" lon="5.92203">
        <ele>966</ele>
        <time>2014-06-01T11:50:05Z</time>
      </trkpt>
      <trkpt lat="45.34866" lon="5.92205">
        <ele>965</ele>
        <time>2014-06-01T11:50:25Z</time>
      </trkpt>
      <trkpt lat="45.34864" lon="5.92231">
        <ele>954</ele>
        <time>2014-06-01T11:50:38Z</time>
      </trkpt>
      <trkpt lat="45.34849" lon="5.92259">
        <ele>916</ele>
        <time>2014-06-01T11:52:24Z</time>
      </trkpt>
      <trkpt lat="45.34834" lon="5.92276">
        <ele>911</ele>
        <time>2014-06-01T11:52:28Z</time>
      </trkpt>
      <trkpt lat="45.34852" lon="5.92292">
        <ele>903</ele>
        <time>2014-06-01T11:52:39Z</time>
      </trkpt>
      <trkpt lat="45.34869" lon="5.92303">
        <ele>899</ele>
        <time>2014-06-01T11:52:47Z</time>
      </trkpt>
      <trkpt lat="45.34886" lon="5.92319">
        <ele>894</ele>
        <time>2014-06-01T11:53:03Z</time>
      </trkpt>
      <trkpt lat="45.34895" lon="5.92342">
        <ele>865</ele>
        <time>2014-06-01T11:53:11Z</time>
      </trkpt>
      <trkpt lat="45.34912" lon="5.92353">
        <ele>864</ele>
        <time>2014-06-01T11:53:16Z</time>
      </trkpt>
      <trkpt lat="45.34929" lon="5.92364">
        <ele>859</ele>
        <time>2014-06-01T11:53:20Z</time>
      </trkpt>
      <trkpt lat="45.34929" lon="5.92389">
        <ele>851</ele>
        <time>2014-06-01T11:54:32Z</time>
      </trkpt>
      <trkpt lat="45.34916" lon="5.92409">
        <ele>841</ele>
        <time>2014-06-01T11:55:11Z</time>
      </trkpt>
      <trkpt lat="45.34934" lon="5.92422">
        <ele>822</ele>
        <time>2014-06-01T11:55:18Z</time>
      </trkpt>
      <trkpt lat="45.34952" lon="5.9243">
        <ele>816</ele>
        <time>2014-06-01T11:55:23Z</time>
      </trkpt>
      <trkpt lat="45.34973" lon="5.92435">
        <ele>814</ele>
        <time>2014-06-01T11:55:29Z</time>
      </trkpt>
      <trkpt lat="45.34992" lon="5.92437">
        <ele>816</ele>
        <time>2014-06-01T11:55:34Z</time>
      </trkpt>
      <trkpt lat="45.35014" lon="5.92442">
        <ele>810</ele>
        <time>2014-06-01T11:55:39Z</time>
      </trkpt>
      <trkpt lat="45.35033" lon="5.92444">
        <ele>807</ele>
        <time>2014-06-01T11:55:43Z</time>
      </trkpt>
      <trkpt lat="45.35051" lon="5.9245">
        <ele>804</ele>
        <time>2014-06-01T11:55:47Z</time>
      </trkpt>
      <trkpt lat="45.35072" lon="5.92457">
        <ele>802</ele>
        <time>2014-06-01T11:55:52Z</time>
      </trkpt>
      <trkpt lat="45.35091" lon="5.92464">
        <ele>801</ele>
        <time>2014-06-01T11:56:01Z</time>
      </trkpt>
      <trkpt lat="45.35079" lon="5.92486">
        <ele>787</ele>
        <time>2014-06-01T11:56:11Z</time>
      </trkpt>
      <trkpt lat="45.35062" lon="5.92499">
        <ele>789</ele>
        <time>2014-06-01T11:56:18Z</time>
      </trkpt>
      <trkpt lat="45.35042" lon="5.92512">
        <ele>759</ele>
        <time>2014-06-01T11:57:57Z</time>
      </trkpt>
      <trkpt lat="45.35022" lon="5.92525">
        <ele>758</ele>
        <time>2014-06-01T11:58:01Z</time>
      </trkpt>
      <trkpt lat="45.35004" lon="5.92539">
        <ele>753</ele>
        <time>2014-06-01T11:58:05Z</time>
      </trkpt>
      <trkpt lat="45.34983" lon="5.92549">
        <ele>752</ele>
        <time>2014-06-01T11:58:09Z</time>
      </trkpt>
      <trkpt lat="45.34965" lon="5.92563">
        <ele>749</ele>
        <time>2014-06-01T11:58:14Z</time>
      </trkpt>
      <trkpt lat="45.34949" lon="5.92576">
        <ele>747</ele>
        <time>2014-06-01T11:58:18Z</time>
      </trkpt>
      <trkpt lat="45.34935" lon="5.92593">
        <ele>722</ele>
        <time>2014-06-01T11:58:22Z</time>
      </trkpt>
      <trkpt lat="45.34918" lon="5.92614">
        <ele>716</ele>
        <time>2014-06-01T11:58:25Z</time>
      </trkpt>
      <trkpt lat="45.34907" lon="5.92643">
        <ele>707</ele>
        <time>2014-06-01T11:58:39Z</time>
      </trkpt>
      <trkpt lat="45.34915" lon="5.92669">
        <ele>692</ele>
        <time>2014-06-01T11:58:42Z</time>
      </trkpt>
      <trkpt lat="45.34927" lon="5.92692">
        <ele>679</ele>
        <time>2014-06-01T11:58:46Z</time>
      </trkpt>
      <trkpt lat="45.34949" lon="5.92698">
        <ele>676</ele>
        <time>2014-06-01T11:58:53Z</time>
      </trkpt>
      <trkpt lat="45.34965" lon="5.92709">
        <ele>673</ele>
        <time>2014-06-01T11:58:56Z</time>
      </trkpt>
      <trkpt lat="45.34986" lon="5.92722">
        <ele>669</ele>
        <time>2014-06-01T11:58:58Z</time>
      </trkpt>
      <trkpt lat="45.35004" lon="5.92738">
        <ele>663</ele>
        <time>2014-06-01T11:59:00Z</time>
      </trkpt>
      <trkpt lat="45.35023" lon="5.92747">
        <ele>666</ele>
        <time>2014-06-01T11:59:02Z</time>
      </trkpt>
      <trkpt lat="45.3501" lon="5.92776">
        <ele>650</ele>
        <time>2014-06-01T11:59:11Z</time>
      </trkpt>
      <trkpt lat="45.34992" lon="5.92791">
        <ele>644</ele>
        <time>2014-06-01T11:59:13Z</time>
      </trkpt>
      <trkpt lat="45.34973" lon="5.92807">
        <ele>641</ele>
        <time>2014-06-01T11:59:16Z</time>
      </trkpt>
      <trkpt lat="45.3495" lon="5.92824">
        <ele>639</ele>
        <time>2014-06-01T11:59:19Z</time>
      </trkpt>
      <trkpt lat="45.3493" lon="5.92833">
        <ele>636</ele>
        <time>2014-06-01T11:59:21Z</time>
      </trkpt>
      <trkpt lat="45.34908" lon="5.92835">
        <ele>627</ele>
        <time>2014-06-01T11:59:24Z</time>
      </trkpt>
      <trkpt lat="45.34885" lon="5.92835">
        <ele>622</ele>
        <time>2014-06-01T11:59:27Z</time>
      </trkpt>
      <trkpt lat="45.34855" lon="5.9284">
        <ele>622</ele>
        <time>2014-06-01T11:59:31Z</time>
      </trkpt>
      <trkpt lat="45.34856" lon="5.92865">
        <ele>618</ele>
        <time>2014-06-01T11:59:39Z</time>
      </trkpt>
      <trkpt lat="45.3487" lon="5.92885">
        <ele>615</ele>
        <time>2014-06-01T12:01:58Z</time>
      </trkpt>
      <trkpt lat="45.34889" lon="5.92894">
        <ele>614</ele>
        <time>2014-06-01T12:03:27Z</time>
      </trkpt>
      <trkpt lat="45.34908" lon="5.92907">
        <ele>612</ele>
        <time>2014-06-01T12:03:32Z</time>
      </trkpt>
      <trkpt lat="45.34926" lon="5.92926">
        <ele>603</ele>
        <time>2014-06-01T12:03:35Z</time>
      </trkpt>
      <trkpt lat="45.34943" lon="5.92943">
        <ele>598</ele>
        <time>2014-06-01T12:03:38Z</time>
      </trkpt>
      <trkpt lat="45.34954" lon="5.92966">
        <ele>594</ele>
        <time>2014-06-01T12:03:41Z</time>
      </trkpt>
      <trkpt lat="45.34967" lon="5.92989">
        <ele>591</ele>
        <time>2014-06-01T12:03:45Z</time>
      </trkpt>
      <trkpt lat="45.34983" lon="5.93003">
        <ele>576</ele>
        <time>2014-06-01T12:03:49Z</time>
      </trkpt>
      <trkpt lat="45.34997" lon="5.93021">
        <ele>574</ele>
        <time>2014-06-01T12:03:53Z</time>
      </trkpt>
      <trkpt lat="45.35015" lon="5.93041">
        <ele>573</ele>
        <time>2014-06-01T12:03:57Z</time>
      </trkpt>
      <trkpt lat="45.35031" lon="5.9306">
        <ele>571</ele>
        <time>2014-06-01T12:04:01Z</time>
      </trkpt>
      <trkpt lat="45.35044" lon="5.93086">
        <ele>554</ele>
        <time>2014-06-01T12:04:06Z</time>
      </trkpt>
      <trkpt lat="45.35064" lon="5.93092">
        <ele>557</ele>
        <time>2014-06-01T12:04:11Z</time>
      </trkpt>
      <trkpt lat="45.35086" lon="5.93108">
        <ele>563</ele>
        <time>2014-06-01T12:04:18Z</time>
      </trkpt>
      <trkpt lat="45.35105" lon="5.93111">
        <ele>564</ele>
        <time>2014-06-01T12:04:22Z</time>
      </trkpt>
      <trkpt lat="45.35124" lon="5.93119">
        <ele>564</ele>
        <time>2014-06-01T12:04:26Z</time>
      </trkpt>
      <trkpt lat="45.35145" lon="5.93123">
        <ele>566</ele>
        <time>2014-06-01T12:04:30Z</time>
      </trkpt>
      <trkpt lat="45.35163" lon="5.9312">
        <ele>568</ele>
        <time>2014-06-01T12:04:33Z</time>
      </trkpt>
      <trkpt lat="45.35183" lon="5.93126">
        <ele>572</ele>
        <time>2014-06-01T12:04:36Z</time>
      </trkpt>
      <trkpt lat="45.35201" lon="5.93134">
        <ele>570</ele>
        <time>2014-06-01T12:04:39Z</time>
      </trkpt>
      <trkpt lat="45.3522" lon="5.93139">
        <ele>569</ele>
        <time>2014-06-01T12:04:42Z</time>
      </trkpt>
      <trkpt lat="45.35234" lon="5.93158">
        <ele>564</ele>
        <time>2014-06-01T12:04:45Z</time>
      </trkpt>
      <trkpt lat="45.35253" lon="5.9319">
        <ele>546</ele>
        <time>2014-06-01T12:04:57Z</time>
      </trkpt>
      <trkpt lat="45.35268" lon="5.93215">
        <ele>540</ele>
        <time>2014-06-01T12:05:01Z</time>
      </trkpt>
      <trkpt lat="45.35283" lon="5.93233">
        <ele>537</ele>
        <time>2014-06-01T12:05:04Z</time>
      </trkpt>
      <trkpt lat="45.35301" lon="5.9325">
        <ele>525</ele>
        <time>2014-06-01T12:05:08Z</time>
      </trkpt>
      <trkpt lat="45.35314" lon="5.93275">
        <ele>524</ele>
        <time>2014-06-01T12:05:13Z</time>
      </trkpt>
      <trkpt lat="45.35334" lon="5.93297">
        <ele>520</ele>
        <time>2014-06-01T12:05:19Z</time>
      </trkpt>
      <trkpt lat="45.35346" lon="5.93316">
        <ele>518</ele>
        <time>2014-06-01T12:05:23Z</time>
      </trkpt>
      <trkpt lat="45.35358" lon="5.93339">
        <ele>510</ele>
        <time>2014-06-01T12:05:27Z</time>
      </trkpt>
      <trkpt lat="45.35375" lon="5.93365">
        <ele>506</ele>
        <time>2014-06-01T12:05:32Z</time>
      </trkpt>
      <trkpt lat="45.35392" lon="5.93391">
        <ele>502</ele>
        <time>2014-06-01T12:05:36Z</time>
      </trkpt>
      <trkpt lat="45.3541" lon="5.93415">
        <ele>493</ele>
        <time>2014-06-01T12:05:39Z</time>
      </trkpt>
      <trkpt lat="45.35422" lon="5.9344">
        <ele>486</ele>
        <time>2014-06-01T12:05:43Z</time>
      </trkpt>
      <trkpt lat="45.35427" lon="5.93468">
        <ele>484</ele>
        <time>2014-06-01T12:05:46Z</time>
      </trkpt>
      <trkpt lat="45.35426" lon="5.93505">
        <ele>479</ele>
        <time>2014-06-01T12:05:51Z</time>
      </trkpt>
      <trkpt lat="45.35434" lon="5.93541">
        <ele>476</ele>
        <time>2014-06-01T12:05:54Z</time>
      </trkpt>
      <trkpt lat="45.35441" lon="5.93574">
        <ele>473</ele>
        <time>2014-06-01T12:05:56Z</time>
      </trkpt>
      <trkpt lat="45.35446" lon="5.93602">
        <ele>469</ele>
        <time>2014-06-01T12:05:58Z</time>
      </trkpt>
      <trkpt lat="45.35451" lon="5.93633">
        <ele>469</ele>
        <time>2014-06-01T12:06:00Z</time>
      </trkpt>
      <trkpt lat="45.3545" lon="5.93662">
        <ele>467</ele>
        <time>2014-06-01T12:06:02Z</time>
      </trkpt>
      <trkpt lat="45.35448" lon="5.93689">
        <ele>460</ele>
        <time>2014-06-01T12:06:04Z</time>
      </trkpt>
      <trkpt lat="45.35447" lon="5.93715">
        <ele>458</ele>
        <time>2014-06-01T12:06:06Z</time>
      </trkpt>
      <trkpt lat="45.35453" lon="5.93743">
        <ele>457</ele>
        <time>2014-06-01T12:06:08Z</time>
      </trkpt>
      <trkpt lat="45.35459" lon="5.93774">
        <ele>447</ele>
        <time>2014-06-01T12:06:10Z</time>
      </trkpt>
      <trkpt lat="45.35467" lon="5.93797">
        <ele>446</ele>
        <time>2014-06-01T12:06:12Z</time>
      </trkpt>
      <trkpt lat="45.35477" lon="5.93824">
        <ele>446</ele>
        <time>2014-06-01T12:06:14Z</time>
      </trkpt>
      <trkpt lat="45.35497" lon="5.93849">
        <ele>438</ele>
        <time>2014-06-01T12:06:17Z</time>
      </trkpt>
      <trkpt lat="45.35515" lon="5.93871">
        <ele>439</ele>
        <time>2014-06-01T12:06:20Z</time>
      </trkpt>
      <trkpt lat="45.35531" lon="5.93889">
        <ele>436</ele>
        <time>2014-06-01T12:06:23Z</time>
      </trkpt>
      <trkpt lat="45.35548" lon="5.93903">
        <ele>435</ele>
        <time>2014-06-01T12:06:26Z</time>
      </trkpt>
      <trkpt lat="45.3557" lon="5.93915">
        <ele>433</ele>
        <time>2014-06-01T12:06:30Z</time>
      </trkpt>
      <trkpt lat="45.35591" lon="5.93927">
        <ele>426</ele>
        <time>2014-06-01T12:06:33Z</time>
      </trkpt>
      <trkpt lat="45.35608" lon="5.93937">
        <ele>425</ele>
        <time>2014-06-01T12:06:35Z</time>
      </trkpt>
      <trkpt lat="45.3563" lon="5.9395">
        <ele>424</ele>
        <time>2014-06-01T12:06:38Z</time>
      </trkpt>
      <trkpt lat="45.35649" lon="5.93963">
        <ele>423</ele>
        <time>2014-06-01T12:06:41Z</time>
      </trkpt>
      <trkpt lat="45.3567" lon="5.93982">
        <ele>424</ele>
        <time>2014-06-01T12:06:44Z</time>
      </trkpt>
      <trkpt lat="45.35685" lon="5.93999">
        <ele>423</ele>
        <time>2014-06-01T12:06:46Z</time>
      </trkpt>
      <trkpt lat="45.35706" lon="5.94016">
        <ele>414</ele>
        <time>2014-06-01T12:06:49Z</time>
      </trkpt>
      <trkpt lat="45.35725" lon="5.9402">
        <ele>415</ele>
        <time>2014-06-01T12:06:52Z</time>
      </trkpt>
      <trkpt lat="45.35744" lon="5.94024">
        <ele>416</ele>
        <time>2014-06-01T12:06:55Z</time>
      </trkpt>
      <trkpt lat="45.35763" lon="5.94032">
        <ele>420</ele>
        <time>2014-06-01T12:06:59Z</time>
      </trkpt>
      <trkpt lat="45.35782" lon="5.94036">
        <ele>420</ele>
        <time>2014-06-01T12:07:05Z</time>
      </trkpt>
      <trkpt lat="45.35803" lon="5.94031">
        <ele>422</ele>
        <time>2014-06-01T12:07:16Z</time>
      </trkpt>
      <trkpt lat="45.35821" lon="5.94034">
        <ele>423</ele>
        <time>2014-06-01T12:07:23Z</time>
      </trkpt>
      <trkpt lat="45.35841" lon="5.94039">
        <ele>426</ele>
        <time>2014-06-01T12:07:30Z</time>
      </trkpt>
      <trkpt lat="45.35859" lon="5.94043">
        <ele>426</ele>
        <time>2014-06-01T12:07:37Z</time>
      </trkpt>
      <trkpt lat="45.35888" lon="5.94041">
        <ele>427</ele>
        <time>2014-06-01T12:07:47Z</time>
      </trkpt>
      <trkpt lat="45.35909" lon="5.94037">
        <ele>428</ele>
        <time>2014-06-01T12:07:56Z</time>
      </trkpt>
      <trkpt lat="45.3593" lon="5.94038">
        <ele>430</ele>
        <time>2014-06-01T12:08:00Z</time>
      </trkpt>
      <trkpt lat="45.35943" lon="5.94055">
        <ele>428</ele>
        <time>2014-06-01T12:08:03Z</time>
      </trkpt>
      <trkpt lat="45.35953" lon="5.94081">
        <ele>426</ele>
        <time>2014-06-01T12:08:07Z</time>
      </trkpt>
      <trkpt lat="45.3596" lon="5.94111">
        <ele>419</ele>
        <time>2014-06-01T12:08:13Z</time>
      </trkpt>
      <trkpt lat="45.35969" lon="5.94138">
        <ele>418</ele>
        <time>2014-06-01T12:08:18Z</time>
      </trkpt>
      <trkpt lat="45.35979" lon="5.94161">
        <ele>419</ele>
        <time>2014-06-01T12:08:23Z</time>
      </trkpt>
      <trkpt lat="45.35992" lon="5.94182">
        <ele>413</ele>
        <time>2014-06-01T12:08:28Z</time>
      </trkpt>
      <trkpt lat="45.36004" lon="5.94205">
        <ele>417</ele>
        <time>2014-06-01T12:08:33Z</time>
      </trkpt>
      <trkpt lat="45.36017" lon="5.94229">
        <ele>415</ele>
        <time>2014-06-01T12:08:37Z</time>
      </trkpt>
      <trkpt lat="45.36035" lon="5.94252">
        <ele>407</ele>
        <time>2014-06-01T12:08:41Z</time>
      </trkpt>
      <trkpt lat="45.3605" lon="5.94276">
        <ele>406</ele>
        <time>2014-06-01T12:08:44Z</time>
      </trkpt>
      <trkpt lat="45.3607" lon="5.94299">
        <ele>404</ele>
        <time>2014-06-01T12:08:47Z</time>
      </trkpt>
      <trkpt lat="45.36085" lon="5.94312">
        <ele>400</ele>
        <time>2014-06-01T12:08:49Z</time>
      </trkpt>
      <trkpt lat="45.36111" lon="5.9432">
        <ele>399</ele>
        <time>2014-06-01T12:08:52Z</time>
      </trkpt>
      <trkpt lat="45.36135" lon="5.94322">
        <ele>396</ele>
        <time>2014-06-01T12:08:55Z</time>
      </trkpt>
      <trkpt lat="45.36157" lon="5.94323">
        <ele>392</ele>
        <time>2014-06-01T12:08:58Z</time>
      </trkpt>
      <trkpt lat="45.36178" lon="5.94321">
        <ele>388</ele>
        <time>2014-06-01T12:09:00Z</time>
      </trkpt>
      <trkpt lat="45.36202" lon="5.9432">
        <ele>388</ele>
        <time>2014-06-01T12:09:02Z</time>
      </trkpt>
      <trkpt lat="45.36226" lon="5.94319">
        <ele>386</ele>
        <time>2014-06-01T12:09:04Z</time>
      </trkpt>
      <trkpt lat="45.36246" lon="5.94318">
        <ele>384</ele>
        <time>2014-06-01T12:09:06Z</time>
      </trkpt>
      <trkpt lat="45.36265" lon="5.94326">
        <ele>381</ele>
        <time>2014-06-01T12:09:09Z</time>
      </trkpt>
      <trkpt lat="45.36273" lon="5.94354">
        <ele>375</ele>
        <time>2014-06-01T12:09:13Z</time>
      </trkpt>
      <trkpt lat="45.3629" lon="5.94372">
        <ele>374</ele>
        <time>2014-06-01T12:09:18Z</time>
      </trkpt>
      <trkpt lat="45.3631" lon="5.94377">
        <ele>374</ele>
        <time>2014-06-01T12:09:22Z</time>
      </trkpt>
      <trkpt lat="45.36331" lon="5.94379">
        <ele>374</ele>
        <time>2014-06-01T12:09:27Z</time>
      </trkpt>
      <trkpt lat="45.3635" lon="5.94383">
        <ele>374</ele>
        <time>2014-06-01T12:09:32Z</time>
      </trkpt>
      <trkpt lat="45.36368" lon="5.9439">
        <ele>375</ele>
        <time>2014-06-01T12:09:37Z</time>
      </trkpt>
      <trkpt lat="45.36387" lon="5.94392">
        <ele>375</ele>
        <time>2014-06-01T12:11:12Z</time>
      </trkpt>
      <trkpt lat="45.36406" lon="5.94395">
        <ele>375</ele>
        <time>2014-06-01T12:11:23Z</time>
      </trkpt>
      <trkpt lat="45.36427" lon="5.94402">
        <ele>376</ele>
        <time>2014-06-01T12:11:31Z</time>
      </trkpt>
      <trkpt lat="45.36447" lon="5.94406">
        <ele>376</ele>
        <time>2014-06-01T12:11:39Z</time>
      </trkpt>
      <trkpt lat="45.36469" lon="5.94411">
        <ele>377</ele>
        <time>2014-06-01T12:11:47Z</time>
      </trkpt>
      <trkpt lat="45.36488" lon="5.94413">
        <ele>376</ele>
        <time>2014-06-01T12:11:52Z</time>
      </trkpt>
      <trkpt lat="45.3651" lon="5.94417">
        <ele>374</ele>
        <time>2014-06-01T12:11:57Z</time>
      </trkpt>
      <trkpt lat="45.36532" lon="5.9442">
        <ele>373</ele>
        <time>2014-06-01T12:12:01Z</time>
      </trkpt>
      <trkpt lat="45.36554" lon="5.94425">
        <ele>373</ele>
        <time>2014-06-01T12:12:05Z</time>
      </trkpt>
      <trkpt lat="45.36573" lon="5.94427">
        <ele>374</ele>
        <time>2014-06-01T12:12:09Z</time>
      </trkpt>
      <trkpt lat="45.36592" lon="5.94428">
        <ele>374</ele>
        <time>2014-06-01T12:12:13Z</time>
      </trkpt>
      <trkpt lat="45.36611" lon="5.94437">
        <ele>372</ele>
        <time>2014-06-01T12:12:19Z</time>
      </trkpt>
      <trkpt lat="45.3661" lon="5.94469">
        <ele>371</ele>
        <time>2014-06-01T12:12:23Z</time>
      </trkpt>
      <trkpt lat="45.36608" lon="5.94495">
        <ele>369</ele>
        <time>2014-06-01T12:12:25Z</time>
      </trkpt>
      <trkpt lat="45.36608" lon="5.94524">
        <ele>364</ele>
        <time>2014-06-01T12:12:28Z</time>
      </trkpt>
      <trkpt lat="45.36612" lon="5.94554">
        <ele>362</ele>
        <time>2014-06-01T12:12:33Z</time>
      </trkpt>
      <trkpt lat="45.36625" lon="5.94574">
        <ele>362</ele>
        <time>2014-06-01T12:12:38Z</time>
      </trkpt>
      <trkpt lat="45.36642" lon="5.94584">
        <ele>358</ele>
        <time>2014-06-01T12:12:42Z</time>
      </trkpt>
      <trkpt lat="45.3666" lon="5.94597">
        <ele>358</ele>
        <time>2014-06-01T12:12:46Z</time>
      </trkpt>
      <trkpt lat="45.36677" lon="5.94608">
        <ele>359</ele>
        <time>2014-06-01T12:12:50Z</time>
      </trkpt>
      <trkpt lat="45.36695" lon="5.94618">
        <ele>358</ele>
        <time>2014-06-01T12:12:54Z</time>
      </trkpt>
      <trkpt lat="45.36713" lon="5.94628">
        <ele>358</ele>
        <time>2014-06-01T12:12:57Z</time>
      </trkpt>
      <trkpt lat="45.36731" lon="5.94639">
        <ele>358</ele>
        <time>2014-06-01T12:13:01Z</time>
      </trkpt>
      <trkpt lat="45.36751" lon="5.94642">
        <ele>360</ele>
        <time>2014-06-01T12:13:06Z</time>
      </trkpt>
      <trkpt lat="45.36772" lon="5.94646">
        <ele>360</ele>
        <time>2014-06-01T12:13:12Z</time>
      </trkpt>
      <trkpt lat="45.36792" lon="5.94659">
        <ele>361</ele>
        <time>2014-06-01T12:13:17Z</time>
      </trkpt>
      <trkpt lat="45.36812" lon="5.94674">
        <ele>359</ele>
        <time>2014-06-01T12:13:23Z</time>
      </trkpt>
      <trkpt lat="45.36829" lon="5.94691">
        <ele>359</ele>
        <time>2014-06-01T12:13:28Z</time>
      </trkpt>
      <trkpt lat="45.36835" lon="5.94718">
        <ele>362</ele>
        <time>2014-06-01T12:13:33Z</time>
      </trkpt>
      <trkpt lat="45.36855" lon="5.94739">
        <ele>362</ele>
        <time>2014-06-01T12:13:41Z</time>
      </trkpt>
      <trkpt lat="45.36875" lon="5.94742">
        <ele>363</ele>
        <time>2014-06-01T12:13:49Z</time>
      </trkpt>
      <trkpt lat="45.36896" lon="5.94751">
        <ele>361</ele>
        <time>2014-06-01T12:13:57Z</time>
      </trkpt>
      <trkpt lat="45.36903" lon="5.94779">
        <ele>360</ele>
        <time>2014-06-01T12:14:07Z</time>
      </trkpt>
      <trkpt lat="45.36918" lon="5.94795">
        <ele>360</ele>
        <time>2014-06-01T12:14:12Z</time>
      </trkpt>
      <trkpt lat="45.36938" lon="5.94805">
        <ele>360</ele>
        <time>2014-06-01T12:14:17Z</time>
      </trkpt>
      <trkpt lat="45.36957" lon="5.94811">
        <ele>360</ele>
        <time>2014-06-01T12:14:22Z</time>
      </trkpt>
      <trkpt lat="45.36979" lon="5.94815">
        <ele>359</ele>
        <time>2014-06-01T12:14:27Z</time>
      </trkpt>
      <trkpt lat="45.36998" lon="5.94812">
        <ele>359</ele>
        <time>2014-06-01T12:14:32Z</time>
      </trkpt>
      <trkpt lat="45.3702" lon="5.94811">
        <ele>361</ele>
        <time>2014-06-01T12:14:38Z</time>
      </trkpt>
      <trkpt lat="45.37039" lon="5.9481">
        <ele>362</ele>
        <time>2014-06-01T12:14:43Z</time>
      </trkpt>
      <trkpt lat="45.37059" lon="5.94811">
        <ele>362</ele>
        <time>2014-06-01T12:14:49Z</time>
      </trkpt>
      <trkpt lat="45.37079" lon="5.94816">
        <ele>362</ele>
        <time>2014-06-01T12:14:54Z</time>
      </trkpt>
      <trkpt lat="45.37099" lon="5.94819">
        <ele>362</ele>
        <time>2014-06-01T12:14:58Z</time>
      </trkpt>
      <trkpt lat="45.37119" lon="5.94829">
        <ele>363</ele>
        <time>2014-06-01T12:15:03Z</time>
      </trkpt>
      <trkpt lat="45.37136" lon="5.94841">
        <ele>358</ele>
        <time>2014-06-01T12:15:07Z</time>
      </trkpt>
      <trkpt lat="45.37153" lon="5.94856">
        <ele>358</ele>
        <time>2014-06-01T12:15:11Z</time>
      </trkpt>
      <trkpt lat="45.37174" lon="5.94865">
        <ele>357</ele>
        <time>2014-06-01T12:15:16Z</time>
      </trkpt>
      <trkpt lat="45.37194" lon="5.94867">
        <ele>357</ele>
        <time>2014-06-01T12:15:20Z</time>
      </trkpt>
      <trkpt lat="45.37216" lon="5.94865">
        <ele>357</ele>
        <time>2014-06-01T12:15:25Z</time>
      </trkpt>
      <trkpt lat="45.37236" lon="5.94857">
        <ele>357</ele>
        <time>2014-06-01T12:15:30Z</time>
      </trkpt>
      <trkpt lat="45.37255" lon="5.9485">
        <ele>357</ele>
        <time>2014-06-01T12:15:35Z</time>
      </trkpt>
      <trkpt lat="45.37274" lon="5.94846">
        <ele>356</ele>
        <time>2014-06-01T12:15:38Z</time>
      </trkpt>
      <trkpt lat="45.37298" lon="5.94846">
        <ele>355</ele>
        <time>2014-06-01T12:15:41Z</time>
      </trkpt>
      <trkpt lat="45.37319" lon="5.94848">
        <ele>355</ele>
        <time>2014-06-01T12:15:44Z</time>
      </trkpt>
      <trkpt lat="45.37339" lon="5.94845">
        <ele>354</ele>
        <time>2014-06-01T12:15:47Z</time>
      </trkpt>
      <trkpt lat="45.37356" lon="5.94858">
        <ele>353</ele>
        <time>2014-06-01T12:15:52Z</time>
      </trkpt>
      <trkpt lat="45.37365" lon="5.94888">
        <ele>352</ele>
        <time>2014-06-01T12:15:59Z</time>
      </trkpt>
      <trkpt lat="45.37388" lon="5.94891">
        <ele>352</ele>
        <time>2014-06-01T12:16:04Z</time>
      </trkpt>
      <trkpt lat="45.37407" lon="5.94888">
        <ele>352</ele>
        <time>2014-06-01T12:16:08Z</time>
      </trkpt>
      <trkpt lat="45.37428" lon="5.94889">
        <ele>351</ele>
        <time>2014-06-01T12:16:13Z</time>
      </trkpt>
      <trkpt lat="45.3745" lon="5.94898">
        <ele>351</ele>
        <time>2014-06-01T12:16:17Z</time>
      </trkpt>
      <trkpt lat="45.37469" lon="5.94909">
        <ele>350</ele>
        <time>2014-06-01T12:16:21Z</time>
      </trkpt>
      <trkpt lat="45.37488" lon="5.9492">
        <ele>347</ele>
        <time>2014-06-01T12:16:26Z</time>
      </trkpt>
      <trkpt lat="45.37506" lon="5.94921">
        <ele>347</ele>
        <time>2014-06-01T12:16:31Z</time>
      </trkpt>
      <trkpt lat="45.37524" lon="5.94911">
        <ele>351</ele>
        <time>2014-06-01T12:16:37Z</time>
      </trkpt>
      <trkpt lat="45.37544" lon="5.94912">
        <ele>352</ele>
        <time>2014-06-01T12:16:43Z</time>
      </trkpt>
      <trkpt lat="45.37563" lon="5.94913">
        <ele>353</ele>
        <time>2014-06-01T12:16:48Z</time>
      </trkpt>
      <trkpt lat="45.37581" lon="5.94914">
        <ele>352</ele>
        <time>2014-06-01T12:16:53Z</time>
      </trkpt>
      <trkpt lat="45.37601" lon="5.94915">
        <ele>355</ele>
        <time>2014-06-01T12:16:58Z</time>
      </trkpt>
      <trkpt lat="45.37621" lon="5.94918">
        <ele>349</ele>
        <time>2014-06-01T12:17:02Z</time>
      </trkpt>
      <trkpt lat="45.37639" lon="5.94924">
        <ele>349</ele>
        <time>2014-06-01T12:17:06Z</time>
      </trkpt>
      <trkpt lat="45.37658" lon="5.94929">
        <ele>350</ele>
        <time>2014-06-01T12:17:10Z</time>
      </trkpt>
      <trkpt lat="45.37679" lon="5.94931">
        <ele>351</ele>
        <time>2014-06-01T12:17:14Z</time>
      </trkpt>
      <trkpt lat="45.37697" lon="5.94938">
        <ele>350</ele>
        <time>2014-06-01T12:17:18Z</time>
      </trkpt>
      <trkpt lat="45.37717" lon="5.94951">
        <ele>349</ele>
        <time>2014-06-01T12:17:23Z</time>
      </trkpt>
      <trkpt lat="45.37736" lon="5.94959">
        <ele>349</ele>
        <time>2014-06-01T12:17:27Z</time>
      </trkpt>
      <trkpt lat="45.37757" lon="5.94965">
        <ele>349</ele>
        <time>2014-06-01T12:17:31Z</time>
      </trkpt>
      <trkpt lat="45.37774" lon="5.94974">
        <ele>349</ele>
        <time>2014-06-01T12:17:34Z</time>
      </trkpt>
      <trkpt lat="45.37793" lon="5.94986">
        <ele>348</ele>
        <time>2014-06-01T12:17:38Z</time>
      </trkpt>
      <trkpt lat="45.37812" lon="5.94998">
        <ele>347</ele>
        <time>2014-06-01T12:17:42Z</time>
      </trkpt>
      <trkpt lat="45.37831" lon="5.95009">
        <ele>344</ele>
        <time>2014-06-01T12:17:46Z</time>
      </trkpt>
      <trkpt lat="45.37848" lon="5.95018">
        <ele>344</ele>
        <time>2014-06-01T12:17:50Z</time>
      </trkpt>
      <trkpt lat="45.37869" lon="5.95022">
        <ele>344</ele>
        <time>2014-06-01T12:17:54Z</time>
      </trkpt>
      <trkpt lat="45.37891" lon="5.95023">
        <ele>345</ele>
        <time>2014-06-01T12:17:58Z</time>
      </trkpt>
      <trkpt lat="45.37914" lon="5.95021">
        <ele>346</ele>
        <time>2014-06-01T12:18:02Z</time>
      </trkpt>
      <trkpt lat="45.37936" lon="5.9502">
        <ele>345</ele>
        <time>2014-06-01T12:18:06Z</time>
      </trkpt>
      <trkpt lat="45.37958" lon="5.95019">
        <ele>345</ele>
        <time>2014-06-01T12:18:10Z</time>
      </trkpt>
      <trkpt lat="45.37979" lon="5.95018">
        <ele>345</ele>
        <time>2014-06-01T12:18:14Z</time>
      </trkpt>
      <trkpt lat="45.38003" lon="5.95018">
        <ele>346</ele>
        <time>2014-06-01T12:18:18Z</time>
      </trkpt>
      <trkpt lat="45.38023" lon="5.9502">
        <ele>346</ele>
        <time>2014-06-01T12:18:22Z</time>
      </trkpt>
      <trkpt lat="45.38044" lon="5.95032">
        <ele>347</ele>
        <time>2014-06-01T12:18:26Z</time>
      </trkpt>
      <trkpt lat="45.38063" lon="5.95047">
        <ele>346</ele>
        <time>2014-06-01T12:18:30Z</time>
      </trkpt>
      <trkpt lat="45.38081" lon="5.95066">
        <ele>345</ele>
        <time>2014-06-01T12:18:34Z</time>
      </trkpt>
      <trkpt lat="45.38096" lon="5.95085">
        <ele>343</ele>
        <time>2014-06-01T12:18:38Z</time>
      </trkpt>
      <trkpt lat="45.38114" lon="5.95101">
        <ele>344</ele>
        <time>2014-06-01T12:18:43Z</time>
      </trkpt>
      <trkpt lat="45.38131" lon="5.95112">
        <ele>344</ele>
        <time>2014-06-01T12:18:47Z</time>
      </trkpt>
      <trkpt lat="45.3815" lon="5.95125">
        <ele>345</ele>
        <time>2014-06-01T12:18:51Z</time>
      </trkpt>
      <trkpt lat="45.38171" lon="5.95135">
        <ele>349</ele>
        <time>2014-06-01T12:18:56Z</time>
      </trkpt>
      <trkpt lat="45.38187" lon="5.95148">
        <ele>349</ele>
        <time>2014-06-01T12:19:00Z</time>
      </trkpt>
      <trkpt lat="45.38204" lon="5.95168">
        <ele>347</ele>
        <time>2014-06-01T12:19:04Z</time>
      </trkpt>
      <trkpt lat="45.3822" lon="5.95184">
        <ele>348</ele>
        <time>2014-06-01T12:19:08Z</time>
      </trkpt>
      <trkpt lat="45.38237" lon="5.95199">
        <ele>348</ele>
        <time>2014-06-01T12:19:14Z</time>
      </trkpt>
      <trkpt lat="45.38253" lon="5.95215">
        <ele>352</ele>
        <time>2014-06-01T12:19:21Z</time>
      </trkpt>
      <trkpt lat="45.38269" lon="5.95196">
        <ele>353</ele>
        <time>2014-06-01T12:19:28Z</time>
      </trkpt>
      <trkpt lat="45.38293" lon="5.95175">
        <ele>354</ele>
        <time>2014-06-01T12:19:38Z</time>
      </trkpt>
      <trkpt lat="45.38308" lon="5.95158">
        <ele>359</ele>
        <time>2014-06-01T12:19:46Z</time>
      </trkpt>
      <trkpt lat="45.38326" lon="5.9517">
        <ele>357</ele>
        <time>2014-06-01T12:19:55Z</time>
      </trkpt>
      <trkpt lat="45.38341" lon="5.95183">
        <ele>357</ele>
        <time>2014-06-01T12:20:01Z</time>
      </trkpt>
      <trkpt lat="45.38361" lon="5.95194">
        <ele>356</ele>
        <time>2014-06-01T12:20:08Z</time>
      </trkpt>
      <trkpt lat="45.38382" lon="5.95192">
        <ele>356</ele>
        <time>2014-06-01T12:20:13Z</time>
      </trkpt>
      <trkpt lat="45.38402" lon="5.95188">
        <ele>357</ele>
        <time>2014-06-01T12:20:17Z</time>
      </trkpt>
      <trkpt lat="45.3842" lon="5.95189">
        <ele>360</ele>
        <time>2014-06-01T12:20:21Z</time>
      </trkpt>
      <trkpt lat="45.38438" lon="5.95191">
        <ele>360</ele>
        <time>2014-06-01T12:20:25Z</time>
      </trkpt>
      <trkpt lat="45.38457" lon="5.95192">
        <ele>361</ele>
        <time>2014-06-01T12:20:30Z</time>
      </trkpt>
      <trkpt lat="45.38477" lon="5.95192">
        <ele>362</ele>
        <time>2014-06-01T12:20:35Z</time>
      </trkpt>
      <trkpt lat="45.38498" lon="5.95194">
        <ele>363</ele>
        <time>2014-06-01T12:20:41Z</time>
      </trkpt>
      <trkpt lat="45.38517" lon="5.95198">
        <ele>366</ele>
        <time>2014-06-01T12:20:48Z</time>
      </trkpt>
      <trkpt lat="45.38535" lon="5.95198">
        <ele>367</ele>
        <time>2014-06-01T12:20:55Z</time>
      </trkpt>
      <trkpt lat="45.38554" lon="5.95198">
        <ele>367</ele>
        <time>2014-06-01T12:21:02Z</time>
      </trkpt>
      <trkpt lat="45.38574" lon="5.95201">
        <ele>368</ele>
        <time>2014-06-01T12:21:09Z</time>
      </trkpt>
      <trkpt lat="45.38593" lon="5.95201">
        <ele>372</ele>
        <time>2014-06-01T12:21:18Z</time>
      </trkpt>
      <trkpt lat="45.38612" lon="5.95202">
        <ele>373</ele>
        <time>2014-06-01T12:21:27Z</time>
      </trkpt>
      <trkpt lat="45.38631" lon="5.95207">
        <ele>373</ele>
        <time>2014-06-01T12:21:35Z</time>
      </trkpt>
      <trkpt lat="45.38651" lon="5.95222">
        <ele>373</ele>
        <time>2014-06-01T12:21:40Z</time>
      </trkpt>
      <trkpt lat="45.38666" lon="5.95242">
        <ele>373</ele>
        <time>2014-06-01T12:21:45Z</time>
      </trkpt>
      <trkpt lat="45.38676" lon="5.95267">
        <ele>380</ele>
        <time>2014-06-01T12:21:51Z</time>
      </trkpt>
      <trkpt lat="45.38674" lon="5.95297">
        <ele>383</ele>
        <time>2014-06-01T12:21:58Z</time>
      </trkpt>
      <trkpt lat="45.38666" lon="5.95323">
        <ele>374</ele>
        <time>2014-06-01T12:22:05Z</time>
      </trkpt>
      <trkpt lat="45.38655" lon="5.95348">
        <ele>374</ele>
        <time>2014-06-01T12:22:12Z</time>
      </trkpt>
      <trkpt lat="45.38641" lon="5.9537">
        <ele>372</ele>
        <time>2014-06-01T12:22:20Z</time>
      </trkpt>
      <trkpt lat="45.38632" lon="5.95392">
        <ele>372</ele>
        <time>2014-06-01T12:22:28Z</time>
      </trkpt>
      <trkpt lat="45.38624" lon="5.95415">
        <ele>371</ele>
        <time>2014-06-01T12:22:47Z</time>
      </trkpt>
      <trkpt lat="45.38622" lon="5.95441">
        <ele>373</ele>
        <time>2014-06-01T12:22:54Z</time>
      </trkpt>
      <trkpt lat="45.38622" lon="5.9547">
        <ele>373</ele>
        <time>2014-06-01T12:23:03Z</time>
      </trkpt>
      <trkpt lat="45.38626" lon="5.95497">
        <ele>374</ele>
        <time>2014-06-01T12:23:10Z</time>
      </trkpt>
      <trkpt lat="45.3863" lon="5.95522">
        <ele>374</ele>
        <time>2014-06-01T12:23:16Z</time>
      </trkpt>
      <trkpt lat="45.38638" lon="5.95549">
        <ele>373</ele>
        <time>2014-06-01T12:23:21Z</time>
      </trkpt>
      <trkpt lat="45.38648" lon="5.95574">
        <ele>374</ele>
        <time>2014-06-01T12:23:26Z</time>
      </trkpt>
      <trkpt lat="45.38662" lon="5.95596">
        <ele>372</ele>
        <time>2014-06-01T12:23:32Z</time>
      </trkpt>
      <trkpt lat="45.38674" lon="5.95616">
        <ele>378</ele>
        <time>2014-06-01T12:23:37Z</time>
      </trkpt>
      <trkpt lat="45.38685" lon="5.95638">
        <ele>377</ele>
        <time>2014-06-01T12:23:44Z</time>
      </trkpt>
      <trkpt lat="45.387" lon="5.95656">
        <ele>378</ele>
        <time>2014-06-01T12:23:48Z</time>
      </trkpt>
      <trkpt lat="45.38714" lon="5.95675">
        <ele>375</ele>
        <time>2014-06-01T12:23:51Z</time>
      </trkpt>
      <trkpt lat="45.38719" lon="5.95703">
        <ele>374</ele>
        <time>2014-06-01T12:23:56Z</time>
      </trkpt>
      <trkpt lat="45.38734" lon="5.95727">
        <ele>375</ele>
        <time>2014-06-01T12:24:02Z</time>
      </trkpt>
      <trkpt lat="45.38745" lon="5.95749">
        <ele>377</ele>
        <time>2014-06-01T12:24:07Z</time>
      </trkpt>
      <trkpt lat="45.38758" lon="5.95769">
        <ele>379</ele>
        <time>2014-06-01T12:24:13Z</time>
      </trkpt>
      <trkpt lat="45.38771" lon="5.95787">
        <ele>380</ele>
        <time>2014-06-01T12:24:19Z</time>
      </trkpt>
      <trkpt lat="45.38783" lon="5.95808">
        <ele>380</ele>
        <time>2014-06-01T12:24:24Z</time>
      </trkpt>
      <trkpt lat="45.38799" lon="5.95826">
        <ele>381</ele>
        <time>2014-06-01T12:24:31Z</time>
      </trkpt>
      <trkpt lat="45.38816" lon="5.95835">
        <ele>380</ele>
        <time>2014-06-01T12:24:38Z</time>
      </trkpt>
      <trkpt lat="45.38834" lon="5.95844">
        <ele>385</ele>
        <time>2014-06-01T12:24:45Z</time>
      </trkpt>
      <trkpt lat="45.38851" lon="5.95858">
        <ele>387</ele>
        <time>2014-06-01T12:24:51Z</time>
      </trkpt>
      <trkpt lat="45.38866" lon="5.95878">
        <ele>387</ele>
        <time>2014-06-01T12:24:56Z</time>
      </trkpt>
      <trkpt lat="45.3888" lon="5.95896">
        <ele>388</ele>
        <time>2014-06-01T12:25:00Z</time>
      </trkpt>
      <trkpt lat="45.38893" lon="5.95915">
        <ele>390</ele>
        <time>2014-06-01T12:25:05Z</time>
      </trkpt>
      <trkpt lat="45.38908" lon="5.95934">
        <ele>388</ele>
        <time>2014-06-01T12:25:12Z</time>
      </trkpt>
      <trkpt lat="45.38922" lon="5.95953">
        <ele>395</ele>
        <time>2014-06-01T12:25:19Z</time>
      </trkpt>
      <trkpt lat="45.38938" lon="5.95969">
        <ele>395</ele>
        <time>2014-06-01T12:25:26Z</time>
      </trkpt>
      <trkpt lat="45.38955" lon="5.95983">
        <ele>396</ele>
        <time>2014-06-01T12:25:33Z</time>
      </trkpt>
      <trkpt lat="45.38972" lon="5.95995">
        <ele>398</ele>
        <time>2014-06-01T12:25:40Z</time>
      </trkpt>
      <trkpt lat="45.3899" lon="5.96006">
        <ele>397</ele>
        <time>2014-06-01T12:25:47Z</time>
      </trkpt>
      <trkpt lat="45.39008" lon="5.96017">
        <ele>402</ele>
        <time>2014-06-01T12:25:55Z</time>
      </trkpt>
      <trkpt lat="45.39027" lon="5.96028">
        <ele>402</ele>
        <time>2014-06-01T12:26:02Z</time>
      </trkpt>
      <trkpt lat="45.39045" lon="5.96039">
        <ele>403</ele>
        <time>2014-06-01T12:26:08Z</time>
      </trkpt>
      <trkpt lat="45.39063" lon="5.96045">
        <ele>404</ele>
        <time>2014-06-01T12:26:12Z</time>
      </trkpt>
      <trkpt lat="45.39081" lon="5.96053">
        <ele>404</ele>
        <time>2014-06-01T12:26:18Z</time>
      </trkpt>
      <trkpt lat="45.391" lon="5.96062">
        <ele>408</ele>
        <time>2014-06-01T12:26:25Z</time>
      </trkpt>
      <trkpt lat="45.39117" lon="5.9607">
        <ele>408</ele>
        <time>2014-06-01T12:26:32Z</time>
      </trkpt>
      <trkpt lat="45.39136" lon="5.96078">
        <ele>408</ele>
        <time>2014-06-01T12:26:38Z</time>
      </trkpt>
      <trkpt lat="45.39155" lon="5.96086">
        <ele>406</ele>
        <time>2014-06-01T12:26:44Z</time>
      </trkpt>
      <trkpt lat="45.39175" lon="5.96096">
        <ele>406</ele>
        <time>2014-06-01T12:26:49Z</time>
      </trkpt>
      <trkpt lat="45.39194" lon="5.961">
        <ele>406</ele>
        <time>2014-06-01T12:26:52Z</time>
      </trkpt>
      <trkpt lat="45.39217" lon="5.96107">
        <ele>405</ele>
        <time>2014-06-01T12:26:57Z</time>
      </trkpt>
      <trkpt lat="45.39238" lon="5.96112">
        <ele>405</ele>
        <time>2014-06-01T12:27:01Z</time>
      </trkpt>
      <trkpt lat="45.39257" lon="5.96117">
        <ele>405</ele>
        <time>2014-06-01T12:27:05Z</time>
      </trkpt>
      <trkpt lat="45.39276" lon="5.96125">
        <ele>404</ele>
        <time>2014-06-01T12:27:10Z</time>
      </trkpt>
      <trkpt lat="45.39296" lon="5.96136">
        <ele>404</ele>
        <time>2014-06-01T12:27:15Z</time>
      </trkpt>
      <trkpt lat="45.39316" lon="5.96149">
        <ele>403</ele>
        <time>2014-06-01T12:27:20Z</time>
      </trkpt>
      <trkpt lat="45.39336" lon="5.96159">
        <ele>403</ele>
        <time>2014-06-01T12:27:25Z</time>
      </trkpt>
      <trkpt lat="45.39356" lon="5.96172">
        <ele>404</ele>
        <time>2014-06-01T12:27:30Z</time>
      </trkpt>
      <trkpt lat="45.39372" lon="5.96185">
        <ele>405</ele>
        <time>2014-06-01T12:27:34Z</time>
      </trkpt>
      <trkpt lat="45.39387" lon="5.96201">
        <ele>405</ele>
        <time>2014-06-01T12:27:39Z</time>
      </trkpt>
      <trkpt lat="45.39404" lon="5.96217">
        <ele>406</ele>
        <time>2014-06-01T12:27:44Z</time>
      </trkpt>
      <trkpt lat="45.39422" lon="5.96236">
        <ele>408</ele>
        <time>2014-06-01T12:27:49Z</time>
      </trkpt>
      <trkpt lat="45.39439" lon="5.96249">
        <ele>408</ele>
        <time>2014-06-01T12:27:54Z</time>
      </trkpt>
      <trkpt lat="45.3946" lon="5.96255">
        <ele>412</ele>
        <time>2014-06-01T12:27:59Z</time>
      </trkpt>
      <trkpt lat="45.39477" lon="5.96271">
        <ele>413</ele>
        <time>2014-06-01T12:28:06Z</time>
      </trkpt>
      <trkpt lat="45.39497" lon="5.96279">
        <ele>413</ele>
        <time>2014-06-01T12:28:12Z</time>
      </trkpt>
      <trkpt lat="45.39515" lon="5.96283">
        <ele>414</ele>
        <time>2014-06-01T12:28:16Z</time>
      </trkpt>
      <trkpt lat="45.39537" lon="5.96287">
        <ele>415</ele>
        <time>2014-06-01T12:28:21Z</time>
      </trkpt>
      <trkpt lat="45.39555" lon="5.96294">
        <ele>415</ele>
        <time>2014-06-01T12:28:27Z</time>
      </trkpt>
      <trkpt lat="45.39575" lon="5.96308">
        <ele>416</ele>
        <time>2014-06-01T12:28:32Z</time>
      </trkpt>
      <trkpt lat="45.39596" lon="5.96319">
        <ele>416</ele>
        <time>2014-06-01T12:28:37Z</time>
      </trkpt>
      <trkpt lat="45.39612" lon="5.96331">
        <ele>416</ele>
        <time>2014-06-01T12:28:42Z</time>
      </trkpt>
      <trkpt lat="45.39633" lon="5.96334">
        <ele>421</ele>
        <time>2014-06-01T12:28:48Z</time>
      </trkpt>
      <trkpt lat="45.39653" lon="5.9633">
        <ele>417</ele>
        <time>2014-06-01T12:28:53Z</time>
      </trkpt>
      <trkpt lat="45.39673" lon="5.96324">
        <ele>418</ele>
        <time>2014-06-01T12:28:58Z</time>
      </trkpt>
      <trkpt lat="45.39693" lon="5.96319">
        <ele>418</ele>
        <time>2014-06-01T12:29:04Z</time>
      </trkpt>
      <trkpt lat="45.39713" lon="5.96322">
        <ele>418</ele>
        <time>2014-06-01T12:29:10Z</time>
      </trkpt>
      <trkpt lat="45.39734" lon="5.96327">
        <ele>418</ele>
        <time>2014-06-01T12:29:16Z</time>
      </trkpt>
      <trkpt lat="45.39752" lon="5.96329">
        <ele>420</ele>
        <time>2014-06-01T12:29:21Z</time>
      </trkpt>
      <trkpt lat="45.3977" lon="5.96336">
        <ele>422</ele>
        <time>2014-06-01T12:29:26Z</time>
      </trkpt>
      <trkpt lat="45.39787" lon="5.96345">
        <ele>423</ele>
        <time>2014-06-01T12:29:32Z</time>
      </trkpt>
      <trkpt lat="45.39808" lon="5.96347">
        <ele>423</ele>
        <time>2014-06-01T12:29:37Z</time>
      </trkpt>
      <trkpt lat="45.39828" lon="5.96352">
        <ele>423</ele>
        <time>2014-06-01T12:29:41Z</time>
      </trkpt>
      <trkpt lat="45.39847" lon="5.9636">
        <ele>424</ele>
        <time>2014-06-01T12:29:45Z</time>
      </trkpt>
      <trkpt lat="45.39863" lon="5.96371">
        <ele>425</ele>
        <time>2014-06-01T12:29:51Z</time>
      </trkpt>
      <trkpt lat="45.39883" lon="5.96383">
        <ele>425</ele>
        <time>2014-06-01T12:29:57Z</time>
      </trkpt>
      <trkpt lat="45.399" lon="5.96397">
        <ele>426</ele>
        <time>2014-06-01T12:30:02Z</time>
      </trkpt>
      <trkpt lat="45.39918" lon="5.96413">
        <ele>426</ele>
        <time>2014-06-01T12:30:07Z</time>
      </trkpt>
      <trkpt lat="45.39935" lon="5.96426">
        <ele>427</ele>
        <time>2014-06-01T12:30:13Z</time>
      </trkpt>
      <trkpt lat="45.3995" lon="5.96441">
        <ele>427</ele>
        <time>2014-06-01T12:30:18Z</time>
      </trkpt>
      <trkpt lat="45.3997" lon="5.96448">
        <ele>427</ele>
        <time>2014-06-01T12:30:23Z</time>
      </trkpt>
      <trkpt lat="45.39992" lon="5.96444">
        <ele>426</ele>
        <time>2014-06-01T12:30:28Z</time>
      </trkpt>
      <trkpt lat="45.40011" lon="5.9643">
        <ele>425</ele>
        <time>2014-06-01T12:30:33Z</time>
      </trkpt>
      <trkpt lat="45.40028" lon="5.96409">
        <ele>427</ele>
        <time>2014-06-01T12:30:38Z</time>
      </trkpt>
      <trkpt lat="45.40046" lon="5.96395">
        <ele>428</ele>
        <time>2014-06-01T12:30:43Z</time>
      </trkpt>
      <trkpt lat="45.40063" lon="5.96382">
        <ele>429</ele>
        <time>2014-06-01T12:30:48Z</time>
      </trkpt>
      <trkpt lat="45.40086" lon="5.96382">
        <ele>431</ele>
        <time>2014-06-01T12:30:53Z</time>
      </trkpt>
      <trkpt lat="45.40106" lon="5.96385">
        <ele>431</ele>
        <time>2014-06-01T12:30:57Z</time>
      </trkpt>
      <trkpt lat="45.40125" lon="5.96393">
        <ele>431</ele>
        <time>2014-06-01T12:31:01Z</time>
      </trkpt>
      <trkpt lat="45.40147" lon="5.96398">
        <ele>430</ele>
        <time>2014-06-01T12:31:05Z</time>
      </trkpt>
      <trkpt lat="45.40168" lon="5.96404">
        <ele>429</ele>
        <time>2014-06-01T12:31:09Z</time>
      </trkpt>
      <trkpt lat="45.4019" lon="5.96408">
        <ele>431</ele>
        <time>2014-06-01T12:31:13Z</time>
      </trkpt>
      <trkpt lat="45.40212" lon="5.96412">
        <ele>431</ele>
        <time>2014-06-01T12:31:17Z</time>
      </trkpt>
      <trkpt lat="45.40234" lon="5.96415">
        <ele>429</ele>
        <time>2014-06-01T12:31:21Z</time>
      </trkpt>
      <trkpt lat="45.40256" lon="5.96419">
        <ele>425</ele>
        <time>2014-06-01T12:31:25Z</time>
      </trkpt>
      <trkpt lat="45.40277" lon="5.96423">
        <ele>422</ele>
        <time>2014-06-01T12:31:29Z</time>
      </trkpt>
      <trkpt lat="45.403" lon="5.96428">
        <ele>422</ele>
        <time>2014-06-01T12:31:33Z</time>
      </trkpt>
      <trkpt lat="45.4032" lon="5.96432">
        <ele>422</ele>
        <time>2014-06-01T12:31:36Z</time>
      </trkpt>
      <trkpt lat="45.40343" lon="5.96438">
        <ele>422</ele>
        <time>2014-06-01T12:31:40Z</time>
      </trkpt>
      <trkpt lat="45.4036" lon="5.96445">
        <ele>421</ele>
        <time>2014-06-01T12:31:43Z</time>
      </trkpt>
      <trkpt lat="45.40383" lon="5.96455">
        <ele>421</ele>
        <time>2014-06-01T12:31:47Z</time>
      </trkpt>
      <trkpt lat="45.40406" lon="5.96466">
        <ele>420</ele>
        <time>2014-06-01T12:31:51Z</time>
      </trkpt>
      <trkpt lat="45.40429" lon="5.96475">
        <ele>421</ele>
        <time>2014-06-01T12:31:55Z</time>
      </trkpt>
      <trkpt lat="45.40451" lon="5.96485">
        <ele>422</ele>
        <time>2014-06-01T12:31:59Z</time>
      </trkpt>
      <trkpt lat="45.40473" lon="5.96495">
        <ele>422</ele>
        <time>2014-06-01T12:32:03Z</time>
      </trkpt>
      <trkpt lat="45.40494" lon="5.96504">
        <ele>418</ele>
        <time>2014-06-01T12:32:07Z</time>
      </trkpt>
      <trkpt lat="45.40514" lon="5.96512">
        <ele>420</ele>
        <time>2014-06-01T12:32:11Z</time>
      </trkpt>
      <trkpt lat="45.40532" lon="5.96522">
        <ele>420</ele>
        <time>2014-06-01T12:32:15Z</time>
      </trkpt>
      <trkpt lat="45.40553" lon="5.96531">
        <ele>421</ele>
        <time>2014-06-01T12:32:20Z</time>
      </trkpt>
      <trkpt lat="45.4057" lon="5.96539">
        <ele>421</ele>
        <time>2014-06-01T12:32:25Z</time>
      </trkpt>
      <trkpt lat="45.40591" lon="5.96547">
        <ele>425</ele>
        <time>2014-06-01T12:32:30Z</time>
      </trkpt>
      <trkpt lat="45.40608" lon="5.96554">
        <ele>424</ele>
        <time>2014-06-01T12:32:35Z</time>
      </trkpt>
      <trkpt lat="45.40627" lon="5.9656">
        <ele>425</ele>
        <time>2014-06-01T12:32:41Z</time>
      </trkpt>
      <trkpt lat="45.40647" lon="5.96559">
        <ele>425</ele>
        <time>2014-06-01T12:32:46Z</time>
      </trkpt>
      <trkpt lat="45.4067" lon="5.96558">
        <ele>427</ele>
        <time>2014-06-01T12:32:51Z</time>
      </trkpt>
      <trkpt lat="45.4069" lon="5.96564">
        <ele>428</ele>
        <time>2014-06-01T12:32:56Z</time>
      </trkpt>
      <trkpt lat="45.40708" lon="5.96577">
        <ele>428</ele>
        <time>2014-06-01T12:33:01Z</time>
      </trkpt>
      <trkpt lat="45.4072" lon="5.96596">
        <ele>422</ele>
        <time>2014-06-01T12:33:05Z</time>
      </trkpt>
      <trkpt lat="45.40729" lon="5.96624">
        <ele>421</ele>
        <time>2014-06-01T12:33:09Z</time>
      </trkpt>
      <trkpt lat="45.40737" lon="5.9665">
        <ele>420</ele>
        <time>2014-06-01T12:33:13Z</time>
      </trkpt>
      <trkpt lat="45.40751" lon="5.96678">
        <ele>419</ele>
        <time>2014-06-01T12:33:17Z</time>
      </trkpt>
      <trkpt lat="45.40766" lon="5.96698">
        <ele>416</ele>
        <time>2014-06-01T12:33:20Z</time>
      </trkpt>
      <trkpt lat="45.40784" lon="5.96713">
        <ele>415</ele>
        <time>2014-06-01T12:33:23Z</time>
      </trkpt>
      <trkpt lat="45.40804" lon="5.96724">
        <ele>415</ele>
        <time>2014-06-01T12:33:26Z</time>
      </trkpt>
      <trkpt lat="45.40826" lon="5.96726">
        <ele>415</ele>
        <time>2014-06-01T12:33:29Z</time>
      </trkpt>
      <trkpt lat="45.40846" lon="5.96726">
        <ele>415</ele>
        <time>2014-06-01T12:33:32Z</time>
      </trkpt>
      <trkpt lat="45.40866" lon="5.96727">
        <ele>415</ele>
        <time>2014-06-01T12:33:35Z</time>
      </trkpt>
      <trkpt lat="45.40886" lon="5.96731">
        <ele>414</ele>
        <time>2014-06-01T12:33:38Z</time>
      </trkpt>
      <trkpt lat="45.40907" lon="5.96742">
        <ele>410</ele>
        <time>2014-06-01T12:33:41Z</time>
      </trkpt>
      <trkpt lat="45.40927" lon="5.96759">
        <ele>407</ele>
        <time>2014-06-01T12:33:44Z</time>
      </trkpt>
      <trkpt lat="45.40947" lon="5.96779">
        <ele>410</ele>
        <time>2014-06-01T12:33:47Z</time>
      </trkpt>
      <trkpt lat="45.40967" lon="5.968">
        <ele>410</ele>
        <time>2014-06-01T12:33:50Z</time>
      </trkpt>
      <trkpt lat="45.40987" lon="5.96823">
        <ele>408</ele>
        <time>2014-06-01T12:33:53Z</time>
      </trkpt>
      <trkpt lat="45.41006" lon="5.96847">
        <ele>406</ele>
        <time>2014-06-01T12:33:56Z</time>
      </trkpt>
      <trkpt lat="45.41025" lon="5.96869">
        <ele>405</ele>
        <time>2014-06-01T12:33:59Z</time>
      </trkpt>
      <trkpt lat="45.41045" lon="5.96892">
        <ele>404</ele>
        <time>2014-06-01T12:34:02Z</time>
      </trkpt>
      <trkpt lat="45.41066" lon="5.96916">
        <ele>404</ele>
        <time>2014-06-01T12:34:05Z</time>
      </trkpt>
      <trkpt lat="45.41081" lon="5.96931">
        <ele>399</ele>
        <time>2014-06-01T12:34:07Z</time>
      </trkpt>
      <trkpt lat="45.41095" lon="5.96948">
        <ele>400</ele>
        <time>2014-06-01T12:34:09Z</time>
      </trkpt>
      <trkpt lat="45.4111" lon="5.96964">
        <ele>399</ele>
        <time>2014-06-01T12:34:11Z</time>
      </trkpt>
      <trkpt lat="45.41124" lon="5.9698">
        <ele>399</ele>
        <time>2014-06-01T12:34:13Z</time>
      </trkpt>
      <trkpt lat="45.41144" lon="5.97004">
        <ele>393</ele>
        <time>2014-06-01T12:34:16Z</time>
      </trkpt>
      <trkpt lat="45.41159" lon="5.97021">
        <ele>393</ele>
        <time>2014-06-01T12:34:18Z</time>
      </trkpt>
      <trkpt lat="45.41175" lon="5.97039">
        <ele>393</ele>
        <time>2014-06-01T12:34:20Z</time>
      </trkpt>
      <trkpt lat="45.4119" lon="5.97054">
        <ele>392</ele>
        <time>2014-06-01T12:34:22Z</time>
      </trkpt>
      <trkpt lat="45.41213" lon="5.97073">
        <ele>392</ele>
        <time>2014-06-01T12:34:25Z</time>
      </trkpt>
      <trkpt lat="45.41234" lon="5.9709">
        <ele>388</ele>
        <time>2014-06-01T12:34:28Z</time>
      </trkpt>
      <trkpt lat="45.41256" lon="5.97105">
        <ele>388</ele>
        <time>2014-06-01T12:34:31Z</time>
      </trkpt>
      <trkpt lat="45.41276" lon="5.97118">
        <ele>388</ele>
        <time>2014-06-01T12:34:34Z</time>
      </trkpt>
      <trkpt lat="45.41294" lon="5.9713">
        <ele>388</ele>
        <time>2014-06-01T12:34:37Z</time>
      </trkpt>
      <trkpt lat="45.41315" lon="5.97144">
        <ele>388</ele>
        <time>2014-06-01T12:34:41Z</time>
      </trkpt>
      <trkpt lat="45.41334" lon="5.97158">
        <ele>390</ele>
        <time>2014-06-01T12:34:45Z</time>
      </trkpt>
      <trkpt lat="45.41351" lon="5.97171">
        <ele>388</ele>
        <time>2014-06-01T12:34:49Z</time>
      </trkpt>
      <trkpt lat="45.4137" lon="5.97186">
        <ele>387</ele>
        <time>2014-06-01T12:34:54Z</time>
      </trkpt>
      <trkpt lat="45.4139" lon="5.97202">
        <ele>387</ele>
        <time>2014-06-01T12:34:59Z</time>
      </trkpt>
      <trkpt lat="45.41407" lon="5.97216">
        <ele>387</ele>
        <time>2014-06-01T12:35:03Z</time>
      </trkpt>
      <trkpt lat="45.41424" lon="5.97229">
        <ele>389</ele>
        <time>2014-06-01T12:35:07Z</time>
      </trkpt>
      <trkpt lat="45.41443" lon="5.97243">
        <ele>389</ele>
        <time>2014-06-01T12:35:11Z</time>
      </trkpt>
      <trkpt lat="45.41459" lon="5.97255">
        <ele>386</ele>
        <time>2014-06-01T12:35:14Z</time>
      </trkpt>
      <trkpt lat="45.41477" lon="5.97268">
        <ele>387</ele>
        <time>2014-06-01T12:35:17Z</time>
      </trkpt>
      <trkpt lat="45.41493" lon="5.97281">
        <ele>387</ele>
        <time>2014-06-01T12:35:20Z</time>
      </trkpt>
      <trkpt lat="45.41513" lon="5.97297">
        <ele>387</ele>
        <time>2014-06-01T12:35:24Z</time>
      </trkpt>
      <trkpt lat="45.41529" lon="5.97312">
        <ele>387</ele>
        <time>2014-06-01T12:35:27Z</time>
      </trkpt>
      <trkpt lat="45.41545" lon="5.97327">
        <ele>387</ele>
        <time>2014-06-01T12:35:30Z</time>
      </trkpt>
      <trkpt lat="45.41562" lon="5.9734">
        <ele>380</ele>
        <time>2014-06-01T12:35:33Z</time>
      </trkpt>
      <trkpt lat="45.41581" lon="5.97353">
        <ele>380</ele>
        <time>2014-06-01T12:35:36Z</time>
      </trkpt>
      <trkpt lat="45.41602" lon="5.97365">
        <ele>378</ele>
        <time>2014-06-01T12:35:39Z</time>
      </trkpt>
      <trkpt lat="45.41628" lon="5.97379">
        <ele>376</ele>
        <time>2014-06-01T12:35:42Z</time>
      </trkpt>
      <trkpt lat="45.41647" lon="5.9739">
        <ele>375</ele>
        <time>2014-06-01T12:35:44Z</time>
      </trkpt>
      <trkpt lat="45.41665" lon="5.97398">
        <ele>373</ele>
        <time>2014-06-01T12:35:46Z</time>
      </trkpt>
      <trkpt lat="45.41688" lon="5.97408">
        <ele>373</ele>
        <time>2014-06-01T12:35:48Z</time>
      </trkpt>
      <trkpt lat="45.41711" lon="5.97418">
        <ele>365</ele>
        <time>2014-06-01T12:35:50Z</time>
      </trkpt>
      <trkpt lat="45.41732" lon="5.97429">
        <ele>365</ele>
        <time>2014-06-01T12:35:52Z</time>
      </trkpt>
      <trkpt lat="45.41752" lon="5.97443">
        <ele>367</ele>
        <time>2014-06-01T12:35:54Z</time>
      </trkpt>
      <trkpt lat="45.41773" lon="5.97456">
        <ele>366</ele>
        <time>2014-06-01T12:35:56Z</time>
      </trkpt>
      <trkpt lat="45.41792" lon="5.97469">
        <ele>366</ele>
        <time>2014-06-01T12:35:58Z</time>
      </trkpt>
      <trkpt lat="45.41812" lon="5.97479">
        <ele>365</ele>
        <time>2014-06-01T12:36:00Z</time>
      </trkpt>
      <trkpt lat="45.41831" lon="5.97487">
        <ele>364</ele>
        <time>2014-06-01T12:36:02Z</time>
      </trkpt>
      <trkpt lat="45.4185" lon="5.97493">
        <ele>365</ele>
        <time>2014-06-01T12:36:04Z</time>
      </trkpt>
      <trkpt lat="45.41872" lon="5.97498">
        <ele>366</ele>
        <time>2014-06-01T12:36:06Z</time>
      </trkpt>
      <trkpt lat="45.41892" lon="5.975">
        <ele>361</ele>
        <time>2014-06-01T12:36:08Z</time>
      </trkpt>
      <trkpt lat="45.41911" lon="5.97506">
        <ele>362</ele>
        <time>2014-06-01T12:36:10Z</time>
      </trkpt>
      <trkpt lat="45.41928" lon="5.97517">
        <ele>360</ele>
        <time>2014-06-01T12:36:12Z</time>
      </trkpt>
      <trkpt lat="45.41944" lon="5.97531">
        <ele>359</ele>
        <time>2014-06-01T12:36:14Z</time>
      </trkpt>
      <trkpt lat="45.41962" lon="5.97542">
        <ele>358</ele>
        <time>2014-06-01T12:36:16Z</time>
      </trkpt>
      <trkpt lat="45.41979" lon="5.97552">
        <ele>357</ele>
        <time>2014-06-01T12:36:18Z</time>
      </trkpt>
      <trkpt lat="45.41996" lon="5.97561">
        <ele>356</ele>
        <time>2014-06-01T12:36:20Z</time>
      </trkpt>
      <trkpt lat="45.42014" lon="5.9757">
        <ele>355</ele>
        <time>2014-06-01T12:36:22Z</time>
      </trkpt>
      <trkpt lat="45.42036" lon="5.97582">
        <ele>356</ele>
        <time>2014-06-01T12:36:25Z</time>
      </trkpt>
      <trkpt lat="45.4206" lon="5.97592">
        <ele>352</ele>
        <time>2014-06-01T12:36:28Z</time>
      </trkpt>
      <trkpt lat="45.42083" lon="5.976">
        <ele>354</ele>
        <time>2014-06-01T12:36:31Z</time>
      </trkpt>
      <trkpt lat="45.421" lon="5.9761">
        <ele>353</ele>
        <time>2014-06-01T12:36:34Z</time>
      </trkpt>
      <trkpt lat="45.42121" lon="5.97625">
        <ele>353</ele>
        <time>2014-06-01T12:36:38Z</time>
      </trkpt>
      <trkpt lat="45.42142" lon="5.97637">
        <ele>353</ele>
        <time>2014-06-01T12:36:42Z</time>
      </trkpt>
      <trkpt lat="45.42161" lon="5.97649">
        <ele>352</ele>
        <time>2014-06-01T12:36:46Z</time>
      </trkpt>
      <trkpt lat="45.42179" lon="5.9766">
        <ele>353</ele>
        <time>2014-06-01T12:36:50Z</time>
      </trkpt>
      <trkpt lat="45.42198" lon="5.97671">
        <ele>348</ele>
        <time>2014-06-01T12:36:54Z</time>
      </trkpt>
      <trkpt lat="45.42219" lon="5.97683">
        <ele>348</ele>
        <time>2014-06-01T12:36:58Z</time>
      </trkpt>
      <trkpt lat="45.42236" lon="5.97693">
        <ele>348</ele>
        <time>2014-06-01T12:37:01Z</time>
      </trkpt>
      <trkpt lat="45.42256" lon="5.97708">
        <ele>349</ele>
        <time>2014-06-01T12:37:05Z</time>
      </trkpt>
      <trkpt lat="45.42276" lon="5.97721">
        <ele>348</ele>
        <time>2014-06-01T12:37:09Z</time>
      </trkpt>
      <trkpt lat="45.42294" lon="5.97734">
        <ele>348</ele>
        <time>2014-06-01T12:37:13Z</time>
      </trkpt>
      <trkpt lat="45.42312" lon="5.97746">
        <ele>348</ele>
        <time>2014-06-01T12:37:17Z</time>
      </trkpt>
      <trkpt lat="45.4233" lon="5.9776">
        <ele>343</ele>
        <time>2014-06-01T12:37:21Z</time>
      </trkpt>
      <trkpt lat="45.42347" lon="5.97773">
        <ele>343</ele>
        <time>2014-06-01T12:37:25Z</time>
      </trkpt>
      <trkpt lat="45.42365" lon="5.97786">
        <ele>342</ele>
        <time>2014-06-01T12:37:29Z</time>
      </trkpt>
      <trkpt lat="45.42383" lon="5.97798">
        <ele>342</ele>
        <time>2014-06-01T12:37:33Z</time>
      </trkpt>
      <trkpt lat="45.42402" lon="5.97807">
        <ele>341</ele>
        <time>2014-06-01T12:37:36Z</time>
      </trkpt>
      <trkpt lat="45.42423" lon="5.97815">
        <ele>342</ele>
        <time>2014-06-01T12:37:39Z</time>
      </trkpt>
      <trkpt lat="45.42443" lon="5.97824">
        <ele>342</ele>
        <time>2014-06-01T12:37:42Z</time>
      </trkpt>
      <trkpt lat="45.42461" lon="5.97832">
        <ele>343</ele>
        <time>2014-06-01T12:37:45Z</time>
      </trkpt>
      <trkpt lat="45.42482" lon="5.97842">
        <ele>337</ele>
        <time>2014-06-01T12:37:48Z</time>
      </trkpt>
      <trkpt lat="45.42504" lon="5.97851">
        <ele>338</ele>
        <time>2014-06-01T12:37:51Z</time>
      </trkpt>
      <trkpt lat="45.42525" lon="5.97858">
        <ele>338</ele>
        <time>2014-06-01T12:37:54Z</time>
      </trkpt>
      <trkpt lat="45.42545" lon="5.97866">
        <ele>338</ele>
        <time>2014-06-01T12:37:57Z</time>
      </trkpt>
      <trkpt lat="45.42568" lon="5.97875">
        <ele>338</ele>
        <time>2014-06-01T12:38:00Z</time>
      </trkpt>
      <trkpt lat="45.42591" lon="5.97885">
        <ele>339</ele>
        <time>2014-06-01T12:38:03Z</time>
      </trkpt>
      <trkpt lat="45.42612" lon="5.97894">
        <ele>339</ele>
        <time>2014-06-01T12:38:06Z</time>
      </trkpt>
      <trkpt lat="45.4263" lon="5.97906">
        <ele>340</ele>
        <time>2014-06-01T12:38:09Z</time>
      </trkpt>
      <trkpt lat="45.42648" lon="5.97919">
        <ele>334</ele>
        <time>2014-06-01T12:38:12Z</time>
      </trkpt>
      <trkpt lat="45.42667" lon="5.97933">
        <ele>337</ele>
        <time>2014-06-01T12:38:15Z</time>
      </trkpt>
      <trkpt lat="45.42684" lon="5.97947">
        <ele>336</ele>
        <time>2014-06-01T12:38:18Z</time>
      </trkpt>
      <trkpt lat="45.42701" lon="5.9796">
        <ele>335</ele>
        <time>2014-06-01T12:38:21Z</time>
      </trkpt>
      <trkpt lat="45.42722" lon="5.97975">
        <ele>335</ele>
        <time>2014-06-01T12:38:25Z</time>
      </trkpt>
      <trkpt lat="45.4274" lon="5.97987">
        <ele>334</ele>
        <time>2014-06-01T12:38:28Z</time>
      </trkpt>
      <trkpt lat="45.42762" lon="5.98002">
        <ele>333</ele>
        <time>2014-06-01T12:38:32Z</time>
      </trkpt>
      <trkpt lat="45.42779" lon="5.98014">
        <ele>333</ele>
        <time>2014-06-01T12:38:35Z</time>
      </trkpt>
      <trkpt lat="45.42797" lon="5.98027">
        <ele>333</ele>
        <time>2014-06-01T12:38:38Z</time>
      </trkpt>
      <trkpt lat="45.42815" lon="5.98042">
        <ele>333</ele>
        <time>2014-06-01T12:38:41Z</time>
      </trkpt>
      <trkpt lat="45.42832" lon="5.98058">
        <ele>332</ele>
        <time>2014-06-01T12:38:44Z</time>
      </trkpt>
      <trkpt lat="45.42852" lon="5.98077">
        <ele>333</ele>
        <time>2014-06-01T12:38:48Z</time>
      </trkpt>
      <trkpt lat="45.42871" lon="5.98098">
        <ele>331</ele>
        <time>2014-06-01T12:38:52Z</time>
      </trkpt>
      <trkpt lat="45.42886" lon="5.98114">
        <ele>331</ele>
        <time>2014-06-01T12:38:55Z</time>
      </trkpt>
      <trkpt lat="45.42901" lon="5.98128">
        <ele>331</ele>
        <time>2014-06-01T12:38:58Z</time>
      </trkpt>
      <trkpt lat="45.42921" lon="5.9814">
        <ele>331</ele>
        <time>2014-06-01T12:39:02Z</time>
      </trkpt>
      <trkpt lat="45.42941" lon="5.98151">
        <ele>330</ele>
        <time>2014-06-01T12:39:06Z</time>
      </trkpt>
      <trkpt lat="45.42961" lon="5.98158">
        <ele>330</ele>
        <time>2014-06-01T12:39:10Z</time>
      </trkpt>
      <trkpt lat="45.42984" lon="5.9816">
        <ele>329</ele>
        <time>2014-06-01T12:39:14Z</time>
      </trkpt>
      <trkpt lat="45.43002" lon="5.98159">
        <ele>329</ele>
        <time>2014-06-01T12:39:18Z</time>
      </trkpt>
      <trkpt lat="45.43021" lon="5.98158">
        <ele>330</ele>
        <time>2014-06-01T12:39:22Z</time>
      </trkpt>
      <trkpt lat="45.43029" lon="5.98183">
        <ele>329</ele>
        <time>2014-06-01T12:39:31Z</time>
      </trkpt>
      <trkpt lat="45.43016" lon="5.98207">
        <ele>329</ele>
        <time>2014-06-01T12:39:35Z</time>
      </trkpt>
      <trkpt lat="45.43003" lon="5.98234">
        <ele>329</ele>
        <time>2014-06-01T12:39:39Z</time>
      </trkpt>
      <trkpt lat="45.42988" lon="5.9826">
        <ele>329</ele>
        <time>2014-06-01T12:39:43Z</time>
      </trkpt>
      <trkpt lat="45.42973" lon="5.98283">
        <ele>330</ele>
        <time>2014-06-01T12:39:47Z</time>
      </trkpt>
      <trkpt lat="45.42958" lon="5.98299">
        <ele>330</ele>
        <time>2014-06-01T12:39:52Z</time>
      </trkpt>
      <trkpt lat="45.42942" lon="5.98316">
        <ele>330</ele>
        <time>2014-06-01T12:39:58Z</time>
      </trkpt>
      <trkpt lat="45.42931" lon="5.9834">
        <ele>330</ele>
        <time>2014-06-01T12:40:03Z</time>
      </trkpt>
      <trkpt lat="45.42921" lon="5.98366">
        <ele>330</ele>
        <time>2014-06-01T12:40:11Z</time>
      </trkpt>
      <trkpt lat="45.42913" lon="5.98388">
        <ele>329</ele>
        <time>2014-06-01T12:40:17Z</time>
      </trkpt>
      <trkpt lat="45.42911" lon="5.98414">
        <ele>330</ele>
        <time>2014-06-01T12:40:32Z</time>
      </trkpt>
    </trkseg>
  </trk>
</gpx>